[[{"header":{"parameterUnit":"m.s-1","parameterCategory":1,"la1":31.0,"la2":29.5877,"lo1":-88.7671,"lo2":-86.6584,"dy":0.0162,"dx":0.0185,"nx":115,"ny":88,"refTime":"2024-06-01T06:00:00:Z","depth":0,"parameterNumber":2,"parameterNumberName":"U-component_of_WINDS"},"data":[0.0,0.0,0.0,0.0,0.0,0.0,0.0,0.0,0.0,0.0,0.0,0.0,0.0,0.0,0.0,0.0,0.0,0.0,0.0,0.0,0.0,0.0,0.0,0.0,0.0,0.0,0.0,0.0,0.0,0.0,0.0,0.0,0.0,0.0,0.0,0.0,0.0,0.0,0.0,0.0,0.0,0.0,0.0,0.0,0.0,0.0,0.0,0.0,0.0,0.0,0.0,0.0,0.0,0.0,0.0,0.0,0.0,0.0,0.0,0.0,0.0,0.0,0.0,0.0,0.0,0.0,0.0,0.0,0.0,0.0,0.0,0.0,0.0,0.0,0.0,0.0,0.0,0.0,0.0,0.0,0.0,0.0,0.0,0.0,0.0,0.0,0.0,0.0,0.0,0.0,0.0,0.0,0.0,0.0,0.0,0.0,0.0,0.0,0.0,0.0,0.0,0.0,0.0,0.0,0.0,0.0,0.0,0.0,0.0,0.0,0.0,0.0,0.0,0.0,0.0,0.0,0.0,0.0,0.0,0.0,0.0,0.0,0.0,0.0,0.0,0.0,0.0,0.0,0.0,0.0,0.0,0.0,0.0,0.0,0.0,0.0,0.0,0.0,0.0,0.0,0.0,0.0,0.0,0.0,0.0,0.0,0.0,0.0,0.0,0.0,0.0,0.0,0.0,0.0,0.0,0.0,0.0,0.0,0.0,0.0,0.0,0.0,0.0,0.0,0.0,0.0,0.0,0.0,0.0,0.0,0.0,0.0,0.0,0.0,0.0,0.0,0.0,0.0,0.0,0.0,0.0,0.0,0.0,0.0,0.0,0.0,0.0,0.0,0.0,0.0,0.0,0.0,0.0,0.0,0.0,0.0,0.0,0.0,0.0,0.0,0.0,0.0,0.0,0.0,0.0,0.0,0.0,0.0,0.0,0.0,0.0,0.0,0.0,0.0,0.0,0.0,0.0,0.0,0.0,0.0,0.0,0.0,0.0,0.0,0.0,0.0,0.0,0.0,0.0,0.0,0.0,0.0,0.0,0.0,0.0,0.0,0.0,0.0,0.0,0.0,0.0,0.0,0.0,0.0,0.0,0.0,0.0,0.0,0.0,0.0,0.0,0.0,0.0,0.0,0.0,0.0,0.0,0.0,0.0,0.0,0.0,0.0,0.0,0.0,0.0,0.0,0.0,0.0,0.0,0.0,0.0,0.0,0.0,0.0,0.0,0.0,0.0,0.0,0.0,0.0,0.0,0.0,0.0,0.0,0.0,0.0,0.0,0.0,0.0,0.0,0.0,0.0,0.0,0.0,0.0,0.0,0.0,0.0,0.0,0.0,0.0,0.0,0.0,0.0,0.0,0.0,0.0,0.0,0.0,0.0,0.0,0.0,0.0,0.0,0.0,0.0,0.0,0.0,0.0,0.0,0.0,0.0,0.0,0.0,0.0,0.0,0.0,0.0,0.0,0.0,0.0,0.0,0.0,0.0,0.0,0.0,0.0,0.0,0.0,0.0,0.0,0.0,0.0,0.0,0.0,0.0,0.0,0.0,0.0,0.0,0.0,0.0,0.0,0.0,0.0,0.0,0.0,0.0,0.0,0.0,0.0,0.0,0.0,0.0,0.0,0.0,0.0,0.0,0.0,0.0,0.0,0.0,0.0,0.0,0.0,0.0,0.0,0.0,0.0,0.0,0.0,0.0,0.0,0.0,0.0,0.0,0.0,0.0,0.0,0.0,0.0,0.0,0.0,0.0,0.0,0.0,0.0,0.0,0.0,0.0,0.0,0.0,0.0,0.0,0.0,0.0,0.0,0.0,0.0,0.0,0.0,0.0,0.0,0.0,0.0,0.0,0.0,0.0,0.0,0.0,0.0,0.0,0.0,0.0,0.0,0.0,0.0,0.0,0.0,0.0,0.0,0.0,0.0,0.0,0.0,0.0,0.0,0.0,0.0,0.0,0.0,0.0,0.0,0.0,0.0,0.0,0.0,0.0,0.0,0.0,0.0,0.0,0.0,0.0,0.0,0.0,0.0,0.0,0.0,0.0,0.0,0.0,0.0,0.0,0.0,0.0,0.0,0.0,0.0,0.0,0.0,0.0,0.0,0.0,0.0,0.0,0.0,0.0,0.0,0.0,0.0,0.0,0.0,0.0,0.0,0.0,0.0,0.0,0.0,0.0,0.0,0.0,0.0,0.0,0.0,0.0,0.0,0.0,0.0,0.0,0.0,0.0,0.0,0.0,0.0,0.0,0.0,0.0,0.0,0.0,0.0,0.0,0.0,0.0,0.0,0.0,0.0,0.0,0.0,0.0,0.0,0.0,0.0,0.0,0.0,0.0,0.0,0.0,0.0,0.0,0.0,0.0,0.0,0.0,0.0,0.0,0.0,0.0,0.0,0.0,0.0,0.0,0.0,0.0,0.0,0.0,0.0,0.0,0.0,0.0,0.0,0.0,0.0,0.0,0.0,0.0,0.0,0.0,0.0,0.0,0.0,0.0,0.0,0.0,0.0,0.0,0.0,0.0,0.0,0.0,0.0,0.0,0.0,0.0,0.0,0.0,0.0,0.0,0.0,0.0,0.0,0.0,0.0,0.0,0.0,0.0,0.0,0.0,0.0,0.0,0.0,0.0,0.0,0.0,0.0,0.0,0.0,0.0,0.0,0.0,0.0,0.0,0.0,0.0,0.0,0.0,0.0,0.0,0.0,0.0,0.0,0.0,0.0,0.0,0.0,0.0,0.0,0.0,0.0,0.0,0.0,0.0,0.0,0.0,0.0,0.0,0.0,0.0,0.0,0.0,0.0,0.0,0.0,0.0,0.0,0.0,0.0,0.0,0.0,0.0,0.0,0.0,0.0,0.0,0.0,0.0,0.0,0.0,0.0,0.0,0.0,0.0,0.0,0.0,0.0,0.0,0.0,0.0,0.0,0.0,0.0,0.0,0.0,0.0,0.0,0.0,0.0,0.0,0.0,0.0,0.0,0.0,0.0,0.0,0.0,0.0,0.0,0.0,0.0,0.0,0.0,0.0,0.0,0.0,0.0,0.0,0.0,0.0,0.0,0.0,0.0,0.0,0.0,0.0,0.0,0.0,0.0,0.0,0.0,0.0,0.0,0.0,0.0,0.0,0.0,0.0,0.0,0.0,0.0,0.0,0.0,0.0,0.0,0.0,0.0,0.0,0.0,0.0,0.0,0.0,0.0,0.0,0.0,0.0,0.0,0.0,0.0,0.0,0.0,0.0,0.0,0.0,0.0,0.0,0.0,0.0,0.0,0.0,0.0,0.0,0.0,0.0,0.0,0.0,0.0,0.0,0.0,0.0,0.0,0.0,0.0,0.0,0.0,0.0,0.0,0.0,0.0,0.0,0.0,0.0,0.0,0.0,0.0,0.0,0.0,0.0,0.0,0.0,0.0,0.0,0.0,0.0,0.0,0.0,0.0,0.0,0.0,0.0,0.0,0.0,0.0,0.0,0.0,0.0,0.0,0.0,0.0,0.0,0.0,0.0,0.0,0.0,0.0,0.0,0.0,0.0,0.0,0.0,0.0,0.0,0.0,0.0,0.0,0.0,0.0,0.0,0.0,0.0,0.0,0.0,0.0,0.0,0.0,0.0,0.0,0.0,0.0,0.0,0.0,0.0,0.0,0.0,0.0,0.0,0.0,0.0,0.0,0.0,0.0,0.0,0.0,0.0,0.0,0.0,0.0,0.0,0.0,0.0,0.0,0.0,0.0,0.0,0.0,0.0,0.0,0.0,0.0,0.0,0.0,0.0,0.0,0.0,0.0,0.0,0.0,0.0,0.0,0.0,0.0,0.0,0.0,0.0,0.0,0.0,0.0,0.0,0.0,0.0,0.0,0.0,0.0,0.0,0.0,0.0,0.0,0.0,0.0,0.0,0.0,0.0,0.0,0.0,0.0,0.0,0.0,0.0,0.0,0.0,0.0,0.0,0.0,0.0,0.0,0.0,0.0,0.0,0.0,0.0,0.0,0.0,0.0,0.0,0.0,0.0,0.0,0.0,0.0,0.0,0.0,0.0,0.0,0.0,0.0,0.0,0.0,0.0,0.0,0.0,0.0,0.0,0.0,0.0,0.0,0.0,0.0,0.0,0.0,0.0,0.0,0.0,0.0,0.0,0.0,0.0,0.0,0.0,0.0,0.0,0.0,0.0,0.0,0.0,0.0,0.0,0.0,0.0,0.0,0.0,0.0,0.0,0.0,0.0,0.0,0.0,0.0,0.0,0.0,0.0,0.0,0.0,0.0,0.0,0.0,0.0,0.0,0.0,-0.9802,0.0,0.0,0.0,0.0,0.0,0.0,0.0,0.0,0.0,0.0,0.0,0.0,0.0,0.0,0.0,0.0,0.0,0.0,0.0,0.0,0.0,0.0,0.0,0.0,0.0,0.0,0.0,0.0,0.0,0.0,0.0,0.0,0.0,0.0,0.0,0.0,0.0,0.0,0.0,0.0,0.0,0.0,0.0,0.0,0.0,0.0,0.0,0.0,0.0,0.0,0.0,0.0,0.0,0.0,0.0,0.0,0.0,0.0,0.0,0.0,0.0,0.0,0.0,0.0,0.0,0.0,0.0,0.0,0.0,0.0,0.0,0.0,0.0,0.0,0.0,0.0,0.0,0.0,0.0,0.0,0.0,0.0,0.0,0.0,0.0,0.0,0.0,0.0,0.0,0.0,0.0,0.0,0.0,0.0,0.0,0.0,0.0,0.0,0.0,0.0,0.0,0.0,0.0,0.0,0.0,0.0,0.0,0.0,0.0,0.0,-1.0008,-1.005,-0.9957,-0.991,-0.9947,0.0,0.0,0.0,0.0,0.0,0.0,0.0,0.0,0.0,0.0,0.0,0.0,0.0,0.0,0.0,0.0,0.0,0.0,0.0,0.0,0.0,0.0,0.0,0.0,0.0,0.0,0.0,0.0,0.0,0.0,0.0,0.0,0.0,0.0,0.0,0.0,0.0,0.0,0.0,0.0,0.0,0.0,0.0,0.0,0.0,0.0,0.0,0.0,0.0,0.0,0.0,0.0,0.0,0.0,0.0,0.0,0.0,0.0,0.0,0.0,0.0,0.0,0.0,0.0,0.0,0.0,0.0,0.0,0.0,0.0,0.0,0.0,0.0,0.0,0.0,0.0,0.0,0.0,0.0,0.0,0.0,0.0,0.0,0.0,0.0,0.0,0.0,0.0,0.0,0.0,0.0,0.0,0.0,0.0,0.0,0.0,0.0,0.0,0.0,0.0,0.0,0.0,0.0,0.0,0.0,0.0,0.0,0.0,0.0,0.0,0.0,0.0,-1.0076,-0.9938,-0.9919,0.0,0.0,0.0,0.0,0.0,0.0,0.0,0.0,0.0,0.0,0.0,0.0,0.0,0.0,0.0,0.0,0.0,0.0,0.0,0.0,0.0,0.0,0.0,0.0,0.0,0.0,0.0,0.0,0.0,0.0,0.0,0.0,0.0,0.0,0.0,0.0,0.0,0.0,0.0,0.0,0.0,0.0,0.0,0.0,0.0,0.0,0.0,0.0,0.0,0.0,0.0,0.0,0.0,0.0,0.0,0.0,0.0,0.0,0.0,0.0,0.0,0.0,0.0,0.0,0.0,0.0,0.0,0.0,0.0,0.0,0.0,0.0,0.0,0.0,0.0,0.0,0.0,0.0,0.0,0.0,0.0,0.0,0.0,0.0,0.0,0.0,0.0,0.0,0.0,0.0,0.0,0.0,0.0,0.0,0.0,0.0,0.0,0.0,0.0,0.0,0.0,0.0,0.0,0.0,0.0,0.0,0.0,0.0,0.0,0.0,-1.0475,-1.1226,-1.0507,0.0,-1.0008,0.0,0.0,0.0,0.0,0.0,0.0,0.0,0.0,0.0,0.0,0.0,0.0,0.0,0.0,0.0,0.0,0.0,0.0,0.0,0.0,0.0,0.0,0.0,0.0,0.0,0.0,0.0,0.0,0.0,0.0,0.0,0.0,0.0,0.0,0.0,0.0,0.0,0.0,0.0,0.0,0.0,0.0,0.0,0.0,0.0,0.0,0.0,0.0,0.0,0.0,0.0,0.0,0.0,0.0,0.0,0.0,0.0,0.0,0.0,0.0,0.0,0.0,0.0,0.0,0.0,0.0,0.0,0.0,0.0,0.0,0.0,0.0,0.0,0.0,0.0,0.0,0.0,0.0,0.0,0.0,0.0,0.0,0.0,0.0,0.0,0.0,0.0,0.0,0.0,0.0,0.0,0.0,0.0,0.0,0.0,0.0,0.0,0.0,0.0,0.0,0.0,0.0,0.0,0.0,0.0,0.0,0.0,0.0,0.0,0.0,-1.0267,-1.0617,-1.0286,-1.0103,0.0,0.0,0.0,0.0,0.0,0.0,0.0,0.0,0.0,0.0,0.0,0.0,0.0,0.0,0.0,0.0,0.0,0.0,0.0,0.0,0.0,0.0,0.0,0.0,0.0,0.0,0.0,0.0,0.0,0.0,0.0,0.0,0.0,0.0,0.0,0.0,0.0,0.0,0.0,0.0,0.0,0.0,0.0,0.0,0.0,0.0,0.0,0.0,0.0,0.0,0.0,0.0,0.0,0.0,0.0,0.0,0.0,0.0,0.0,0.0,0.0,0.0,0.0,0.0,0.0,0.0,0.0,0.0,0.0,0.0,0.0,0.0,0.0,0.0,0.0,0.0,0.0,0.0,0.0,0.0,0.0,0.0,0.0,0.0,0.0,0.0,0.0,0.0,0.0,0.0,0.0,0.0,0.0,0.0,0.0,0.0,0.0,0.0,0.0,0.0,0.0,0.0,0.0,0.0,0.0,0.0,0.0,0.0,0.0,0.0,-1.0273,-1.0111,-1.0094,-1.0094,-1.0,-0.9788,0.0,0.0,0.0,0.0,0.0,0.0,0.0,0.0,0.0,0.0,0.0,0.0,0.0,0.0,0.0,0.0,0.0,0.0,0.0,0.0,0.0,0.0,0.0,0.0,0.0,0.0,0.0,0.0,0.0,0.0,0.0,0.0,0.0,0.0,0.0,0.0,0.0,0.0,0.0,0.0,0.0,0.0,0.0,0.0,0.0,0.0,0.0,0.0,0.0,0.0,0.0,0.0,0.0,0.0,0.0,0.0,0.0,0.0,0.0,0.0,0.0,0.0,0.0,0.0,0.0,0.0,0.0,0.0,0.0,0.0,0.0,0.0,0.0,0.0,0.0,0.0,0.0,0.0,0.0,0.0,0.0,0.0,0.0,0.0,0.0,0.0,0.0,0.0,0.0,0.0,0.0,0.0,0.0,0.0,0.0,0.0,0.0,0.0,0.0,0.0,0.0,0.0,0.0,0.0,0.0,0.0,0.0,0.0,0.0,-1.0589,-1.0167,-1.0098,-1.0094,-0.9729,0.0,0.0,0.0,0.0,0.0,0.0,0.0,0.0,0.0,0.0,0.0,0.0,0.0,0.0,0.0,0.0,0.0,0.0,0.0,0.0,0.0,0.0,0.0,0.0,0.0,0.0,0.0,0.0,0.0,0.0,0.0,0.0,0.0,0.0,0.0,0.0,0.0,0.0,0.0,0.0,0.0,0.0,0.0,0.0,0.0,0.0,0.0,0.0,0.0,0.0,0.0,0.0,0.0,0.0,0.0,0.0,0.0,0.0,0.0,0.0,0.0,0.0,0.0,0.0,0.0,0.0,0.0,0.0,0.0,0.0,0.0,0.0,0.0,0.0,0.0,0.0,0.0,0.0,0.0,0.0,0.0,0.0,0.0,0.0,0.0,0.0,0.0,0.0,0.0,0.0,0.0,0.0,0.0,0.0,0.0,0.0,0.0,0.0,0.0,0.0,0.0,0.0,0.0,0.0,0.0,0.0,0.0,0.0,0.0,-1.0573,-1.0347,-1.0186,-1.0167,-1.0115,-0.9708,0.0,0.0,0.0,0.0,0.0,0.0,0.0,0.0,0.0,0.0,0.0,0.0,0.0,0.0,0.0,0.0,0.0,0.0,0.0,0.0,0.0,0.0,0.0,0.0,0.0,0.0,0.0,0.0,0.0,0.0,0.0,0.0,0.0,0.0,0.0,0.0,0.0,0.0,0.0,0.0,0.0,0.0,0.0,0.0,0.0,0.0,0.0,0.0,0.0,0.0,0.0,0.0,0.0,0.0,0.0,0.0,0.0,0.0,0.0,0.0,0.0,0.0,0.0,0.0,0.0,0.0,0.0,0.0,0.0,0.0,0.0,0.0,0.0,0.0,0.0,0.0,0.0,0.0,0.0,0.0,0.0,0.0,0.0,0.0,0.0,0.0,0.0,0.0,0.0,0.0,0.0,0.0,0.0,0.0,0.0,0.0,0.0,0.0,0.0,0.0,0.0,0.0,0.0,0.0,0.0,0.0,0.0,0.0,0.0,-1.0187,0.0,-1.0195,0.0,-1.0125,-0.9744,0.0,0.0,0.0,0.0,0.0,0.0,0.0,0.0,0.0,0.0,0.0,0.0,0.0,0.0,0.0,0.0,0.0,0.0,0.0,0.0,0.0,0.0,0.0,0.0,0.0,0.0,0.0,0.0,0.0,0.0,0.0,0.0,0.0,0.0,0.0,0.0,0.0,0.0,0.0,0.0,0.0,0.0,0.0,0.0,0.0,0.0,0.0,0.0,0.0,0.0,0.0,0.0,0.0,0.0,0.0,0.0,0.0,0.0,0.0,0.0,0.0,0.0,0.0,0.0,0.0,0.0,0.0,0.0,0.0,0.0,0.0,0.0,0.0,0.0,0.0,0.0,0.0,0.0,0.0,0.0,0.0,0.0,0.0,0.0,0.0,0.0,0.0,0.0,0.0,0.0,0.0,0.0,0.0,0.0,0.0,0.0,0.0,0.0,0.0,0.0,0.0,0.0,0.0,0.0,0.0,0.0,0.0,0.0,-1.0223,-1.0189,-1.021,-1.0228,-1.0127,-1.0183,-0.9799,0.0,0.0,0.0,0.0,0.0,0.0,0.0,0.0,0.0,0.0,0.0,0.0,0.0,0.0,0.0,0.0,0.0,0.0,0.0,0.0,0.0,0.0,0.0,0.0,0.0,0.0,0.0,0.0,0.0,0.0,0.0,0.0,0.0,0.0,0.0,0.0,0.0,0.0,0.0,0.0,0.0,0.0,0.0,0.0,0.0,0.0,0.0,0.0,0.0,0.0,0.0,0.0,0.0,0.0,0.0,0.0,0.0,0.0,0.0,0.0,0.0,0.0,0.0,0.0,0.0,0.0,0.0,0.0,0.0,0.0,0.0,0.0,0.0,0.0,0.0,0.0,0.0,0.0,0.0,0.0,0.0,0.0,0.0,0.0,0.0,0.0,0.0,0.0,0.0,0.0,0.0,0.0,0.0,0.0,0.0,0.0,0.0,0.0,0.0,0.0,0.0,0.0,0.0,0.0,0.0,0.0,0.0,0.0,0.0,-1.0233,-1.0796,-1.1075,-1.1062,-1.051,-1.0076,0.0,0.0,0.0,0.0,0.0,0.0,0.0,0.0,0.0,0.0,0.0,0.0,0.0,0.0,0.0,0.0,0.0,0.0,0.0,0.0,0.0,0.0,0.0,0.0,0.0,0.0,0.0,0.0,0.0,0.0,0.0,0.0,0.0,0.0,0.0,0.0,0.0,0.0,0.0,0.0,0.0,0.0,0.0,0.0,0.0,0.0,0.0,0.0,0.0,0.0,0.0,0.0,0.0,0.0,0.0,0.0,0.0,0.0,0.0,0.0,0.0,0.0,0.0,0.0,0.0,0.0,0.0,0.0,0.0,0.0,0.0,0.0,0.0,0.0,0.0,0.0,0.0,0.0,0.0,0.0,0.0,0.0,0.0,0.0,0.0,0.0,0.0,0.0,0.0,0.0,0.0,0.0,0.0,0.0,0.0,0.0,0.0,0.0,0.0,0.0,0.0,0.0,0.0,0.0,0.0,0.0,0.0,0.0,0.0,-1.1204,-1.1738,-1.185,-1.1509,-1.1001,-1.0547,-1.0206,0.0,0.0,0.0,0.0,0.0,0.0,0.0,0.0,0.0,0.0,0.0,0.0,0.0,0.0,0.0,0.0,0.0,0.0,0.0,0.0,0.0,0.0,0.0,0.0,0.0,0.0,0.0,0.0,0.0,0.0,0.0,0.0,0.0,0.0,0.0,0.0,0.0,0.0,0.0,0.0,0.0,0.0,0.0,0.0,0.0,0.0,0.0,0.0,0.0,0.0,0.0,0.0,0.0,0.0,0.0,0.0,0.0,0.0,0.0,0.0,0.0,0.0,0.0,0.0,0.0,0.0,0.0,0.0,0.0,0.0,0.0,0.0,0.0,0.0,0.0,0.0,0.0,0.0,0.0,0.0,0.0,0.0,0.0,0.0,0.0,0.0,0.0,0.0,0.0,0.0,0.0,0.0,0.0,0.0,0.0,0.0,0.0,0.0,0.0,0.0,0.0,0.0,0.0,0.0,0.0,0.0,0.0,0.0,-1.2862,-1.3065,-1.2752,-1.1788,-1.1715,-1.1247,0.0,0.0,0.0,0.0,0.0,0.0,0.0,0.0,0.0,0.0,0.0,0.0,0.0,0.0,0.0,0.0,0.0,0.0,0.0,0.0,0.0,0.0,0.0,0.0,0.0,0.0,0.0,0.0,0.0,0.0,0.0,0.0,0.0,0.0,0.0,0.0,0.0,0.0,0.0,0.0,0.0,0.0,0.0,0.0,0.0,0.0,0.0,0.0,0.0,0.0,0.0,0.0,0.0,0.0,0.0,0.0,0.0,0.0,0.0,0.0,0.0,0.0,0.0,0.0,0.0,0.0,0.0,0.0,0.0,0.0,0.0,0.0,0.0,0.0,0.0,0.0,0.0,0.0,0.0,0.0,0.0,0.0,0.0,0.0,0.0,0.0,0.0,0.0,0.0,0.0,0.0,0.0,0.0,0.0,0.0,0.0,0.0,0.0,0.0,0.0,0.0,0.0,0.0,0.0,0.0,0.0,0.0,0.0,0.0,-1.3755,-1.5577,-1.5875,-1.4413,-1.3203,-1.2441,0.0,0.0,0.0,0.0,0.0,0.0,0.0,0.0,0.0,0.0,0.0,0.0,0.0,0.0,0.0,0.0,0.0,0.0,0.0,0.0,0.0,0.0,0.0,0.0,0.0,0.0,0.0,0.0,0.0,0.0,0.0,0.0,0.0,0.0,0.0,0.0,0.0,0.0,0.0,0.0,0.0,0.0,0.0,0.0,0.0,0.0,0.0,0.0,0.0,0.0,0.0,0.0,0.0,0.0,0.0,0.0,0.0,0.0,0.0,0.0,0.0,0.0,0.0,0.0,0.0,0.0,0.0,0.0,0.0,0.0,0.0,0.0,0.0,0.0,0.0,0.0,0.0,0.0,0.0,0.0,0.0,0.0,0.0,0.0,0.0,0.0,0.0,0.0,0.0,0.0,0.0,0.0,0.0,0.0,0.0,0.0,0.0,0.0,0.0,0.0,0.0,0.0,0.0,0.0,0.0,0.0,0.0,0.0,-1.4365,-1.5099,-1.7265,-1.796,-1.7027,-1.5371,-1.3809,0.0,0.0,0.0,0.0,0.0,0.0,0.0,0.0,0.0,0.0,0.0,0.0,0.0,0.0,0.0,0.0,0.0,0.0,0.0,0.0,0.0,0.0,0.0,0.0,0.0,0.0,0.0,0.0,0.0,0.0,0.0,0.0,0.0,0.0,0.0,0.0,0.0,0.0,0.0,0.0,0.0,0.0,0.0,0.0,0.0,0.0,0.0,0.0,0.0,0.0,0.0,0.0,0.0,0.0,0.0,0.0,0.0,0.0,0.0,0.0,0.0,0.0,0.0,0.0,0.0,0.0,0.0,0.0,0.0,0.0,0.0,0.0,0.0,0.0,0.0,0.0,0.0,0.0,0.0,0.0,0.0,0.0,0.0,0.0,0.0,0.0,0.0,0.0,0.0,0.0,0.0,0.0,0.0,0.0,0.0,0.0,0.0,0.0,0.0,0.0,0.0,0.0,0.0,0.0,0.0,0.0,0.0,0.0,-1.5061,-1.6685,-1.8345,-1.9208,-1.9148,-1.7573,-1.5176,0.0,0.0,0.0,0.0,0.0,0.0,0.0,0.0,0.0,0.0,0.0,0.0,0.0,0.0,0.0,0.0,0.0,0.0,0.0,0.0,0.0,0.0,0.0,0.0,0.0,0.0,0.0,0.0,0.0,0.0,0.0,0.0,0.0,0.0,0.0,0.0,0.0,0.0,0.0,0.0,0.0,0.0,0.0,0.0,0.0,0.0,0.0,0.0,0.0,0.0,0.0,0.0,0.0,0.0,0.0,0.0,0.0,0.0,0.0,0.0,0.0,0.0,0.0,0.0,0.0,0.0,0.0,0.0,0.0,0.0,0.0,0.0,0.0,0.0,0.0,0.0,0.0,0.0,0.0,0.0,0.0,0.0,0.0,0.0,0.0,0.0,0.0,0.0,0.0,0.0,0.0,0.0,0.0,0.0,0.0,0.0,0.0,0.0,0.0,0.0,0.0,0.0,0.0,0.0,0.0,0.0,0.0,0.0,-1.646,-1.7455,-1.914,-1.9732,-1.9117,-1.7492,-1.5657,0.0,0.0,0.0,0.0,0.0,0.0,0.0,0.0,0.0,0.0,0.0,0.0,0.0,0.0,0.0,0.0,0.0,0.0,0.0,0.0,0.0,0.0,0.0,0.0,0.0,0.0,0.0,0.0,0.0,0.0,0.0,0.0,0.0,0.0,0.0,0.0,0.0,0.0,0.0,0.0,0.0,0.0,0.0,0.0,0.0,0.0,0.0,0.0,-0.6293,0.0,0.0,0.0,0.0,0.0,0.0,0.0,0.0,0.0,0.0,0.0,0.0,0.0,0.0,0.0,0.0,0.0,0.0,0.0,0.0,0.0,0.0,0.0,0.0,0.0,0.0,0.0,0.0,0.0,0.0,0.0,0.0,0.0,0.0,0.0,0.0,0.0,0.0,0.0,0.0,0.0,0.0,0.0,0.0,0.0,0.0,0.0,0.0,0.0,0.0,0.0,0.0,0.0,0.0,0.0,0.0,0.0,0.0,0.0,-1.7083,-1.8302,-1.9612,-2.0093,-1.9624,-1.803,-1.62,0.0,0.0,0.0,0.0,0.0,0.0,0.0,0.0,0.0,0.0,0.0,0.0,0.0,0.0,0.0,0.0,0.0,0.0,0.0,0.0,0.0,0.0,0.0,0.0,0.0,0.0,0.0,0.0,0.0,0.0,0.0,0.0,0.0,0.0,0.0,0.0,0.0,0.0,0.0,0.0,0.0,0.0,0.0,0.0,0.0,0.0,0.0,0.0,0.0,0.0,0.0,0.0,0.0,0.0,0.0,0.0,0.0,0.0,0.0,0.0,0.0,0.0,0.0,0.0,0.0,0.0,0.0,0.0,0.0,0.0,0.0,0.0,0.0,0.0,0.0,0.0,0.0,0.0,0.0,0.0,0.0,0.0,0.0,0.0,0.0,0.0,0.0,0.0,0.0,0.0,0.0,0.0,0.0,0.0,0.0,0.0,0.0,0.0,0.0,0.0,0.0,0.0,0.0,0.0,0.0,0.0,0.0,-1.5657,-1.7346,-1.9142,-1.9927,-2.0292,-2.0289,-1.8664,-1.6689,-1.4389,0.0,0.0,0.0,0.0,0.0,0.0,0.0,0.0,0.0,0.0,0.0,0.0,0.0,0.0,0.0,0.0,0.0,0.0,0.0,0.0,0.0,0.0,0.0,0.0,0.0,0.0,0.0,0.0,0.0,0.0,0.0,0.0,0.0,0.0,0.0,0.0,0.0,0.0,-0.6816,-0.8007,0.0,0.0,0.0,0.0,0.0,0.0,0.0,0.0,-0.8507,0.0,0.0,0.0,0.0,0.0,0.0,0.0,0.0,0.0,0.0,0.0,0.0,0.0,0.0,0.0,0.0,0.0,0.0,0.0,0.0,0.0,0.0,0.0,0.0,0.0,0.0,0.0,0.0,0.0,0.0,0.0,0.0,0.0,0.0,0.0,0.0,0.0,0.0,0.0,0.0,0.0,0.0,0.0,0.0,0.0,0.0,0.0,0.0,0.0,0.0,0.0,0.0,0.0,0.0,0.0,0.0,-1.5833,-1.618,-1.7557,-2.0,-2.0231,-2.0296,-2.0258,-1.8673,-1.6929,-1.5106,0.0,0.0,0.0,0.0,0.0,0.0,0.0,0.0,0.0,0.0,0.0,0.0,0.0,0.0,0.0,0.0,0.0,0.0,0.0,0.0,0.0,0.0,0.0,0.0,0.0,0.0,0.0,0.0,0.0,0.0,0.0,0.0,0.0,0.0,0.0,0.0,0.0,0.0,0.0,-0.862,-0.9274,0.0,0.0,0.0,0.0,0.0,0.0,0.0,0.0,-0.908,0.0,0.0,0.0,0.0,0.0,0.0,0.0,0.0,0.0,0.0,0.0,0.0,0.0,0.0,0.0,0.0,0.0,0.0,0.0,0.0,0.0,0.0,0.0,0.0,0.0,0.0,0.0,0.0,0.0,0.0,0.0,0.0,0.0,0.0,0.0,0.0,0.0,0.0,0.0,0.0,0.0,0.0,0.0,0.0,0.0,0.0,0.0,0.0,0.0,0.0,0.0,0.0,0.0,0.0,0.0,-1.5378,-1.6506,-1.803,-2.0056,-2.0241,-2.0288,-2.025,-1.8249,-1.6532,0.0,0.0,0.0,0.0,0.0,0.0,0.0,0.0,0.0,0.0,0.0,0.0,0.0,0.0,0.0,0.0,0.0,0.0,0.0,0.0,0.0,0.0,0.0,0.0,0.0,0.0,0.0,0.0,0.0,0.0,0.0,0.0,0.0,0.0,0.0,0.0,0.0,0.0,0.0,0.0,-0.9661,-0.9998,-0.9378,0.0,0.0,0.0,0.0,0.0,0.0,-1.0074,-0.999,0.0,0.0,0.0,0.0,0.0,0.0,0.0,0.0,0.0,0.0,0.0,0.0,0.0,0.0,0.0,0.0,0.0,0.0,0.0,0.0,0.0,0.0,0.0,0.0,0.0,0.0,0.0,0.0,0.0,0.0,0.0,0.0,0.0,0.0,0.0,0.0,0.0,0.0,0.0,0.0,0.0,0.0,0.0,0.0,0.0,0.0,0.0,0.0,0.0,0.0,0.0,0.0,0.0,0.0,0.0,-1.4701,-1.6423,-1.8196,-1.9864,-2.0143,-2.0241,-2.0203,-1.7974,-1.6253,0.0,0.0,0.0,0.0,0.0,0.0,0.0,0.0,0.0,0.0,0.0,0.0,0.0,0.0,0.0,0.0,0.0,0.0,0.0,0.0,0.0,0.0,0.0,0.0,0.0,0.0,0.0,0.0,0.0,0.0,0.0,0.0,0.0,0.0,0.0,0.0,0.0,0.0,0.0,0.0,0.0,-1.0688,-0.9636,-1.0576,0.0,0.0,0.0,0.0,-1.0842,-1.098,0.0,0.0,0.0,0.0,0.0,0.0,0.0,0.0,0.0,0.0,0.0,0.0,0.0,0.0,0.0,0.0,0.0,0.0,0.0,0.0,0.0,0.0,0.0,0.0,0.0,0.0,0.0,0.0,0.0,0.0,0.0,0.0,0.0,0.0,0.0,0.0,0.0,0.0,0.0,0.0,0.0,0.0,0.0,0.0,0.0,0.0,0.0,0.0,0.0,0.0,0.0,0.0,0.0,0.0,0.0,0.0,-1.4625,-1.5623,-1.7318,-1.9686,-1.9958,-2.0031,-2.0012,-1.8421,-1.6814,0.0,0.0,0.0,0.0,0.0,0.0,0.0,0.0,0.0,0.0,0.0,0.0,0.0,0.0,0.0,0.0,0.0,0.0,0.0,0.0,0.0,0.0,0.0,0.0,0.0,0.0,0.0,0.0,0.0,0.0,0.0,0.0,0.0,0.0,0.0,0.0,0.0,0.0,0.0,0.0,0.0,-1.0988,-1.0204,-1.147,-1.2334,0.0,0.0,-1.2654,-1.3253,-1.276,0.0,0.0,0.0,0.0,0.0,0.0,0.0,0.0,0.0,0.0,0.0,0.0,0.0,0.0,0.0,0.0,0.0,0.0,0.0,0.0,0.0,0.0,0.0,0.0,0.0,0.0,0.0,0.0,0.0,0.0,0.0,0.0,0.0,0.0,0.0,0.0,0.0,0.0,0.0,0.0,0.0,0.0,0.0,0.0,0.0,0.0,0.0,0.0,0.0,0.0,0.0,0.0,0.0,0.0,0.0,-1.2695,-1.4672,-1.613,-1.7857,-1.9827,-1.9959,-1.9993,-1.9993,-1.7958,-1.6292,0.0,0.0,0.0,0.0,0.0,0.0,0.0,0.0,0.0,0.0,0.0,0.0,0.0,0.0,0.0,0.0,0.0,0.0,0.0,0.0,0.0,0.0,0.0,0.0,0.0,0.0,0.0,0.0,0.0,0.0,0.0,0.0,0.0,0.0,0.0,0.0,0.0,0.0,0.0,0.0,0.0,0.0,-1.17,-1.2692,0.0,0.0,0.0,-1.3909,-1.3337,0.0,0.0,0.0,0.0,0.0,0.0,0.0,0.0,0.0,0.0,0.0,0.0,0.0,0.0,0.0,0.0,0.0,0.0,0.0,0.0,0.0,0.0,0.0,0.0,0.0,0.0,0.0,0.0,0.0,0.0,0.0,0.0,0.0,0.0,0.0,0.0,0.0,0.0,0.0,0.0,0.0,0.0,0.0,0.0,0.0,0.0,0.0,0.0,0.0,0.0,0.0,0.0,0.0,0.0,0.0,0.0,0.0,-1.4641,-1.6474,-1.8197,-1.9744,-1.9903,-1.9958,-1.9901,-1.7744,0.0,0.0,0.0,0.0,0.0,0.0,0.0,0.0,0.0,0.0,0.0,0.0,0.0,0.0,0.0,0.0,0.0,0.0,0.0,0.0,0.0,0.0,0.0,0.0,0.0,0.0,0.0,-0.5099,0.0,0.0,0.0,0.0,0.0,0.0,0.0,0.0,0.0,0.0,0.0,0.0,0.0,0.0,-1.2885,-1.284,-1.4043,-1.5206,0.0,0.0,-1.5176,-1.3935,-1.4605,-1.4521,0.0,0.0,0.0,0.0,0.0,0.0,0.0,0.0,0.0,0.0,0.0,0.0,0.0,0.0,0.0,0.0,0.0,0.0,0.0,0.0,0.0,0.0,0.0,0.0,0.0,0.0,0.0,0.0,0.0,0.0,0.0,0.0,0.0,0.0,0.0,0.0,0.0,0.0,0.0,0.0,0.0,0.0,0.0,0.0,0.0,0.0,0.0,0.0,0.0,0.0,0.0,0.0,0.0,0.0,-1.2904,-1.4492,-1.6109,-1.7737,-1.928,-1.9657,-1.9807,-1.9794,-1.8383,-1.6797,0.0,0.0,0.0,0.0,0.0,0.0,0.0,0.0,0.0,0.0,0.0,0.0,0.0,0.0,0.0,0.0,0.0,0.0,0.0,0.0,0.0,0.0,0.0,0.0,0.0,0.0,0.0,0.0,0.0,0.0,0.0,0.0,0.0,0.0,0.0,0.0,0.0,0.0,0.0,0.0,0.0,-1.3584,-1.2968,-1.5558,-1.7547,0.0,-1.6924,-1.6392,-1.6346,-1.5758,-1.4694,-1.3005,0.0,0.0,0.0,0.0,0.0,0.0,0.0,0.0,0.0,0.0,0.0,0.0,0.0,0.0,0.0,0.0,0.0,0.0,0.0,0.0,0.0,0.0,0.0,0.0,0.0,0.0,0.0,0.0,0.0,0.0,0.0,0.0,0.0,0.0,0.0,0.0,0.0,0.0,0.0,0.0,0.0,0.0,0.0,0.0,0.0,0.0,0.0,0.0,0.0,0.0,0.0,0.0,0.0,-1.3429,-1.4614,-1.6731,-1.8428,-1.9543,-1.9644,-1.9676,-1.9657,-1.8162,-1.6546,0.0,0.0,0.0,0.0,0.0,0.0,0.0,0.0,0.0,0.0,0.0,0.0,0.0,0.0,0.0,0.0,0.0,0.0,0.0,0.0,0.0,0.0,0.0,0.0,0.0,0.0,0.0,0.0,-0.6314,-0.6606,-0.6502,0.0,0.0,0.0,0.0,0.0,0.0,0.0,0.0,0.0,0.0,-1.4934,-1.5741,-1.6982,0.0,0.0,-1.8617,-1.7925,-1.7416,-1.7104,-1.6311,-1.4621,-1.3902,0.0,0.0,0.0,0.0,0.0,0.0,0.0,0.0,0.0,0.0,0.0,0.0,0.0,0.0,0.0,0.0,0.0,0.0,0.0,0.0,0.0,0.0,0.0,0.0,0.0,0.0,0.0,0.0,0.0,0.0,0.0,0.0,0.0,0.0,0.0,0.0,0.0,0.0,0.0,0.0,0.0,0.0,0.0,0.0,0.0,0.0,0.0,0.0,0.0,0.0,0.0,0.0,-1.3729,-1.465,-1.7058,-1.8863,-1.9969,-1.9735,-1.9719,-1.9906,-1.8373,-1.6754,0.0,0.0,0.0,0.0,0.0,0.0,0.0,0.0,0.0,0.0,0.0,0.0,0.0,0.0,0.0,0.0,0.0,0.0,0.0,0.0,0.0,0.0,0.0,0.0,0.0,0.0,0.0,0.0,-0.7152,-0.7473,-0.7385,0.0,0.0,0.0,0.0,0.0,0.0,0.0,0.0,0.0,0.0,-1.5984,-1.7484,-1.8139,-1.8869,-1.9994,-1.945,-1.8641,-1.7873,-1.7779,-1.7247,-1.5565,0.0,0.0,0.0,0.0,0.0,0.0,0.0,0.0,0.0,0.0,0.0,0.0,0.0,0.0,0.0,0.0,0.0,0.0,0.0,0.0,0.0,0.0,0.0,0.0,0.0,0.0,0.0,-0.9997,0.0,0.0,-0.991,0.0,0.0,0.0,0.0,0.0,0.0,0.0,0.0,0.0,0.0,0.0,0.0,0.0,0.0,0.0,0.0,0.0,0.0,0.0,0.0,0.0,0.0,-1.3721,-1.4517,-1.6972,-1.8919,-2.0425,-1.9918,-1.9973,-2.0681,-1.927,-1.7648,-1.5865,0.0,0.0,0.0,0.0,0.0,0.0,0.0,0.0,0.0,0.0,0.0,0.0,0.0,0.0,0.0,0.0,0.0,0.0,0.0,0.0,0.0,0.0,0.0,0.0,0.0,0.0,-0.7332,-0.7319,-0.7358,0.0,0.0,0.0,0.0,0.0,0.0,0.0,0.0,0.0,0.0,-1.5553,-1.655,-1.7605,-1.8999,-1.9888,-1.9836,-1.9098,-1.8316,-1.7761,-1.7633,-1.7087,0.0,0.0,0.0,0.0,0.0,0.0,0.0,0.0,0.0,0.0,0.0,0.0,0.0,0.0,0.0,0.0,0.0,0.0,0.0,0.0,0.0,0.0,0.0,0.0,0.0,0.0,0.0,-1.3125,-1.2602,0.0,0.0,0.0,0.0,0.0,0.0,0.0,0.0,0.0,0.0,0.0,-1.7339,-1.7837,0.0,0.0,0.0,0.0,0.0,0.0,0.0,0.0,0.0,0.0,0.0,0.0,-1.475,-1.6138,-1.8493,-2.0236,-2.1317,-2.0602,-2.0338,-2.056,-1.9068,-1.7213,-1.5014,0.0,0.0,0.0,0.0,0.0,0.0,0.0,0.0,0.0,0.0,0.0,0.0,0.0,0.0,0.0,0.0,0.0,0.0,0.0,0.0,0.0,0.0,0.0,0.0,0.0,-0.8414,0.0,0.0,0.0,0.0,0.0,0.0,0.0,0.0,0.0,0.0,0.0,-1.4102,-1.6106,-1.7264,-1.8304,-1.9296,-1.9876,-2.0112,0.0,0.0,0.0,0.0,0.0,0.0,0.0,0.0,0.0,0.0,0.0,0.0,0.0,0.0,-1.5333,-1.3106,-1.2469,-1.2243,-1.2142,0.0,0.0,0.0,0.0,0.0,0.0,0.0,0.0,0.0,0.0,0.0,0.0,0.0,0.0,-1.5243,-1.4957,-1.4637,0.0,0.0,0.0,0.0,0.0,0.0,0.0,0.0,-1.8158,-1.9226,-1.9726,-2.0216,-2.0021,0.0,-1.8879,-1.7002,0.0,0.0,0.0,0.0,0.0,0.0,0.0,0.0,-1.5698,-1.733,-1.9421,-2.1043,-2.2125,-2.108,-2.0658,-2.0896,-1.9098,-1.7105,-1.4995,-1.2668,-1.129,0.0,0.0,0.0,0.0,0.0,0.0,0.0,0.0,0.0,0.0,0.0,0.0,0.0,0.0,0.0,0.0,0.0,0.0,0.0,0.0,0.0,0.0,0.0,-0.9202,0.0,0.0,0.0,0.0,0.0,0.0,0.0,0.0,0.0,-1.3925,-1.4602,-1.5696,-1.7384,-1.8133,-1.894,-2.0134,0.0,0.0,0.0,0.0,0.0,0.0,0.0,-1.9404,-1.9442,-1.8804,-1.8233,-1.8068,-1.7436,-1.7042,-1.7215,0.0,0.0,-1.4932,-1.42,-1.3997,-1.3913,-1.3961,-1.3995,-1.3897,-1.4189,-1.4393,0.0,0.0,0.0,0.0,0.0,0.0,0.0,0.0,-1.641,-1.6496,0.0,-1.6354,0.0,0.0,0.0,0.0,-1.4799,-1.725,0.0,0.0,-2.1362,-2.2238,-2.2231,-2.2243,-2.1842,-2.1164,-2.1804,-2.0855,-1.8371,-1.595,0.0,0.0,0.0,0.0,0.0,0.0,-1.6573,-1.8225,-1.9832,-2.1391,-2.2933,-2.1456,-2.097,-2.1629,-1.9363,-1.7344,-1.5802,-1.4866,-1.3369,-1.1113,-1.0194,0.0,0.0,0.0,0.0,0.0,0.0,0.0,0.0,0.0,0.0,0.0,0.0,0.0,0.0,0.0,0.0,0.0,0.0,0.0,0.0,-0.9243,0.0,0.0,0.0,0.0,0.0,0.0,0.0,0.0,0.0,0.0,-1.6065,-1.5967,-1.6429,-1.8217,0.0,0.0,0.0,0.0,-2.0923,-2.2519,-2.1857,-2.1199,-2.1337,-2.1993,-2.2014,-2.0618,0.0,0.0,-1.9105,-1.96,-1.9865,-1.8865,-1.95,-1.9769,-1.8065,-1.6984,-1.6468,-1.6445,-1.6407,-1.6506,-1.6542,-1.6869,-1.7311,-2.0996,0.0,0.0,0.0,0.0,-1.8608,-1.9595,-2.1451,-2.0692,-2.0182,-1.9838,-1.9517,0.0,0.0,0.0,0.0,0.0,0.0,-2.0368,-2.1197,-2.2271,-2.3064,-2.3627,-2.3627,-2.3508,-2.3277,-2.2953,-2.2392,-2.1633,-2.0341,-1.7839,-1.4224,0.0,0.0,0.0,0.0,-1.85,-2.0647,-2.1767,-2.2786,-2.3823,-2.2822,-2.1832,-2.0904,-1.908,-1.7612,-1.6578,-1.5227,-1.3925,-1.2669,-1.1283,0.0,0.0,0.0,0.0,0.0,0.0,0.0,0.0,0.0,0.0,0.0,0.0,0.0,0.0,0.0,0.0,0.0,0.0,0.0,-0.9221,-0.9607,-0.9991,0.0,0.0,0.0,0.0,0.0,0.0,0.0,0.0,0.0,-1.8243,-1.7821,-1.7824,0.0,0.0,-1.9331,-1.9871,-2.0842,-2.1808,-2.2663,-2.2513,0.0,-2.2359,-2.2052,-2.1888,-2.2038,-2.2299,-2.2053,-2.0904,-2.0489,-2.0192,-1.9865,-2.0077,-2.0115,-1.9619,-1.835,-1.743,-1.7353,-1.7353,-1.735,-1.7372,-1.7564,-1.7795,-2.441,-2.2161,-2.1519,-2.1712,-2.2382,-2.2016,-2.2711,-2.4069,-2.3326,-2.2717,-2.2255,-2.184,-2.0629,-1.8889,-1.8485,0.0,0.0,0.0,-2.1942,-2.2767,-2.3226,-2.3721,-2.4171,-2.4199,-2.4199,-2.4171,-2.3694,-2.3474,-2.3474,-2.2997,-2.0949,-1.7509,0.0,0.0,-1.7619,-1.8574,-2.0115,-2.2189,-2.2758,-2.3391,-2.4153,-2.3107,-2.1896,-2.0539,-1.9234,-1.8188,-1.7392,-1.6145,-1.4934,-1.3826,-1.2554,-1.1196,0.0,0.0,0.0,0.0,0.0,0.0,0.0,0.0,0.0,0.0,0.0,-0.6246,-0.5353,0.0,0.0,0.0,-0.8039,-0.9129,-1.0094,-1.0777,0.0,0.0,0.0,0.0,0.0,0.0,0.0,-1.4499,-1.6897,-1.893,-1.9785,-1.9711,-1.9748,-2.0215,-2.0181,-2.0231,-2.0544,0.0,-2.265,-2.3468,-2.3369,-2.3314,-2.362,-2.3314,-2.3101,-2.3278,-2.3009,-2.2663,-2.2124,-2.1423,-2.1081,-2.1216,-2.1115,-2.0923,-2.0808,-1.9658,-1.8734,-1.8734,-1.8734,-1.8734,-1.8715,-1.8719,-1.885,-2.6785,-2.6675,-2.5181,-2.4924,-2.5495,-2.5485,-2.5485,-2.5448,-2.4704,-2.4392,-2.4337,-2.3611,-2.2868,-2.2143,-2.1336,0.0,-2.2216,-2.2905,-2.3584,-2.4281,-2.4226,-2.4199,-2.4199,-2.4199,-2.4199,-2.4199,-2.4199,-2.4199,-2.4199,-2.4199,-2.3446,-2.1996,-2.1198,-2.0723,-2.0621,-2.0676,-2.1483,-2.3061,-2.3098,-2.3446,-2.4153,-2.2639,-2.1418,-2.0621,-1.9774,-1.8886,-1.8016,-1.7275,-1.6156,-1.4579,-1.3715,-1.2288,-1.0143,0.0,0.0,0.0,0.0,0.0,0.0,0.0,0.0,0.0,0.0,0.0,0.0,0.0,0.0,0.0,-0.9962,0.0,-1.1077,-1.243,0.0,0.0,0.0,-1.4352,-1.3739,-1.5037,-1.5692,-1.4946,0.0,0.0,-2.0904,-2.1592,-2.1996,-2.1996,-2.1437,-2.1225,-2.1739,-2.2521,-2.348,-2.4577,-2.4284,-2.4177,-2.479,-2.4992,-2.4865,-2.4259,-2.3528,-2.3067,-2.2913,-2.2528,-2.2408,-2.2605,-2.237,-2.1962,-2.1658,-2.0985,-2.0481,-2.0365,-2.0273,-2.025,-2.0173,-2.0154,-2.0135,-2.8436,-2.84,-2.8014,-2.7273,-2.6319,-2.6308,-2.6319,-2.63,-2.6106,-2.6015,-2.6015,-2.5823,-2.564,-2.5456,-2.5244,-2.5273,-2.5428,-2.5016,-2.4934,-2.5062,-2.4493,-2.4199,-2.4199,-2.4199,-2.4199,-2.4199,-2.4199,-2.4199,-2.4199,-2.4199,-2.4016,-2.3621,-2.3419,-2.2703,-2.1565,-2.2089,-2.2896,-2.3887,-2.3914,-2.4006,-2.4153,-2.2639,-2.1702,-2.1482,-2.0068,-1.8629,-1.7257,-1.7,-1.6156,-1.4585,-1.3734,-1.3046,-1.2458,-1.0708,0.0,0.0,0.0,0.0,0.0,0.0,0.0,0.0,0.0,-0.7913,-0.7064,0.0,-0.8409,0.0,-1.0029,-1.1618,-1.2637,-1.3078,0.0,0.0,-1.5197,-1.5821,-1.6855,-1.7847,-1.8379,-1.8188,-2.0501,-2.2152,-2.2171,-2.3024,-2.3639,-2.3612,-2.2795,-2.2097,-2.1903,-2.3334,-2.4494,-2.4745,-2.4859,-2.5008,-2.518,-2.5264,-2.525,-2.5058,-2.4827,-2.45,-2.3894,-2.3682,-2.3432,-2.2932,-2.272,-2.2581,-2.2509,-2.2331,-2.1927,-2.1331,-2.0731,-2.0288,-2.0288,-2.0288,-2.0288,-3.0063,-3.0063,-3.0051,-2.9549,-2.8668,-2.7959,-2.7457,-2.7145,-2.7145,-2.6943,-2.6602,-2.6602,-2.6602,-2.6602,-2.6602,-2.6602,-2.6576,-2.6135,-2.5944,-2.5897,-2.5474,-2.5089,-2.4732,-2.4732,-2.4557,-2.4199,-2.4199,-2.4199,-2.4199,-2.4199,-2.4199,-2.4199,-2.4199,-2.3759,-2.2932,-2.3309,-2.3749,-2.4199,-2.4199,-2.4199,-2.4163,-2.2639,-2.1794,-2.1739,-2.0178,-1.8728,-1.7477,-1.7073,-1.6321,-1.508,-1.4266,-1.3666,-1.3317,-1.2054,-1.119,0.0,0.0,0.0,0.0,0.0,0.0,0.0,0.0,0.0,0.0,0.0,-0.9828,-1.0368,-1.1824,-1.3183,-1.4272,-1.5001,-1.5802,-1.6671,-1.7417,-1.8199,-1.9087,-1.9921,-2.049,-2.0766,-2.2079,-2.3088,-2.3281,-2.3832,-2.4199,-2.4199,-2.3676,-2.3208,-2.3006,-2.3911,-2.4685,-2.4975,-2.5043,-2.5138,-2.5264,-2.5308,-2.5308,-2.5308,-2.5308,-2.5135,-2.4716,-2.4639,-2.4471,-2.4024,-2.3908,-2.3774,-2.3451,-2.3028,-2.2624,-2.2143,-2.1408,-2.0754,-2.0365,-2.0288,-2.0288,-3.1403,-3.1403,-3.1403,-3.1403,-3.1286,-2.9886,-2.884,-2.8099,-2.8007,-2.7567,-2.6906,-2.6924,-2.6914,-2.6895,-2.6924,-2.6906,-2.6895,-2.6814,-2.6759,-2.6749,-2.6649,-2.6227,-2.5558,-2.5558,-2.5191,-2.452,-2.4502,-2.4447,-2.4355,-2.4337,-2.4309,-2.4208,-2.4199,-2.4199,-2.4199,-2.4199,-2.4199,-2.4199,-2.4199,-2.4199,-2.4171,-2.273,-2.1904,-2.1739,-2.027,-1.8977,-1.7979,-1.7355,-1.6633,-1.5753,-1.5025,-1.4334,-1.3647,-1.3432,-1.2674,0.0,-1.1113,0.0,0.0,0.0,0.0,0.0,0.0,0.0,0.0,-1.1118,-1.1778,-1.3458,-1.4719,-1.5637,-1.6121,-1.7527,-1.8445,-1.861,-1.9814,-2.0686,-2.0833,-2.1492,-2.2161,-2.2749,-2.3015,-2.3428,-2.4043,-2.4199,-2.4199,-2.4199,-2.4163,-2.4089,-2.4163,-2.4219,-2.4493,-2.5096,-2.5,-2.4981,-2.5233,-2.5308,-2.5308,-2.5308,-2.5308,-2.5308,-2.5269,-2.5269,-2.5269,-2.525,-2.5173,-2.5,-2.4356,-2.3644,-2.3144,-2.299,-2.2278,-2.1427,-2.0712,-2.0385,-2.0288,-3.1403,-3.1403,-3.1403,-3.1403,-3.1378,-3.1054,-3.0485,-2.9714,-2.9072,-2.8693,-2.8546,-2.8565,-2.8565,-2.8546,-2.8565,-2.8565,-2.851,-2.7879,-2.7596,-2.7541,-2.6888,-2.6521,-2.6374,-2.6355,-2.63,-2.6153,-2.6172,-2.5823,-2.5172,-2.5164,-2.4842,-2.4218,-2.4199,-2.4199,-2.4199,0.0,0.0,0.0,-2.4199,-2.4199,-2.4181,-2.329,-2.2464,-2.1794,-2.0804,0.0,-1.7282,-1.7587,-1.7197,-1.5784,-1.5564,0.0,0.0,0.0,0.0,0.0,0.0,0.0,0.0,0.0,0.0,0.0,-1.3906,-1.3214,-1.2876,-1.2265,-1.2816,-1.5074,-1.8379,-1.9921,-1.8765,-1.9473,-2.0335,-2.1023,-2.1372,-2.1812,-2.2437,-2.2676,-2.307,-2.3814,-2.3933,-2.4025,-2.4153,-2.4199,-2.4199,-2.4199,-2.4199,-2.4199,-2.4199,-2.4339,-2.4445,-2.4461,-2.4718,-2.503,-2.5264,-2.5308,-2.5308,-2.5308,-2.5308,-2.5308,-2.5308,-2.5308,-2.5308,-2.5308,-2.5308,-2.5269,-2.5077,-2.4923,-2.4538,-2.3975,-2.3163,-2.2297,-2.1442,-2.075,-2.0288,-3.2577,-3.2577,-3.2577,-3.2577,0.0,-3.2155,-3.1751,-3.1347,-3.054,-3.0191,-3.0173,-2.9769,-2.9592,-2.9574,-2.917,-2.8987,-2.8987,-2.8583,-2.8381,-2.8374,-2.7978,-2.7585,-2.72,-2.72,-2.6998,-2.6602,-2.6602,-2.6392,-2.597,-2.5595,-2.5191,-2.4787,-2.4392,-2.4199,-2.4199,-2.4199,-2.4199,-2.4199,-2.4199,-2.4199,-2.4171,-2.341,-2.2804,-2.2373,-2.1161,0.0,0.0,0.0,0.0,0.0,0.0,0.0,0.0,0.0,0.0,-1.5068,-1.4701,-1.4658,-1.5031,-1.5086,-1.5429,-1.6218,-1.6273,-1.5759,-1.4597,-1.4462,-1.5307,-1.7332,-2.0142,-2.1472,-2.0656,-2.0913,-2.1473,-2.2263,-2.2391,-2.2703,-2.3437,-2.3602,-2.3749,-2.4098,-2.4199,-2.4199,-2.4199,-2.4199,-2.4199,-2.4199,-2.4199,-2.4199,-2.4199,-2.4303,-2.4348,-2.4459,-2.4754,-2.5071,-2.5259,-2.5308,-2.5308,-2.5308,-2.5308,-2.5308,-2.5308,-2.5308,-2.5308,-2.5308,-2.5308,-2.5308,-2.5308,-2.5308,-2.5149,-2.4736,-2.4028,-2.3374,-2.2778,-2.1485,-2.0288,-3.3807,-3.3807,-3.3807,-3.3807,-3.3733,-3.3109,-3.2803,-3.2742,-3.1788,0.0,0.0,-3.0705,-3.0411,-3.0356,-2.9555,-2.9207,-2.9207,-2.906,-2.8987,-2.8987,-2.8987,-2.8656,-2.8007,-2.7989,-2.7658,-2.7042,-2.7024,-2.6943,-2.6785,-2.6146,-2.5678,-2.5356,-2.4732,-2.4355,-2.4208,-2.4199,-2.4199,-2.4199,-2.4199,-2.4199,-2.4171,-2.3556,-2.3153,-2.3006,-2.1667,-2.0493,-1.9536,-1.8886,-1.8144,-1.7367,-1.7183,-1.711,-1.711,-1.6975,-1.6908,-1.6908,-1.6908,-1.6963,-1.711,-1.711,-1.7238,-1.7513,-1.8291,-1.8133,-1.6665,-1.7025,-1.8005,-1.9609,-2.1243,-2.218,-2.2051,-2.2161,-2.2492,-2.3153,-2.3208,-2.3492,-2.4098,-2.4199,-2.4163,-2.4199,-2.4199,-2.4199,-2.4199,-2.4199,-2.4199,-2.4199,-2.4199,-2.4199,-2.4199,-2.4209,-2.4348,-2.47,-2.4889,-2.5036,-2.5229,-2.5308,-2.5308,-2.5308,-2.5308,-2.5308,-2.5308,-2.5308,-2.5308,-2.5308,-2.5308,-2.5308,-2.5308,-2.5308,-2.5308,-2.5288,-2.4678,-2.4105,-2.3913,-2.2336,-2.0827,-3.3807,-3.3807,-3.3807,-3.3807,-3.3788,-3.3678,-3.3642,-3.3513,-3.2058,-3.1403,-3.1397,-3.1286,-3.1219,-3.1182,-3.0393,-3.0014,-2.9971,-2.9317,-2.8987,-2.8987,-2.8987,-2.8932,-2.884,-2.884,-2.8767,-2.8656,-2.8656,-2.829,-2.7688,-2.7512,-2.6788,-2.5558,-2.5283,-2.4879,-2.4254,-2.4199,-2.4199,-2.4199,-2.4199,-2.4199,-2.4199,-2.4098,-2.3685,-2.3043,-2.2767,-2.1905,-2.0419,-2.0217,-1.9795,-1.9003,-1.8309,-1.7924,-1.7906,-1.733,-1.6908,-1.6908,-1.6908,-1.7202,-1.7887,-1.7924,-1.8529,-1.9869,-2.0794,-2.0849,-1.9924,-1.9289,-1.9646,-2.1298,-2.2877,-2.3584,-2.2997,-2.3419,-2.3823,-2.3988,-2.4025,-2.4098,-2.4199,-2.4199,-2.4199,-2.4199,-2.4199,-2.4199,-2.4199,-2.4209,-2.4218,-2.4199,-2.4266,-2.4218,-2.4247,-2.4199,-2.4366,-2.4693,-2.4818,-2.4955,-2.5192,-2.5303,-2.5308,-2.5308,-2.5308,-2.5308,-2.5308,-2.5308,-2.5308,-2.5308,-2.5308,-2.5308,-2.5308,-2.5308,-2.5308,-2.5269,-2.4697,-2.4206,-2.4182,-2.3163,-2.2158,-3.3807,-3.3807,-3.3807,-3.3807,-3.3807,-3.3807,-3.3807,-3.3733,-3.3018,-3.2706,-3.2651,-3.2265,-3.2063,-3.1971,-3.1219,-3.0834,-3.0815,-3.0026,-2.9647,-2.961,-2.9189,-2.8987,-2.8987,-2.8987,-2.8987,-2.8987,-2.8987,-2.8803,-2.8448,-2.8007,-2.7412,-2.6678,-2.5852,-2.4989,-2.4254,-2.4199,-2.4199,-2.4199,-2.4199,-2.4199,-2.4199,-2.4199,-2.4025,-2.3657,-2.3244,-2.2685,-2.1905,-2.1428,-2.1041,-2.0674,-2.0325,-1.9895,-1.9428,-1.951,-1.9161,-1.8309,-1.9051,-1.951,-1.941,-1.984,-2.0417,-2.1143,-2.1555,-2.1822,-2.1868,-2.1106,-2.1151,-2.2336,-2.3529,-2.4061,-2.3685,-2.3988,-2.4199,-2.4199,-2.4199,-2.4199,-2.4199,-2.4199,-2.4199,-2.4199,-2.4199,-2.4199,-2.4199,-2.4294,-2.4375,-2.4375,-2.4454,-2.452,-2.452,-2.4528,-2.4545,-2.465,-2.4731,-2.4883,-2.5107,-2.5229,-2.5284,-2.5308,-2.5308,-2.5308,-2.5308,-2.5308,-2.5308,-2.5308,-2.5308,-2.5308,-2.5308,-2.5308,-2.5308,-2.5269,-2.5063,-2.4774,-2.4639,-2.3947,-2.2735,-3.4082,-3.4082,-3.388,-3.3807,-3.3807,-3.3807,-3.3807,-3.3807,-3.3788,-3.3807,-3.3715,-3.3128,-3.2876,-3.2766,-3.2045,-3.1659,-3.1568,-3.0834,-3.0467,-3.0393,-2.9647,-2.928,-2.9244,-2.9115,-2.8987,-2.8987,-2.8987,-2.8987,-2.8913,-2.8363,-2.797,-2.764,-2.6182,-2.5099,-2.4475,-2.4281,-2.4199,-2.4199,-2.4199,-2.4199,-2.4199,-2.4199,-2.4199,-2.4163,-2.3602,-2.3263,-2.3235,-2.2483,-2.2069,-2.2069,-2.1904,-2.1482,-2.0886,-2.1427,-2.1206,-2.0142,-2.106,-2.15,-2.0923,-2.1584,-2.2088,-2.2088,-2.2253,-2.2611,-2.3125,-2.2703,-2.2575,-2.3235,-2.3841,-2.4199,-2.4153,-2.419,-2.4199,-2.4199,-2.4199,-2.4199,-2.4199,-2.4199,-2.4199,-2.4199,-2.4199,-2.4199,-2.4219,-2.4375,-2.4512,-2.4594,-2.4708,-2.4797,-2.4804,-2.4804,-2.4723,-2.4662,-2.4719,-2.4904,-2.5028,-2.5198,-2.5284,-2.5308,-2.5308,-2.5308,-2.5308,-2.5308,-2.5308,-2.5308,-2.5308,-2.5308,-2.5308,-2.5308,-2.5308,-2.5288,-2.5231,-2.525,-2.5173,-2.4615,-2.3365,-3.488,-3.4784,-3.4119,-3.3807,-3.3807,-3.3807,-3.3807,-3.3807,-3.3807,-3.3807,-3.3788,-3.3697,-3.3678,-3.3568,-3.2821,-3.2491,-3.243,-3.1659,-3.1268,-3.1176,-3.0467,-3.0081,-2.9941,-2.9335,-2.8987,-2.8987,-2.8987,-2.8987,-2.8987,-2.8895,-2.851,-2.7695,-2.6201,-2.5374,-2.5209,-2.4538,-2.4199,-2.4199,-2.4199,-2.4199,-2.4199,-2.4199,-2.4199,-2.4199,-2.4135,-2.408,-2.4025,-2.3318,-2.2896,-2.2841,-2.2216,-2.1776,-2.1702,-2.1776,-2.1748,-2.1564,-2.1729,-2.1757,-2.1739,-2.2428,-2.2887,-2.2942,-2.3511,-2.3933,-2.4043,-2.3988,-2.3979,-2.408,-2.4135,-2.4199,-2.4199,-2.4199,-2.4199,-2.4199,-2.4199,-2.4199,-2.4199,-2.4199,-2.4199,-2.4199,-2.4199,-2.4199,-2.4247,-2.4419,-2.4591,-2.4782,-2.4821,-2.4867,-2.4861,-2.4861,-2.4835,-2.4814,-2.4916,-2.5047,-2.5203,-2.5269,-2.5308,-2.5308,-2.5308,-2.5308,-2.5308,-2.5308,-2.5308,-2.5308,-2.5308,-2.5308,-2.5308,-2.5308,-2.5308,-2.5308,-2.5308,-2.5308,-2.5308,-2.5135,-2.4288,-3.5463,-3.4986,-3.4637,-3.4215,-3.3825,-3.3807,-3.3807,-3.3807,-3.3807,-3.3807,-3.3807,-3.3807,-3.3807,-3.3788,-3.344,-3.3311,-3.3238,-3.2485,-3.1843,-3.136,-3.0558,-2.9953,-2.9482,-2.917,-2.8987,-2.8987,-2.8987,-2.8987,-2.8987,-2.8987,-2.8583,-2.7769,-2.6649,-2.5888,-2.5393,-2.4603,-2.4199,-2.4199,-2.4199,-2.4199,-2.4199,-2.4199,-2.4199,-2.4199,-2.4199,-2.4199,-2.4171,-2.3878,-2.3712,-2.3694,-2.34,-2.3006,-2.2538,-2.2969,-2.2786,-2.1941,-2.2244,-2.2721,-2.3189,-2.3529,-2.3712,-2.3721,-2.3988,-2.4199,-2.4199,-2.4199,-2.4199,-2.4199,-2.4199,-2.4199,-2.4199,-2.4199,-2.4199,-2.4199,-2.4199,-2.4199,-2.4199,-2.4199,-2.4199,-2.4199,-2.4199,-2.4238,-2.4393,-2.4617,-2.4852,-2.5043,-2.5097,-2.508,-2.5091,-2.5097,-2.5103,-2.509,-2.5141,-2.5122,-2.5157,-2.5229,-2.5279,-2.5308,-2.5308,-2.5308,-2.5308,-2.5308,-2.5308,-2.5308,-2.5308,-2.5308,-2.5308,-2.5308,-2.5308,-2.5308,-2.5308,-2.5308,-2.5308,-2.5308,-2.4692,-3.6266,-3.5665,-3.5224,-3.4656,-3.4119,-3.3899,-3.3807,-3.3807,-3.3807,-3.3807,-3.3807,-3.3807,-3.3807,-3.3807,-3.3807,-3.3807,-3.3733,-3.3201,-3.2614,-3.2003,-3.1219,-3.0448,-2.9702,-2.9409,-2.9207,-2.9042,-2.8987,-2.8987,-2.8987,-2.8987,-2.8693,-2.8081,-2.7328,-2.6631,-2.6017,-2.5081,-2.452,-2.453,-2.4346,-2.4199,-2.4199,-2.4199,-2.4199,-2.4199,-2.4199,-2.4199,-2.4199,-2.4199,-2.4199,-2.4199,-2.4199,-2.3933,-2.3419,-2.3896,-2.3676,-2.2675,-2.2997,-2.3556,-2.4163,-2.4199,-2.4199,-2.4199,-2.4199,-2.4199,-2.4199,-2.4199,-2.4199,-2.4199,-2.4199,-2.4199,-2.4199,-2.4199,-2.4199,-2.4199,-2.4199,-2.4199,-2.4199,-2.4199,-2.4199,-2.4199,-2.4199,-2.4303,-2.4561,-2.478,-2.4993,-2.5228,-2.5279,-2.5308,-2.5308,-2.5279,-2.5279,-2.5308,-2.5308,-2.5253,-2.5135,-2.5208,-2.5284,-2.5308,-2.5308,-2.5308,-2.5308,-2.5308,-2.5308,-2.5308,-2.5308,-2.5308,-2.5308,-2.5308,-2.5308,-2.5308,-2.5308,-2.5308,-2.5308,-2.5308,-2.4981,-3.7419,-3.7144,-3.5646,-3.4968,-3.4894,-3.4119,-3.3807,-3.3807,-3.3807,-3.3807,-3.3807,-3.3807,-3.3807,-3.3807,-3.3807,-3.3807,-3.3788,-3.3715,-3.3605,-3.3403,-3.2729,-3.2014,-3.1274,-3.0503,-2.9739,-2.9133,-2.9023,-2.8987,-2.8987,-2.8987,-2.8987,-2.8877,-2.8081,-2.7706,-2.7365,-2.6054,-2.5338,-2.5209,-2.4612,-2.4218,-2.4199,-2.4199,-2.4199,-2.4199,-2.4199,-2.4199,-2.4199,-2.4199,-2.4199,-2.4199,-2.4199,-2.4171,-2.4126,-2.4153,-2.4116,-2.4034,-2.408,-2.4135,-2.419,-2.4199,-2.4199,-2.4199,-2.4199,-2.4199,-2.4199,-2.4199,-2.4199,-2.4199,-2.4199,-2.4199,-2.4199,-2.4199,-2.4199,-2.4199,-2.4199,-2.4199,-2.4199,-2.4199,-2.4199,-2.4199,-2.4219,-2.4401,-2.4723,-2.4797,-2.5006,-2.5217,-2.5308,-2.5308,-2.5308,-2.5308,-2.5308,-2.5308,-2.5308,-2.5284,-2.5274,-2.5274,-2.5284,-2.5308,-2.5308,-2.5308,-2.5308,-2.5308,-2.5308,-2.5308,-2.5308,-2.5308,-2.5308,-2.5308,-2.5308,-2.5308,-2.5308,-2.5308,-2.5308,-2.5308,-2.5096,-3.797,-3.7345,-3.5701,-3.5004,-3.4912,-3.4137,-3.3807,-3.3807,-3.3807,-3.3807,-3.3807,-3.3807,-3.3807,-3.3807,-3.3807,-3.3807,-3.3807,-3.3807,-3.3532,-3.3054,-3.2729,-3.2173,-3.1384,-3.0589,-3.0087,-2.9757,-2.9262,-2.8987,-2.8987,-2.8987,-2.8987,-2.8858,-2.8191,-2.7805,-2.7614,-2.6722,-2.5944,-2.5429,-2.5081,-2.4732,-2.4263,-2.4199,-2.4199,-2.4199,-2.4199,-2.4199,-2.4199,-2.4199,-2.4199,-2.4199,-2.4199,-2.4199,-2.4199,-2.4199,-2.4199,-2.4199,-2.4199,-2.4199,-2.4199,-2.4199,-2.4199,-2.4199,-2.4199,-2.4199,-2.4199,-2.4199,-2.4199,-2.4199,-2.4199,-2.4199,-2.4199,-2.4199,-2.4199,-2.4199,-2.4199,-2.4199,-2.4199,-2.4199,-2.4199,-2.4247,-2.4392,-2.4654,-2.479,-2.4994,-2.516,-2.5264,-2.5308,-2.5308,-2.5308,-2.5308,-2.5308,-2.5308,-2.5308,-2.5308,-2.5308,-2.5288,-2.5308,-2.5308,-2.5308,-2.5308,-2.5308,-2.5308,-2.5308,-2.5308,-2.5308,-2.5308,-2.5308,-2.5308,-2.5308,-2.5308,-2.5308,-2.5308,-2.5308,-2.5308,-2.5308,-3.8395,-3.7716,-3.6376,-3.5661,-3.5316,-3.4527,-3.4027,-3.3844,-3.3807,-3.3807,-3.3807,-3.3807,-3.3807,-3.3807,-3.3807,-3.3807,-3.3807,-3.3807,-3.35,-3.3036,-3.2999,-3.2559,-3.1806,-3.1219,-3.0834,-3.0503,-2.9776,-2.9262,-2.9023,-2.8987,-2.8987,-2.895,-2.8429,-2.8172,-2.8062,-2.7402,-2.6667,-2.6201,-2.5686,-2.5109,-2.4622,-2.4328,-2.4199,-2.4199,-2.4199,-2.4199,-2.4199,-2.4199,-2.4199,-2.4199,-2.4199,-2.4199,-2.4199,-2.4199,-2.4199,-2.4199,-2.4199,-2.4199,-2.4199,-2.4199,-2.4199,-2.4199,-2.4199,-2.4199,-2.4199,-2.4199,-2.4199,-2.4199,-2.4199,-2.4199,-2.4199,-2.4199,-2.4199,-2.4199,-2.4199,-2.4199,-2.4199,-2.4199,-2.4219,-2.433,-2.4512,-2.4716,-2.4869,-2.5061,-2.5198,-2.5274,-2.5308,-2.5308,-2.5308,-2.5308,-2.5308,-2.5308,-2.5308,-2.5308,-2.5308,-2.5308,-2.5308,-2.5308,-2.5308,-2.5308,-2.5308,-2.5308,-2.5308,-2.5308,-2.5308,-2.5308,-2.5308,-2.5308,-2.5308,-2.5308,-2.5308,-2.5308,-2.5308,-2.5308,-2.5308,-3.8707,-3.8524,-3.7804,-3.6942,-3.6211,-3.5261,-3.4509,-3.3972,-3.3807,-3.3807,-3.3807,-3.3807,-3.3807,-3.3807,-3.3807,-3.3807,-3.3807,-3.3807,-3.377,-3.3697,-3.3715,-3.333,-3.2632,-3.2417,-3.1935,-3.1256,-3.054,-2.9757,-2.9133,-2.9042,-2.8987,-2.8987,-2.895,-2.884,-2.8968,-2.8172,-2.778,-2.7376,-2.6292,-2.5503,-2.5293,-2.4677,-2.4281,-2.4218,-2.4199,-2.4199,-2.4199,-2.4199,-2.4199,-2.4199,-2.4199,-2.4199,-2.4199,-2.4218,-2.4209,-2.4199,-2.4199,-2.4199,-2.4199,-2.4199,-2.4199,-2.4199,-2.4199,-2.4199,-2.4199,-2.4199,-2.4199,-2.4199,-2.4199,-2.4199,-2.4199,-2.4218,-2.4218,-2.4199,-2.4199,-2.4199,-2.4199,-2.4199,-2.4266,-2.4428,-2.4537,-2.4648,-2.4879,-2.5059,-2.5146,-2.5264,-2.5308,-2.5308,-2.5308,-2.5308,-2.5308,-2.5308,-2.5308,-2.5308,-2.5308,-2.5308,-2.5308,-2.5308,-2.5308,-2.5308,-2.5308,-2.5308,-2.5308,-2.5308,-2.5308,-2.5308,-2.5308,-2.5308,-2.5308,-2.5308,-2.5308,-2.5308,-2.5308,-2.5308,-2.5308,-3.8707,-3.8597,-3.7841,-3.7364,-3.696,-3.561,-3.4839,-3.4564,-3.4064,-3.3807,-3.3807,-3.3807,-3.3807,-3.3807,-3.3807,-3.3807,-3.3807,-3.3807,-3.3807,-3.3807,-3.3807,-3.3678,-3.3366,-3.2871,-3.2173,-3.1366,-3.0595,-3.0081,-2.9757,-2.9262,-2.8987,-2.8987,-2.8987,-2.8987,-2.8987,-2.8748,-2.8393,-2.778,-2.7339,-2.6568,-2.555,-2.5172,-2.4787,-2.4263,-2.4199,-2.4199,-2.4199,-2.4199,-2.4199,-2.4199,-2.4199,-2.4199,-2.4218,-2.4339,-2.433,-2.4218,-2.4199,-2.4199,-2.4199,-2.4199,-2.4199,-2.4199,-2.4199,-2.4199,-2.4199,-2.4199,-2.4199,-2.4199,-2.4199,-2.4199,-2.4218,-2.4321,-2.4348,-2.4209,-2.4199,-2.4218,-2.4218,-2.4209,-2.4228,-2.4312,-2.4537,-2.4771,-2.4924,-2.5065,-2.5233,-2.5351,-2.5365,-2.5365,-2.5308,-2.5423,-2.5308,-2.5308,-2.5308,-2.5462,-2.55,-2.5519,-2.5462,-2.5365,-2.5308,-2.5308,-2.5308,-2.5308,-2.5308,-2.5308,-2.5308,-2.5308,-2.5308,-2.5308,-2.5308,-2.5308,-2.5308,-2.5308,-2.5308,-2.5308,-2.5308,-3.8707,-3.8634,-3.8157,-3.7749,-3.7382,-3.6028,-3.5298,-3.4912,-3.4156,-3.3807,-3.3807,-3.3807,-3.3807,-3.3807,-3.3807,-3.3807,-3.3807,-3.3807,-3.3807,-3.3807,-3.3807,-3.3807,-3.3752,-3.3311,-3.2632,-3.1898,-3.1347,-3.0779,-3.0191,-2.9714,-2.9299,-2.9042,-2.8987,-2.8987,-2.8987,-2.8987,-2.8712,-2.8264,-2.7945,-2.7302,-2.6384,-2.5705,-2.5154,-2.4677,-2.4355,-2.4218,-2.4199,-2.4266,-2.4284,-2.4237,-2.4275,-2.4275,-2.4237,-2.4384,-2.4419,-2.4256,-2.4199,-2.4199,-2.4199,-2.4199,-2.4199,-2.4199,-2.4199,-2.4199,-2.4199,-2.4199,-2.4199,-2.4199,-2.4199,-2.4199,-2.4228,-2.4375,-2.4409,-2.4321,-2.4401,-2.4365,-2.4348,-2.4312,-2.4321,-2.4428,-2.4626,-2.4849,-2.5055,-2.5176,-2.5457,-2.5654,-2.5788,-2.5577,-2.5615,-2.5923,-2.6077,-2.6255,-2.6447,-2.637,-2.5904,-2.5769,-2.5673,-2.5481,-2.5308,-2.5308,-2.5308,-2.5308,-2.5308,-2.5308,-2.5308,-2.5308,-2.5308,-2.5308,-2.5308,-2.5308,-2.5308,-2.5308,-2.5308,-2.5308,-2.5313,-3.8707,-3.8707,-3.8689,-3.8248,-3.7566,-3.6707,-3.5973,-3.5169,-3.427,-3.3954,-3.3935,-3.3862,-3.3807,-3.3807,-3.3807,-3.3807,-3.3807,-3.3807,-3.3807,-3.3807,-3.3807,-3.3807,-3.377,-3.3697,-3.3293,-3.2729,-3.2491,-3.1684,-3.0467,-3.0173,-2.9776,-2.9078,-2.8987,-2.8987,-2.8987,-2.8987,-2.8968,-2.8803,-2.8264,-2.7879,-2.7614,-2.6421,-2.5485,-2.5366,-2.4713,-2.4328,-2.4237,-2.4357,-2.441,-2.4294,-2.4445,-2.4445,-2.4312,-2.4428,-2.4459,-2.4238,-2.4209,-2.4218,-2.4209,-2.4199,-2.4199,-2.4199,-2.4199,-2.4199,-2.4199,-2.4199,-2.4199,-2.4199,-2.4199,-2.4199,-2.4237,-2.4419,-2.4528,-2.4575,-2.467,-2.4662,-2.4534,-2.452,-2.4503,-2.4553,-2.47,-2.5037,-2.5477,-2.5605,-2.5885,-2.6428,-2.6678,-2.6365,-2.6212,-2.6736,-2.7659,-2.7852,-2.7775,-2.6948,-2.639,-2.6197,-2.6019,-2.5462,-2.5308,-2.5308,-2.5313,-2.5317,-2.5339,-2.533,-2.5322,-2.5317,-2.5303,-2.5313,-2.5298,-2.5308,-2.5308,-2.5308,-2.5298,-2.5308,-2.5326,-3.8707,-3.8707,-3.8707,-3.8579,-3.8285,-3.7529,-3.7052,-3.6633,-3.5243,-3.4619,-3.4564,-3.4045,-3.3807,-3.3807,-3.3807,-3.3807,-3.3807,-3.3807,-3.3807,-3.3807,-3.3807,-3.3807,-3.3807,-3.3807,-3.3697,-3.3403,-3.2894,-3.2063,-3.1091,-3.0522,-2.9831,-2.9023,-2.9023,-2.8987,-2.8987,-2.8987,-2.8987,-2.8987,-2.8822,-2.8356,-2.7824,-2.7412,-2.6568,-2.5439,-2.5172,-2.4768,-2.431,-2.4393,-2.4578,-2.4647,-2.4685,-2.4647,-2.4528,-2.4708,-2.4652,-2.433,-2.4348,-2.4358,-2.4237,-2.4199,-2.4199,-2.4199,-2.4199,-2.4199,-2.4199,-2.4199,-2.4199,-2.4199,-2.4199,-2.4199,-2.4266,-2.4512,-2.4797,-2.5012,-2.4986,-2.4868,-2.4746,-2.4716,-2.4623,-2.4419,-2.4719,-2.5615,-2.6524,-2.6659,-2.6621,-2.7313,-2.7505,-2.7563,-2.7448,-2.7525,-2.8434,-2.8909,-2.8775,-2.7678,-2.6909,-2.6678,-2.6274,-2.5519,-2.5308,-2.5308,-2.5317,-2.5332,-2.5379,-2.5434,-2.5361,-2.5345,-2.535,-2.5339,-2.5336,-2.5303,-2.5313,-2.5322,-2.5321,-2.5315,-2.5364,-3.8707,-3.8707,-3.8707,-3.8707,-3.8597,-3.786,-3.7511,-3.718,-3.5738,-3.5004,-3.4839,-3.4156,-3.3807,-3.3807,-3.3807,-3.3807,-3.3807,-3.3807,-3.3863,-3.3955,-3.3986,-3.3915,-3.3847,-3.3807,-3.3807,-3.377,-3.3316,-3.2687,-3.188,-3.1091,-3.0283,-2.9574,-2.917,-2.9005,-2.8987,-2.8987,-2.8987,-2.8987,-2.8987,-2.8748,-2.8338,-2.7952,-2.7402,-2.6347,-2.5844,-2.5076,-2.4548,-2.4495,-2.4569,-2.4685,-2.4792,-2.4828,-2.4716,-2.4891,-2.4831,-2.4478,-2.4495,-2.4429,-2.4256,-2.4199,-2.4199,-2.4199,-2.4199,-2.4199,-2.4199,-2.4199,-2.4199,-2.4199,-2.4199,-2.4199,-2.4257,-2.4551,-2.4942,-2.5234,-2.5451,-2.5355,-2.4985,-2.4884,-2.4745,-2.47,-2.5158,-2.6101,-2.772,-2.7428,-2.7659,-2.8102,-2.8255,-2.8544,-2.8832,-2.8929,-2.9025,-2.9506,-2.9692,-2.8775,-2.8063,-2.7775,-2.6928,-2.6115,-2.5481,-2.5462,-2.5331,-2.535,-2.5399,-2.5437,-2.5414,-2.5389,-2.5374,-2.537,-2.5339,-2.5321,-2.533,-2.5354,-2.5376,-2.5379,-2.5428,-3.8707,-3.8707,-3.8707,-3.8707,-3.8597,-3.7955,-3.7639,-3.7217,-3.5885,-3.5133,-3.4853,-3.4164,-3.3895,-3.3855,-3.3979,-3.3934,-3.3947,-3.4011,-3.4087,-3.4195,-3.423,-3.4141,-3.3902,-3.3815,-3.382,-3.3788,-3.3807,-3.3256,-3.2449,-3.1709,-3.0944,-3.0087,-2.9354,-2.9023,-2.8987,-2.8987,-2.8987,-2.8987,-2.8987,-2.8968,-2.8785,-2.8356,-2.7879,-2.7376,-2.6088,-2.5402,-2.5006,-2.4764,-2.4599,-2.4567,-2.4845,-2.4936,-2.4869,-2.4987,-2.4981,-2.4835,-2.4651,-2.4461,-2.4284,-2.4228,-2.4199,-2.4199,-2.4199,-2.4199,-2.4199,-2.4199,-2.4199,-2.4199,-2.4237,-2.4294,-2.4428,-2.4718,-2.5196,-2.563,-2.6235,-2.6211,-2.5591,-2.5302,-2.5241,-2.511,-2.5914,-2.6871,-2.7731,-2.814,-2.8338,-2.9063,-2.9159,-2.9346,-2.9635,-2.9731,-2.9846,-3.0077,-3.0096,-2.9942,-2.939,-2.8934,-2.7832,-2.6813,-2.6038,-2.5688,-2.5391,-2.5371,-2.5398,-2.5413,-2.5399,-2.5383,-2.5383,-2.5367,-2.5346,-2.5376,-2.5413,-2.5444,-2.5482,-2.5476,-2.55,-3.8707,-3.8707,-3.8707,-3.8707,-3.867,-3.8505,-3.808,-3.7419,-3.6431,-3.5605,-3.4982,-3.4376,-3.4136,-3.4141,-3.4341,-3.4516,-3.4453,-3.4472,-3.454,-3.4561,-3.4582,-3.4401,-3.4111,-3.3923,-3.382,-3.3807,-3.3807,-3.3385,-3.2632,-3.1825,-3.1011,-3.0246,-2.9482,-2.8987,-2.8987,-2.8987,-2.8987,-2.8987,-2.8987,-2.8987,-2.8987,-2.8803,-2.8385,-2.7776,-2.6465,-2.5814,-2.5635,-2.5212,-2.4917,-2.4917,-2.5006,-2.5136,-2.5149,-2.5192,-2.5192,-2.5115,-2.4883,-2.4647,-2.4471,-2.4294,-2.4199,-2.4199,-2.4199,-2.4199,-2.4199,-2.4199,-2.4199,-2.4228,-2.4348,-2.4518,-2.4898,-2.553,-2.597,-2.6376,-2.7063,-2.7533,-2.73,-2.7231,-2.6891,-2.6784,-2.714,-2.8132,-2.9519,-2.9083,-2.9333,-2.9929,-3.0077,-3.0154,-3.025,-3.0385,-3.0404,-3.0404,-3.0327,-3.0115,-2.9737,-2.9261,-2.8434,-2.743,-2.6665,-2.6131,-2.5831,-2.5391,-2.5415,-2.5411,-2.5386,-2.5402,-2.5413,-2.5395,-2.5383,-2.5451,-2.549,-2.5515,-2.5537,-2.5556,-2.5572,-3.8707,-3.8707,-3.8707,-3.8707,-3.8707,-3.8689,-3.8248,-3.7456,-3.6666,-3.5906,-3.5201,-3.4519,-3.4288,-3.4453,-3.4603,-3.4684,-3.4743,-3.4822,-3.4803,-3.4754,-3.4793,-3.4705,-3.4442,-3.4129,-3.3935,-3.3847,-3.3807,-3.3513,-3.2981,-3.2008,-3.1213,-3.0668,-2.9592,-2.9042,-2.8987,-2.8987,-2.8987,-2.8987,-2.8987,-2.8987,-2.8987,-2.8968,-2.8684,-2.8054,-2.7213,-2.6826,-2.6712,-2.6466,-2.6307,-2.6226,-2.5956,-2.5557,-2.5326,-2.5308,-2.5308,-2.5248,-2.5061,-2.4771,-2.4561,-2.441,-2.4303,-2.4199,-2.4199,-2.4199,-2.4199,-2.4199,-2.4247,-2.4321,-2.449,-2.4767,-2.5507,-2.592,-2.6496,-2.7237,-2.7948,-2.8434,-2.8415,-2.814,-2.7928,-2.7846,-2.8168,-2.9038,-2.966,-2.9698,-2.9833,-3.0212,-3.0231,-3.0288,-3.0288,-3.0404,-3.0404,-3.0404,-3.0404,-3.0231,-2.9871,-2.941,-2.8896,-2.8018,-2.721,-2.6792,-2.6506,-2.5977,-2.5441,-2.5444,-2.5437,-2.5447,-2.545,-2.5451,-2.5447,-2.5517,-2.5554,-2.5563,-2.5586,-2.5625,-2.5644,-3.8707,-3.8707,-3.8707,-3.8707,-3.8707,-3.8689,-3.8138,-3.7235,-3.6669,-3.594,-3.5286,-3.4549,-3.4553,-3.4734,-3.4832,-3.4822,-3.4908,-3.5035,-3.5051,-3.4954,-3.5088,-3.499,-3.4744,-3.4434,-3.4135,-3.3876,-3.3834,-3.3747,-3.333,-3.2284,-3.1384,-3.1085,-2.9787,-2.9078,-2.8987,-2.8987,-2.8987,-2.8987,-2.8987,-2.8987,-2.8987,-2.8998,-2.8739,-2.8548,-2.8165,-2.7983,-2.7795,-2.7618,-2.7598,-2.7846,-2.7178,-2.6308,-2.5558,-2.5308,-2.5308,-2.5303,-2.5113,-2.4885,-2.467,-2.4526,-2.4419,-2.4238,-2.4256,-2.4266,-2.4275,-2.4303,-2.4393,-2.4578,-2.4826,-2.5401,-2.6359,-2.6898,-2.7303,-2.7978,-2.8794,-2.9236,-2.9159,-2.8665,-2.8698,-2.8904,-2.9154,-2.9731,-3.0077,-3.0212,-3.0327,-3.0404,-3.0404,-3.0404,-3.0404,-3.0404,-3.0404,-3.0404,-3.0404,-3.0404,-3.0077,-2.9915,-2.9357,-2.8705,-2.7859,-2.7516,-2.7126,-2.6176,-2.5603,-2.552,-2.5524,-2.551,-2.5493,-2.5477,-2.5493,-2.5573,-2.5629,-2.5632,-2.5664,-2.5684,-2.5703,-3.8707,-3.8707,-3.8707,-3.8707,-3.8707,-3.8707,-3.7908,-3.6673,-3.6636,-3.5783,-3.4605,-3.4782,-3.4935,-3.5079,-3.5289,-3.5373,-3.5312,-3.5342,-3.5369,-3.5304,-3.5376,-3.5246,-3.5016,-3.4735,-3.4434,-3.4153,-3.3974,-3.3881,-3.3453,-3.226,-3.1562,-3.1072,-2.9849,-2.9097,-2.9023,-2.8987,-2.9017,-2.9044,-2.9044,-2.9044,-2.906,-2.9075,-2.9196,-2.9202,-2.8931,-2.8784,-2.8695,-2.8241,-2.7868,-2.7871,-2.7755,-2.6832,-2.5885,-2.55,-2.5365,-2.5264,-2.5146,-2.498,-2.4865,-2.4666,-2.4518,-2.4452,-2.4444,-2.4462,-2.4479,-2.4569,-2.4781,-2.5096,-2.5679,-2.6435,-2.7508,-2.8013,-2.8555,-2.9063,-2.9525,-3.0077,-3.0058,-2.9923,-2.975,-2.9865,-3.0058,-3.0135,-3.0288,-3.0404,-3.0404,-3.0404,-3.0404,-3.0404,-3.0404,-3.0404,-3.0404,-3.0404,-3.0404,-3.0404,-3.0327,-3.0242,-2.9952,-2.9414,-2.874,-2.8304,-2.7632,-2.6355,-2.5754,-2.5651,-2.5561,-2.5535,-2.5522,-2.5496,-2.5558,-2.5634,-2.5661,-2.5703,-2.5703,-2.5703,-2.5703,-3.9168,-3.9168,-3.9149,-3.9149,-3.9149,-3.9181,-3.8231,-3.6864,-3.6805,-3.6073,-3.5103,-3.4981,-3.5171,-3.5304,-3.5424,-3.55,-3.55,-3.55,-3.55,-3.55,-3.5474,-3.5446,-3.5281,-3.5016,-3.4745,-3.4508,-3.4337,-3.4049,-3.3723,-3.2632,-3.185,-3.1182,-3.0173,-2.9445,-2.9097,-2.8987,-2.9089,-2.9156,-2.9203,-2.9259,-2.9336,-2.9346,-2.957,-2.9645,-2.9631,-2.9563,-2.9644,-2.9486,-2.9212,-2.9135,-2.8756,-2.8005,-2.7173,-2.6346,-2.5788,-2.5466,-2.5228,-2.5099,-2.5041,-2.4831,-2.4752,-2.467,-2.4673,-2.4654,-2.4793,-2.505,-2.5582,-2.6239,-2.6644,-2.7491,-2.8404,-2.8915,-2.928,-2.9737,-3.0154,-3.0346,-3.0404,-3.0404,-3.0404,-3.0404,-3.0327,-3.0288,-3.0327,-3.0404,-3.0404,-3.0404,-3.0404,-3.0404,-3.0404,-3.0404,-3.0404,-3.0404,-3.0404,-3.0404,-3.0396,-3.0381,-3.0358,-2.9924,-2.9546,-2.9118,-2.8442,-2.7287,-2.6276,-2.568,-2.5632,-2.5564,-2.5561,-2.5559,-2.5631,-2.5664,-2.5684,-2.5703,-2.5703,-2.5703,-2.5703,-3.9611,-3.9611,-3.9611,-3.9611,-3.9611,-3.9599,-3.8626,-3.7338,-3.7154,-3.6387,-3.5221,-3.5155,-3.5324,-3.5446,-3.55,-3.55,-3.55,-3.55,-3.55,-3.55,-3.55,-3.55,-3.5432,-3.5231,-3.4972,-3.4793,-3.4643,-3.4409,-3.387,-3.3105,-3.241,-3.1745,-3.0897,-2.9998,-2.9455,-2.9278,-2.9342,-2.9341,-2.9464,-2.9551,-2.9661,-2.9738,-2.9829,-2.9999,-3.0042,-3.0138,-3.0257,-3.0212,-3.0192,-3.0058,-2.9717,-2.9231,-2.8865,-2.7813,-2.6794,-2.6077,-2.5615,-2.5247,-2.5124,-2.5004,-2.5018,-2.5208,-2.5125,-2.5201,-2.557,-2.6219,-2.6864,-2.7867,-2.808,-2.8475,-2.9179,-2.9371,-2.9717,-3.0096,-3.0327,-3.0404,-3.0404,-3.0404,-3.0404,-3.0404,-3.0404,-3.0404,-3.0404,-3.0404,-3.0404,-3.0404,-3.0404,-3.0404,-3.0404,-3.0404,-3.0404,-3.0404,-3.0404,-3.0404,-3.0408,-3.0414,-3.0438,-3.0316,-3.011,-2.9853,-2.9201,-2.8384,-2.7379,-2.6327,-2.5681,-2.5628,-2.5627,-2.5606,-2.5636,-2.5664,-2.5684,-2.5703,-2.5703,-2.5703,-2.5703,-3.9611,-3.9611,-3.9611,-3.9611,-3.9634,-3.9626,-3.8659,-3.7268,-3.7338,-3.6547,-3.5138,-3.5327,-3.5453,-3.5493,-3.55,-3.55,-3.55,-3.55,-3.55,-3.55,-3.55,-3.55,-3.546,-3.5223,-3.5113,-3.4999,-3.4822,-3.4518,-3.415,-3.361,-3.3147,-3.2586,-3.1616,-3.0606,-3.0057,-2.9824,-2.9542,-2.9483,-2.9608,-2.9696,-2.9765,-2.9874,-2.9977,-3.0068,-3.0202,-3.0329,-3.0398,-3.0404,-3.0404,-3.0385,-3.0308,-3.0192,-3.0038,-2.9333,-2.8736,-2.7827,-2.6668,-2.5303,-2.5411,-2.5436,-2.5607,-2.6015,-2.6143,-2.653,-2.6975,-2.7376,-2.8176,-2.9888,-2.9448,-2.9294,-2.991,-3.0154,-3.0308,-3.0327,-3.0404,-3.0404,-3.0404,-3.0404,-3.0404,-3.0404,-3.0404,-3.0404,-3.0404,-3.0404,-3.0404,-3.0404,-3.0404,-3.0404,-3.0404,-3.0404,-3.0404,-3.0404,-3.0404,-3.0404,-3.0425,-3.043,-3.049,-3.0554,-3.0497,-3.041,-2.9902,-2.918,-2.8271,-2.7298,-2.6445,-2.5703,-2.566,-2.566,-2.5639,-2.5664,-2.5684,-2.5703,-2.5703,-2.5703,-2.5703,-4.0101,-4.0101,-4.0101,-4.0101,-4.0043,-3.9633,-3.8764,-3.7712,-3.7168,-3.6404,-3.55,-3.5439,-3.55,-3.55,-3.55,-3.55,-3.55,-3.55,-3.55,-3.55,-3.55,-3.55,-3.5467,-3.5376,-3.5281,-3.513,-3.5094,-3.5062,-3.4652,-3.4298,-3.3879,-3.3217,-3.2618,-3.1751,-3.0889,-3.0528,-3.0175,-2.9977,-2.9969,-3.0099,-3.0121,-3.0176,-3.0215,-3.0215,-3.0349,-3.0392,-3.0404,-3.0404,-3.0404,-3.0404,-3.0404,-3.0135,-2.9737,-2.9242,-2.8857,-2.8159,-2.7409,-2.6851,-2.6802,-2.6658,-2.6803,-2.7027,-2.7263,-2.7576,-2.8201,-2.8461,-2.8909,-3.0212,-3.0058,-3.0083,-3.0288,-3.0385,-3.0404,-3.0404,-3.0404,-3.0404,-3.0404,-3.0404,-3.0404,-3.0404,-3.0404,-3.0404,-3.0404,-3.0404,-3.0404,-3.0404,-3.0404,-3.0404,-3.0404,-3.0404,-3.0404,-3.0404,-3.0404,-3.0404,-3.0422,-3.0456,-3.052,-3.0581,-3.0637,-3.0566,-3.0508,-2.9863,-2.8906,-2.7676,-2.6465,-2.5957,-2.5781,-2.5684,-2.5664,-2.5684,-2.5703,-2.5703,-2.5703,-2.5703,-2.5703,-4.0496,-4.0496,-4.0496,-4.0496,-4.0419,-3.9631,-3.8808,-3.7942,-3.707,-3.6269,-3.5654,-3.55,-3.55,-3.55,-3.55,-3.55,-3.55,-3.55,-3.55,-3.55,-3.55,-3.55,-3.5474,-3.546,-3.5403,-3.5207,-3.5361,-3.5339,-3.519,-3.493,-3.4499,-3.3837,-3.3595,-3.2862,-3.1946,-3.1512,-3.1234,-3.0598,-3.0401,-3.0368,-3.0361,-3.0367,-3.0373,-3.0379,-3.0404,-3.0404,-3.0404,-3.0404,-3.0404,-3.0404,-3.0404,-3.0135,-2.9698,-2.9583,-2.9352,-2.8909,-2.8544,-2.8525,-2.8313,-2.811,-2.8088,-2.8203,-2.8506,-2.8854,-2.9225,-2.9236,-2.9346,-3.0365,-3.0346,-3.0327,-3.0404,-3.0404,-3.0404,-3.0404,-3.0404,-3.0404,-3.0404,-3.0404,-3.0404,-3.0404,-3.0404,-3.0404,-3.0404,-3.0404,-3.0404,-3.0404,-3.0404,-3.0404,-3.0404,-3.0404,-3.0404,-3.0404,-3.0404,-3.041,-3.0436,-3.0457,-3.054,-3.0606,-3.0673,-3.0723,-3.0664,-3.0234,-2.9394,-2.8086,-2.6758,-2.6016,-2.5703,-2.5703,-2.5703,-2.5703,-2.5703,-2.5703,-2.5703,-2.5703,-2.5703,-4.0496,-4.0496,-4.0496,-4.0496,-4.0419,-3.965,-3.8777,-3.793,-3.7038,-3.6212,-3.5558,-3.55,-3.55,-3.55,-3.55,-3.55,-3.55,-3.55,-3.55,-3.55,-3.55,-3.55,-3.55,-3.5493,-3.5486,-3.5446,-3.5493,-3.5486,-3.5453,-3.5342,-3.5173,-3.4977,-3.4435,-3.383,-3.3168,-3.2604,-3.2177,-3.1508,-3.1071,-3.0629,-3.0577,-3.0519,-3.0481,-3.0404,-3.0404,-3.0404,-3.0404,-3.0404,-3.0404,-3.0404,-3.0404,-3.0385,-3.0115,-3.0077,-2.9929,-2.9846,-2.9808,-2.9788,-2.9635,-2.8929,-2.8511,-2.9011,-2.9563,-2.9923,-3.0038,-3.0212,-3.0365,-3.0365,-3.0404,-3.0404,-3.0404,-3.0404,-3.0404,-3.0404,-3.0404,-3.0404,-3.0404,-3.0404,-3.0404,-3.0404,-3.0404,-3.0404,-3.0404,-3.0404,-3.0404,-3.0404,-3.0404,-3.0404,-3.0404,-3.0404,-3.0404,-3.0404,-3.0404,-3.0396,-3.0419,-3.0482,-3.057,-3.0655,-3.0728,-3.0801,-3.0859,-3.0293,-2.9863,-2.8828,-2.7598,-2.6602,-2.5762,-2.5937,-2.5977,-2.5781,-2.5703,-2.5703,-2.5703,-2.5703,-2.5703,-4.0496,-4.0496,-4.0496,-4.0496,-4.04,-3.9073,-3.8315,-3.7796,-3.6565,-3.5808,-3.55,-3.55,-3.55,-3.55,-3.55,-3.55,-3.55,-3.55,-3.55,-3.55,-3.55,-3.55,-3.55,-3.55,-3.55,-3.55,-3.55,-3.55,-3.5493,-3.55,-3.5453,-3.5252,-3.503,-3.4534,-3.3988,-3.3336,-3.2788,-3.2526,-3.2064,-3.175,-3.1231,-3.1154,-3.0962,-3.0423,-3.0404,-3.0404,-3.0404,-3.0404,-3.0404,-3.0404,-3.0404,-3.0404,-3.0404,-3.0404,-3.0404,-3.0404,-3.0404,-3.0404,-3.0404,-2.975,-2.966,-2.9775,-3.0192,-3.0404,-3.0404,-3.0404,-3.0404,-3.0404,-3.0404,-3.0404,-3.0404,-3.0404,-3.0404,-3.0404,-3.0404,-3.0404,-3.0404,-3.0404,-3.0404,-3.0404,-3.0404,-3.0404,-3.0404,-3.0404,-3.0404,-3.0404,-3.0404,-3.0404,-3.0404,-3.0404,-3.0404,-3.0404,-3.0404,-3.0408,-3.0417,-3.0503,-3.06,-3.0681,-3.0762,-3.084,-3.0918,-3.0859,-3.0312,-2.9355,-2.8418,-2.7383,-2.668,-2.6465,-2.6211,-2.5859,-2.5723,-2.5703,-2.5703,-2.5703,-2.5703,-4.0496,-4.0477,-4.0246,-4.0285,-4.0265,-3.87,-3.8007,-3.77,-3.6238,-3.55,-3.55,-3.55,-3.55,-3.55,-3.55,-3.55,-3.55,-3.55,-3.55,-3.55,-3.55,-3.55,-3.55,-3.55,-3.55,-3.55,-3.55,-3.55,-3.55,-3.55,-3.5474,-3.5467,-3.5462,-3.5051,-3.4589,-3.3757,-3.3295,-3.3256,-3.2929,-3.2718,-3.2083,-3.1756,-3.1525,-3.0808,-3.0596,-3.0404,-3.0404,-3.0404,-3.0404,-3.0404,-3.0404,-3.0404,-3.0404,-3.0404,-3.0404,-3.0404,-3.0404,-3.0404,-3.0404,-3.0404,-3.0404,-3.0308,-3.0327,-3.0404,-3.0404,-3.0404,-3.0404,-3.0404,-3.0404,-3.0404,-3.0404,-3.0404,-3.0404,-3.0404,-3.0404,-3.0404,-3.0404,-3.0404,-3.0404,-3.0404,-3.0404,-3.0404,-3.0404,-3.0404,-3.0404,-3.0404,-3.0404,-3.0404,-3.0404,-3.0404,-3.0404,-3.0404,-3.0404,-3.0419,-3.0425,-3.0536,-3.0614,-3.0695,-3.0762,-3.0859,-3.0918,-3.0918,-3.0605,-2.9609,-2.873,-2.8008,-2.7422,-2.6894,-2.6367,-2.584,-2.5762,-2.5703,-2.5703,-2.5703,-2.5703,-4.0419,-4.04,-3.9631,-3.9746,-4.0112,-3.8681,-3.793,-3.7661,-3.6212,-3.55,-3.55,-3.55,-3.55,-3.55,-3.55,-3.55,-3.55,-3.55,-3.55,-3.55,-3.55,-3.55,-3.55,-3.55,-3.55,-3.55,-3.55,-3.55,-3.55,-3.55,-3.55,-3.55,-3.5481,-3.5442,-3.5346,-3.4603,-3.4186,-3.4071,-3.341,-3.316,-3.2814,-3.2352,-3.2025,-3.1583,-3.0981,-3.0673,-3.0673,-3.0462,-3.0423,-3.0404,-3.0404,-3.0404,-3.0404,-3.0404,-3.0404,-3.0404,-3.0404,-3.0404,-3.0404,-3.0404,-3.0404,-3.0404,-3.0404,-3.0404,-3.0404,-3.0404,-3.0404,-3.0404,-3.0404,-3.0404,-3.0404,-3.0404,-3.0404,-3.0404,-3.0404,-3.0404,-3.0404,-3.0404,-3.0404,-3.0404,-3.0404,-3.0404,-3.0404,-3.0404,-3.0404,-3.0404,-3.0404,-3.0404,-3.0404,-3.0404,-3.0404,-3.0404,-3.041,-3.0419,-3.0462,-3.0545,-3.0625,-3.0703,-3.0781,-3.0879,-3.0918,-3.0918,-3.043,-2.9726,-2.9512,-2.9199,-2.8184,-2.7187,-2.6543,-2.5957,-2.5762,-2.5703,-2.5703,-2.5703,-2.5703,-3.8861,-3.8815,-3.8546,-3.8604,-3.8681,-3.7642,-3.7142,-3.6949,-3.6038,-3.55,-3.55,-3.55,-3.55,-3.55,-3.55,-3.55,-3.55,-3.55,-3.55,-3.55,-3.55,-3.55,-3.55,-3.55,-3.55,-3.55,-3.55,-3.55,-3.55,-3.55,-3.55,-3.55,-3.55,-3.55,-3.5442,-3.5122,-3.5064,-3.5045,-3.4718,-3.4391,-3.3814,-3.343,-3.3026,-3.2487,-3.1673,-3.1212,-3.1115,-3.075,-3.0423,-3.0404,-3.0404,-3.0404,-3.0404,-3.0404,-3.0404,-3.0404,-3.0404,-3.0404,-3.0404,-3.0404,-3.0404,-3.0404,-3.0404,-3.0404,-3.0404,-3.0404,-3.0404,-3.0404,-3.0404,-3.0404,-3.0404,-3.0404,-3.0404,-3.0404,-3.0404,-3.0404,-3.0404,-3.0404,-3.0404,-3.0404,-3.0404,-3.0404,-3.0404,-3.0404,-3.0404,-3.0404,-3.0404,-3.0404,-3.0404,-3.0404,-3.0404,-3.0404,-3.0402,-3.0441,-3.0481,-3.0554,-3.0641,-3.0716,-3.0801,-3.0898,-3.0918,-3.0918,-3.0762,-3.0312,-3.043,-3.041,-2.9023,-2.7695,-2.6699,-2.6094,-2.5879,-2.5723,-2.5703,-2.5703,-2.5703,-3.8007,-3.7969,-3.768,-3.7538,-3.7469,-3.6949,-3.6577,-3.625,-3.5731,-3.55,-3.55,-3.55,-3.55,-3.55,-3.55,-3.55,-3.55,-3.55,-3.55,-3.55,-3.55,-3.55,-3.55,-3.55,-3.55,-3.55,-3.55,-3.55,-3.55,-3.55,-3.55,-3.55,-3.55,-3.55,-3.5462,-3.5442,-3.5423,-3.5385,-3.5212,-3.5096,-3.4641,-3.4282,-3.3878,-3.3179,-3.241,-3.166,-3.1468,-3.1,-3.0404,-3.0404,-3.0404,-3.0404,-3.0404,-3.0404,-3.0404,-3.0404,-3.0404,-3.0404,-3.0404,-3.0404,-3.0404,-3.0404,-3.0404,-3.0404,-3.0404,-3.0404,-3.0404,-3.0404,-3.0404,-3.0404,-3.0404,-3.0404,-3.0404,-3.0404,-3.0404,-3.0404,-3.0404,-3.0404,-3.0404,-3.0404,-3.0404,-3.0404,-3.0404,-3.0404,-3.0404,-3.0404,-3.0404,-3.0404,-3.0404,-3.0404,-3.0404,-3.0404,-3.0411,-3.0457,-3.0507,-3.0565,-3.065,-3.0744,-3.082,-3.0918,-3.0918,-3.0918,-3.0918,-3.0918,-3.0801,-3.041,-2.9375,-2.8242,-2.7148,-2.6367,-2.5957,-2.582,-2.5723,-2.5703,-2.5703,-3.7892,-3.7796,-3.7026,-3.6673,-3.6673,-3.6577,-3.6192,-3.5538,-3.5519,-3.55,-3.55,-3.55,-3.55,-3.55,-3.55,-3.55,-3.55,-3.55,-3.55,-3.55,-3.55,-3.55,-3.55,-3.55,-3.55,-3.55,-3.55,-3.55,-3.55,-3.55,-3.55,-3.55,-3.55,-3.55,-3.55,-3.55,-3.55,-3.55,-3.5462,-3.5385,-3.5141,-3.4718,-3.4449,-3.3853,-3.3064,-3.2256,-3.1775,-3.1154,-3.0635,-3.0442,-3.0404,-3.0404,-3.0404,-3.0404,-3.0404,-3.0404,-3.0404,-3.0404,-3.0404,-3.0404,-3.0404,-3.0404,-3.0404,-3.0404,-3.0404,-3.0404,-3.0404,-3.0404,-3.0404,-3.0404,-3.0404,-3.0404,-3.0404,-3.0404,-3.0404,-3.0404,-3.0404,-3.0404,-3.0404,-3.0404,-3.0404,-3.0404,-3.0404,-3.0404,-3.0404,-3.0404,-3.0404,-3.0404,-3.0404,-3.0404,-3.0404,-3.039,-3.0433,-3.0472,-3.0529,-3.058,-3.0691,-3.0814,-3.0859,-3.0918,-3.0918,-3.0918,-3.0918,-3.0918,-3.0918,-3.041,-2.9492,-2.8516,-2.75,-2.6836,-2.6309,-2.5937,-2.584,-2.5723,-2.5703,-3.6219,-3.6173,-3.5942,-3.5846,-3.5846,-3.5846,-3.5712,-3.5519,-3.55,-3.55,-3.55,-3.55,-3.55,-3.55,-3.55,-3.55,-3.55,-3.55,-3.55,-3.55,-3.55,-3.55,-3.55,-3.55,-3.55,-3.55,-3.55,-3.55,-3.55,-3.55,-3.55,-3.55,-3.55,-3.55,-3.55,-3.55,-3.55,-3.55,-3.55,-3.55,-3.55,-3.518,-3.5026,-3.4622,-3.3891,-3.3122,-3.2468,-3.1756,-3.1179,-3.0538,-3.0442,-3.0423,-3.0404,-3.0404,-3.0404,-3.0404,-3.0404,-3.0404,-3.0404,-3.0404,-3.0404,-3.0404,-3.0404,-3.0404,-3.0404,-3.0404,-3.0404,-3.0404,-3.0404,-3.0404,-3.0404,-3.0404,-3.0404,-3.0404,-3.0404,-3.0404,-3.0404,-3.0404,-3.0404,-3.0404,-3.0404,-3.0404,-3.0404,-3.0404,-3.0404,-3.0404,-3.0404,-3.0404,-3.0404,-3.0404,-3.0419,-3.0411,-3.0437,-3.0494,-3.0568,-3.0626,-3.0738,-3.0859,-3.0898,-3.0918,-3.0918,-3.0918,-3.0918,-3.0918,-3.0918,-3.0449,-2.9707,-2.8828,-2.8144,-2.7305,-2.6738,-2.6309,-2.5937,-2.5801,-2.5703,-3.55,-3.55,-3.55,-3.55,-3.55,-3.55,-3.55,-3.55,-3.55,-3.55,-3.55,-3.55,-3.55,-3.55,-3.55,-3.55,-3.55,-3.55,-3.55,-3.55,-3.55,-3.55,-3.55,-3.55,-3.55,-3.55,-3.55,-3.55,-3.55,-3.55,-3.55,-3.55,-3.55,-3.55,-3.55,-3.55,-3.55,-3.55,-3.55,-3.55,-3.55,-3.55,-3.55,-3.5327,-3.4641,-3.3949,-3.3391,-3.2602,-3.1775,-3.1058,-3.0923,-3.0692,-3.0558,-3.0404,-3.0404,-3.0404,-3.0404,-3.0404,-3.0404,-3.0404,-3.0404,-3.0404,-3.0404,-3.0404,-3.0404,-3.0404,-3.0404,-3.0404,-3.0404,-3.0404,-3.0404,-3.0404,-3.0404,-3.0404,-3.0404,-3.0404,-3.0404,-3.0404,-3.0404,-3.0404,-3.0404,-3.0404,-3.0404,-3.0404,-3.0404,-3.0404,-3.0404,-3.0404,-3.0404,-3.0404,-3.0433,-3.0467,-3.0491,-3.0525,-3.0589,-3.0677,-3.0766,-3.0859,-3.0898,-3.0918,-3.0918,-3.0918,-3.0918,-3.0918,-3.0918,-3.0469,-3.0098,-2.9648,-2.9004,-2.8125,-2.7226,-2.6641,-2.6152,-2.5762,-2.5703,-3.55,-3.55,-3.55,-3.55,-3.55,-3.55,-3.55,-3.55,-3.55,-3.55,-3.55,-3.55,-3.55,-3.55,-3.55,-3.55,-3.55,-3.55,-3.55,-3.55,-3.55,-3.55,-3.55,-3.55,-3.55,-3.55,-3.55,-3.55,-3.55,-3.55,-3.55,-3.55,-3.55,-3.55,-3.55,-3.55,-3.55,-3.55,-3.55,-3.55,-3.55,-3.55,-3.5481,-3.5365,-3.4853,-3.4257,-3.3994,-3.3397,-3.2602,-3.2025,-3.1564,-3.1198,-3.0673,-3.0404,-3.0404,-3.0404,-3.0404,-3.0404,-3.0404,-3.0404,-3.0404,-3.0404,-3.0404,-3.0404,-3.0404,-3.0404,-3.0404,-3.0404,-3.0404,-3.0404,-3.0404,-3.0404,-3.0404,-3.0404,-3.0404,-3.0404,-3.0404,-3.0404,-3.0404,-3.0404,-3.0404,-3.0404,-3.0404,-3.0404,-3.0404,-3.0404,-3.0404,-3.0404,-3.0411,-3.0411,-3.0456,-3.0505,-3.0556,-3.0594,-3.0652,-3.0717,-3.0791,-3.0859,-3.0898,-3.0918,-3.0918,-3.0918,-3.0918,-3.0918,-3.0918,-3.0918,-3.0625,-3.0195,-2.9668,-2.8809,-2.791,-2.7051,-2.6504,-2.623,-2.584,-3.55,-3.55,-3.55,-3.55,-3.55,-3.55,-3.55,-3.55,-3.55,-3.55,-3.55,-3.55,-3.55,-3.55,-3.55,-3.55,-3.55,-3.55,-3.55,-3.55,-3.55,-3.55,-3.55,-3.55,-3.55,-3.55,-3.55,-3.55,-3.55,-3.55,-3.55,-3.55,-3.55,-3.55,-3.55,-3.55,-3.55,-3.55,-3.55,-3.55,-3.55,-3.55,-3.5462,-3.5442,-3.5122,-3.4737,-3.4449,-3.4071,-3.2987,-3.2045,-3.1775,-3.1218,-3.0481,-3.0423,-3.0404,-3.0404,-3.0404,-3.0404,-3.0404,-3.0404,-3.0404,-3.0404,-3.0404,-3.0404,-3.0404,-3.0404,-3.0404,-3.0404,-3.0402,-3.0408,-3.0402,-3.0402,-3.0414,-3.0414,-3.0408,-3.0408,-3.0408,-3.0408,-3.0408,-3.0408,-3.0402,-3.0408,-3.0414,-3.0402,-3.0404,-3.0404,-3.0404,-3.0414,-3.0452,-3.0492,-3.049,-3.0548,-3.063,-3.0675,-3.0739,-3.0781,-3.084,-3.0859,-3.0898,-3.0918,-3.0918,-3.0918,-3.0918,-3.0918,-3.0918,-3.0918,-3.0918,-3.082,-3.0195,-2.9316,-2.8828,-2.8066,-2.7695,-2.7422,-2.668,-3.55,-3.55,-3.55,-3.55,-3.55,-3.55,-3.55,-3.55,-3.55,-3.55,-3.55,-3.55,-3.55,-3.55,-3.55,-3.55,-3.55,-3.55,-3.55,-3.55,-3.55,-3.55,-3.55,-3.55,-3.55,-3.55,-3.55,-3.55,-3.55,-3.55,-3.55,-3.55,-3.55,-3.55,-3.55,-3.55,-3.55,-3.55,-3.55,-3.55,-3.55,-3.55,-3.55,-3.55,-3.5385,-3.5103,-3.5045,-3.4737,-3.4007,-3.2833,-3.2218,-3.1275,-3.0635,-3.0404,-3.0404,-3.0404,-3.0404,-3.0404,-3.0404,-3.0404,-3.0404,-3.0404,-3.0404,-3.0404,-3.0436,-3.0436,-3.041,-3.0402,-3.0485,-3.0511,-3.0467,-3.0477,-3.0498,-3.0516,-3.0496,-3.0501,-3.0501,-3.0496,-3.0496,-3.0516,-3.0516,-3.0516,-3.0501,-3.0501,-3.0494,-3.0453,-3.0452,-3.0425,-3.0496,-3.0548,-3.0554,-3.0594,-3.0693,-3.0765,-3.0814,-3.0859,-3.0879,-3.0918,-3.0918,-3.0918,-3.0918,-3.0918,-3.0918,-3.0918,-3.0918,-3.0918,-3.0918,-3.0918,-3.0469,-2.959,-2.9355,-2.9141,-2.8848,-2.8496,-2.7871,-3.55,-3.55,-3.55,-3.55,-3.55,-3.55,-3.55,-3.55,-3.55,-3.55,-3.55,-3.55,-3.55,-3.55,-3.55,-3.55,-3.55,-3.55,-3.55,-3.55,-3.55,-3.55,-3.55,-3.55,-3.55,-3.55,-3.55,-3.55,-3.55,-3.55,-3.55,-3.55,-3.55,-3.55,-3.55,-3.55,-3.55,-3.55,-3.55,-3.55,-3.55,-3.55,-3.55,-3.55,-3.55,-3.55,-3.55,-3.5346,-3.4968,-3.3853,-3.2545,-3.1564,-3.0865,-3.0558,-3.0404,-3.0404,-3.0404,-3.0404,-3.0404,-3.0404,-3.0404,-3.0404,-3.0404,-3.0417,-3.0467,-3.0525,-3.0469,-3.053,-3.0602,-3.0639,-3.0625,-3.0618,-3.0636,-3.0889,-3.0872,-3.0853,-3.0853,-3.0872,-3.0869,-3.0869,-3.085,-3.085,-3.0903,-3.0864,-3.0756,-3.0711,-3.0579,-3.0513,-3.0511,-3.0594,-3.0652,-3.0691,-3.076,-3.0836,-3.0879,-3.0898,-3.0918,-3.0918,-3.0918,-3.0918,-3.0918,-3.0918,-3.0918,-3.0918,-3.0918,-3.0918,-3.0918,-3.0918,-3.0371,-2.9922,-2.9961,-2.9902,-2.9609,-2.9277,-2.9004,-3.55,-3.55,-3.55,-3.55,-3.55,-3.55,-3.55,-3.55,-3.55,-3.55,-3.55,-3.55,-3.55,-3.55,-3.55,-3.55,-3.55,-3.55,-3.55,-3.55,-3.55,-3.55,-3.55,-3.55,-3.55,-3.55,-3.55,-3.55,-3.55,-3.55,-3.55,-3.55,-3.55,-3.55,-3.55,-3.55,-3.55,-3.55,-3.55,-3.55,-3.55,-3.55,-3.55,-3.55,-3.55,-3.55,-3.55,-3.55,-3.4968,-3.3987,-3.2737,-3.1852,-3.1212,-3.075,-3.0462,-3.0404,-3.0404,-3.0404,-3.0404,-3.0404,-3.0404,-3.0431,-3.0428,-3.0437,-3.0552,-3.0745,-3.0731,-3.0789,-3.0872,-3.0909,-3.0914,-3.092,-3.0998,-3.1646,-3.1921,-3.1863,-3.1824,-3.1899,-3.1971,-3.191,-3.183,-3.1929,-3.2073,-3.1945,-3.1682,-3.1523,-3.1137,-3.1032,-3.0636,-3.0676,-3.0842,-3.0781,-3.084,-3.0859,-3.0918,-3.0898,-3.0918,-3.0918,-3.0918,-3.0918,-3.0918,-3.0918,-3.0918,-3.0918,-3.0918,-3.0918,-3.0918,-3.0918,-3.082,-3.0508,-3.0644,-3.0605,-3.0312,-3.0098,-2.9824]},{"header":{"parameterUnit":"m.s-1","parameterCategory":1,"la1":31.0,"la2":29.5877,"lo1":-88.7671,"lo2":-86.6584,"dy":0.0162,"dx":0.0185,"nx":115,"ny":88,"refTime":"2024-06-01T06:00:00:Z","depth":0,"parameterNumber":3,"parameterNumberName":"V-component_of_WINDS"},"data":[0.0,0.0,0.0,0.0,0.0,0.0,0.0,0.0,0.0,0.0,0.0,0.0,0.0,0.0,0.0,0.0,0.0,0.0,0.0,0.0,0.0,0.0,0.0,0.0,0.0,0.0,0.0,0.0,0.0,0.0,0.0,0.0,0.0,0.0,0.0,0.0,0.0,0.0,0.0,0.0,0.0,0.0,0.0,0.0,0.0,0.0,0.0,0.0,0.0,0.0,0.0,0.0,0.0,0.0,0.0,0.0,0.0,0.0,0.0,0.0,0.0,0.0,0.0,0.0,0.0,0.0,0.0,0.0,0.0,0.0,0.0,0.0,0.0,0.0,0.0,0.0,0.0,0.0,0.0,0.0,0.0,0.0,0.0,0.0,0.0,0.0,0.0,0.0,0.0,0.0,0.0,0.0,0.0,0.0,0.0,0.0,0.0,0.0,0.0,0.0,0.0,0.0,0.0,0.0,0.0,0.0,0.0,0.0,0.0,0.0,0.0,0.0,0.0,0.0,0.0,0.0,0.0,0.0,0.0,0.0,0.0,0.0,0.0,0.0,0.0,0.0,0.0,0.0,0.0,0.0,0.0,0.0,0.0,0.0,0.0,0.0,0.0,0.0,0.0,0.0,0.0,0.0,0.0,0.0,0.0,0.0,0.0,0.0,0.0,0.0,0.0,0.0,0.0,0.0,0.0,0.0,0.0,0.0,0.0,0.0,0.0,0.0,0.0,0.0,0.0,0.0,0.0,0.0,0.0,0.0,0.0,0.0,0.0,0.0,0.0,0.0,0.0,0.0,0.0,0.0,0.0,0.0,0.0,0.0,0.0,0.0,0.0,0.0,0.0,0.0,0.0,0.0,0.0,0.0,0.0,0.0,0.0,0.0,0.0,0.0,0.0,0.0,0.0,0.0,0.0,0.0,0.0,0.0,0.0,0.0,0.0,0.0,0.0,0.0,0.0,0.0,0.0,0.0,0.0,0.0,0.0,0.0,0.0,0.0,0.0,0.0,0.0,0.0,0.0,0.0,0.0,0.0,0.0,0.0,0.0,0.0,0.0,0.0,0.0,0.0,0.0,0.0,0.0,0.0,0.0,0.0,0.0,0.0,0.0,0.0,0.0,0.0,0.0,0.0,0.0,0.0,0.0,0.0,0.0,0.0,0.0,0.0,0.0,0.0,0.0,0.0,0.0,0.0,0.0,0.0,0.0,0.0,0.0,0.0,0.0,0.0,0.0,0.0,0.0,0.0,0.0,0.0,0.0,0.0,0.0,0.0,0.0,0.0,0.0,0.0,0.0,0.0,0.0,0.0,0.0,0.0,0.0,0.0,0.0,0.0,0.0,0.0,0.0,0.0,0.0,0.0,0.0,0.0,0.0,0.0,0.0,0.0,0.0,0.0,0.0,0.0,0.0,0.0,0.0,0.0,0.0,0.0,0.0,0.0,0.0,0.0,0.0,0.0,0.0,0.0,0.0,0.0,0.0,0.0,0.0,0.0,0.0,0.0,0.0,0.0,0.0,0.0,0.0,0.0,0.0,0.0,0.0,0.0,0.0,0.0,0.0,0.0,0.0,0.0,0.0,0.0,0.0,0.0,0.0,0.0,0.0,0.0,0.0,0.0,0.0,0.0,0.0,0.0,0.0,0.0,0.0,0.0,0.0,0.0,0.0,0.0,0.0,0.0,0.0,0.0,0.0,0.0,0.0,0.0,0.0,0.0,0.0,0.0,0.0,0.0,0.0,0.0,0.0,0.0,0.0,0.0,0.0,0.0,0.0,0.0,0.0,0.0,0.0,0.0,0.0,0.0,0.0,0.0,0.0,0.0,0.0,0.0,0.0,0.0,0.0,0.0,0.0,0.0,0.0,0.0,0.0,0.0,0.0,0.0,0.0,0.0,0.0,0.0,0.0,0.0,0.0,0.0,0.0,0.0,0.0,0.0,0.0,0.0,0.0,0.0,0.0,0.0,0.0,0.0,0.0,0.0,0.0,0.0,0.0,0.0,0.0,0.0,0.0,0.0,0.0,0.0,0.0,0.0,0.0,0.0,0.0,0.0,0.0,0.0,0.0,0.0,0.0,0.0,0.0,0.0,0.0,0.0,0.0,0.0,0.0,0.0,0.0,0.0,0.0,0.0,0.0,0.0,0.0,0.0,0.0,0.0,0.0,0.0,0.0,0.0,0.0,0.0,0.0,0.0,0.0,0.0,0.0,0.0,0.0,0.0,0.0,0.0,0.0,0.0,0.0,0.0,0.0,0.0,0.0,0.0,0.0,0.0,0.0,0.0,0.0,0.0,0.0,0.0,0.0,0.0,0.0,0.0,0.0,0.0,0.0,0.0,0.0,0.0,0.0,0.0,0.0,0.0,0.0,0.0,0.0,0.0,0.0,0.0,0.0,0.0,0.0,0.0,0.0,0.0,0.0,0.0,0.0,0.0,0.0,0.0,0.0,0.0,0.0,0.0,0.0,0.0,0.0,0.0,0.0,0.0,0.0,0.0,0.0,0.0,0.0,0.0,0.0,0.0,0.0,0.0,0.0,0.0,0.0,0.0,0.0,0.0,0.0,0.0,0.0,0.0,0.0,0.0,0.0,0.0,0.0,0.0,0.0,0.0,0.0,0.0,0.0,0.0,0.0,0.0,0.0,0.0,0.0,0.0,0.0,0.0,0.0,0.0,0.0,0.0,0.0,0.0,0.0,0.0,0.0,0.0,0.0,0.0,0.0,0.0,0.0,0.0,0.0,0.0,0.0,0.0,0.0,0.0,0.0,0.0,0.0,0.0,0.0,0.0,0.0,0.0,0.0,0.0,0.0,0.0,0.0,0.0,0.0,0.0,0.0,0.0,0.0,0.0,0.0,0.0,0.0,0.0,0.0,0.0,0.0,0.0,0.0,0.0,0.0,0.0,0.0,0.0,0.0,0.0,0.0,0.0,0.0,0.0,0.0,0.0,0.0,0.0,0.0,0.0,0.0,0.0,0.0,0.0,0.0,0.0,0.0,0.0,0.0,0.0,0.0,0.0,0.0,0.0,0.0,0.0,0.0,0.0,0.0,0.0,0.0,0.0,0.0,0.0,0.0,0.0,0.0,0.0,0.0,0.0,0.0,0.0,0.0,0.0,0.0,0.0,0.0,0.0,0.0,0.0,0.0,0.0,0.0,0.0,0.0,0.0,0.0,0.0,0.0,0.0,0.0,0.0,0.0,0.0,0.0,0.0,0.0,0.0,0.0,0.0,0.0,0.0,0.0,0.0,0.0,0.0,0.0,0.0,0.0,0.0,0.0,0.0,0.0,0.0,0.0,0.0,0.0,0.0,0.0,0.0,0.0,0.0,0.0,0.0,0.0,0.0,0.0,0.0,0.0,0.0,0.0,0.0,0.0,0.0,0.0,0.0,0.0,0.0,0.0,0.0,0.0,0.0,0.0,0.0,0.0,0.0,0.0,0.0,0.0,0.0,0.0,0.0,0.0,0.0,0.0,0.0,0.0,0.0,0.0,0.0,0.0,0.0,0.0,0.0,0.0,0.0,0.0,0.0,0.0,0.0,0.0,0.0,0.0,0.0,0.0,0.0,0.0,0.0,0.0,0.0,0.0,0.0,0.0,0.0,0.0,0.0,0.0,0.0,0.0,0.0,0.0,0.0,0.0,0.0,0.0,0.0,0.0,0.0,0.0,0.0,0.0,0.0,0.0,0.0,0.0,0.0,0.0,0.0,0.0,0.0,0.0,0.0,0.0,0.0,0.0,0.0,0.0,0.0,0.0,0.0,0.0,0.0,0.0,0.0,0.0,0.0,0.0,0.0,0.0,0.0,0.0,0.0,0.0,0.0,0.0,0.0,0.0,0.0,0.0,0.0,0.0,0.0,0.0,0.0,0.0,0.0,0.0,0.0,0.0,0.0,0.0,0.0,0.0,0.0,0.0,0.0,0.0,0.0,0.0,0.0,0.0,0.0,0.0,0.0,0.0,0.0,0.0,0.0,0.0,0.0,0.0,0.0,0.0,0.0,0.0,0.0,0.0,0.0,0.0,0.0,0.0,0.0,0.0,0.0,0.0,0.0,0.0,0.0,0.0,0.0,0.0,0.0,0.0,0.0,0.0,0.0,0.0,0.0,0.0,0.0,0.0,0.0,0.0,0.0,0.0,0.0,0.0,0.0,0.0,0.0,0.0,0.0,0.0,0.0,0.0,0.0,0.0,0.0,0.0,0.0,0.0,0.0,0.0,0.0,0.0,0.0,0.0,0.0,0.0,0.0,0.0,0.0,0.0,0.0,0.0,0.0,0.0,0.0,0.2342,0.0,0.0,0.0,0.0,0.0,0.0,0.0,0.0,0.0,0.0,0.0,0.0,0.0,0.0,0.0,0.0,0.0,0.0,0.0,0.0,0.0,0.0,0.0,0.0,0.0,0.0,0.0,0.0,0.0,0.0,0.0,0.0,0.0,0.0,0.0,0.0,0.0,0.0,0.0,0.0,0.0,0.0,0.0,0.0,0.0,0.0,0.0,0.0,0.0,0.0,0.0,0.0,0.0,0.0,0.0,0.0,0.0,0.0,0.0,0.0,0.0,0.0,0.0,0.0,0.0,0.0,0.0,0.0,0.0,0.0,0.0,0.0,0.0,0.0,0.0,0.0,0.0,0.0,0.0,0.0,0.0,0.0,0.0,0.0,0.0,0.0,0.0,0.0,0.0,0.0,0.0,0.0,0.0,0.0,0.0,0.0,0.0,0.0,0.0,0.0,0.0,0.0,0.0,0.0,0.0,0.0,0.0,0.0,0.0,0.0,0.2139,0.2033,0.2448,0.2632,0.2491,0.0,0.0,0.0,0.0,0.0,0.0,0.0,0.0,0.0,0.0,0.0,0.0,0.0,0.0,0.0,0.0,0.0,0.0,0.0,0.0,0.0,0.0,0.0,0.0,0.0,0.0,0.0,0.0,0.0,0.0,0.0,0.0,0.0,0.0,0.0,0.0,0.0,0.0,0.0,0.0,0.0,0.0,0.0,0.0,0.0,0.0,0.0,0.0,0.0,0.0,0.0,0.0,0.0,0.0,0.0,0.0,0.0,0.0,0.0,0.0,0.0,0.0,0.0,0.0,0.0,0.0,0.0,0.0,0.0,0.0,0.0,0.0,0.0,0.0,0.0,0.0,0.0,0.0,0.0,0.0,0.0,0.0,0.0,0.0,0.0,0.0,0.0,0.0,0.0,0.0,0.0,0.0,0.0,0.0,0.0,0.0,0.0,0.0,0.0,0.0,0.0,0.0,0.0,0.0,0.0,0.0,0.0,0.0,0.0,0.0,0.0,0.0,0.2373,0.2524,0.26,0.0,0.0,0.0,0.0,0.0,0.0,0.0,0.0,0.0,0.0,0.0,0.0,0.0,0.0,0.0,0.0,0.0,0.0,0.0,0.0,0.0,0.0,0.0,0.0,0.0,0.0,0.0,0.0,0.0,0.0,0.0,0.0,0.0,0.0,0.0,0.0,0.0,0.0,0.0,0.0,0.0,0.0,0.0,0.0,0.0,0.0,0.0,0.0,0.0,0.0,0.0,0.0,0.0,0.0,0.0,0.0,0.0,0.0,0.0,0.0,0.0,0.0,0.0,0.0,0.0,0.0,0.0,0.0,0.0,0.0,0.0,0.0,0.0,0.0,0.0,0.0,0.0,0.0,0.0,0.0,0.0,0.0,0.0,0.0,0.0,0.0,0.0,0.0,0.0,0.0,0.0,0.0,0.0,0.0,0.0,0.0,0.0,0.0,0.0,0.0,0.0,0.0,0.0,0.0,0.0,0.0,0.0,0.0,0.0,0.0,0.1894,0.2017,0.1935,0.0,0.223,0.0,0.0,0.0,0.0,0.0,0.0,0.0,0.0,0.0,0.0,0.0,0.0,0.0,0.0,0.0,0.0,0.0,0.0,0.0,0.0,0.0,0.0,0.0,0.0,0.0,0.0,0.0,0.0,0.0,0.0,0.0,0.0,0.0,0.0,0.0,0.0,0.0,0.0,0.0,0.0,0.0,0.0,0.0,0.0,0.0,0.0,0.0,0.0,0.0,0.0,0.0,0.0,0.0,0.0,0.0,0.0,0.0,0.0,0.0,0.0,0.0,0.0,0.0,0.0,0.0,0.0,0.0,0.0,0.0,0.0,0.0,0.0,0.0,0.0,0.0,0.0,0.0,0.0,0.0,0.0,0.0,0.0,0.0,0.0,0.0,0.0,0.0,0.0,0.0,0.0,0.0,0.0,0.0,0.0,0.0,0.0,0.0,0.0,0.0,0.0,0.0,0.0,0.0,0.0,0.0,0.0,0.0,0.0,0.0,0.0,0.1833,0.1872,0.1837,0.1861,0.0,0.0,0.0,0.0,0.0,0.0,0.0,0.0,0.0,0.0,0.0,0.0,0.0,0.0,0.0,0.0,0.0,0.0,0.0,0.0,0.0,0.0,0.0,0.0,0.0,0.0,0.0,0.0,0.0,0.0,0.0,0.0,0.0,0.0,0.0,0.0,0.0,0.0,0.0,0.0,0.0,0.0,0.0,0.0,0.0,0.0,0.0,0.0,0.0,0.0,0.0,0.0,0.0,0.0,0.0,0.0,0.0,0.0,0.0,0.0,0.0,0.0,0.0,0.0,0.0,0.0,0.0,0.0,0.0,0.0,0.0,0.0,0.0,0.0,0.0,0.0,0.0,0.0,0.0,0.0,0.0,0.0,0.0,0.0,0.0,0.0,0.0,0.0,0.0,0.0,0.0,0.0,0.0,0.0,0.0,0.0,0.0,0.0,0.0,0.0,0.0,0.0,0.0,0.0,0.0,0.0,0.0,0.0,0.0,0.0,0.1558,0.1703,0.1803,0.1803,0.1775,0.1737,0.0,0.0,0.0,0.0,0.0,0.0,0.0,0.0,0.0,0.0,0.0,0.0,0.0,0.0,0.0,0.0,0.0,0.0,0.0,0.0,0.0,0.0,0.0,0.0,0.0,0.0,0.0,0.0,0.0,0.0,0.0,0.0,0.0,0.0,0.0,0.0,0.0,0.0,0.0,0.0,0.0,0.0,0.0,0.0,0.0,0.0,0.0,0.0,0.0,0.0,0.0,0.0,0.0,0.0,0.0,0.0,0.0,0.0,0.0,0.0,0.0,0.0,0.0,0.0,0.0,0.0,0.0,0.0,0.0,0.0,0.0,0.0,0.0,0.0,0.0,0.0,0.0,0.0,0.0,0.0,0.0,0.0,0.0,0.0,0.0,0.0,0.0,0.0,0.0,0.0,0.0,0.0,0.0,0.0,0.0,0.0,0.0,0.0,0.0,0.0,0.0,0.0,0.0,0.0,0.0,0.0,0.0,0.0,0.0,0.1418,0.1474,0.1781,0.1803,0.1737,0.0,0.0,0.0,0.0,0.0,0.0,0.0,0.0,0.0,0.0,0.0,0.0,0.0,0.0,0.0,0.0,0.0,0.0,0.0,0.0,0.0,0.0,0.0,0.0,0.0,0.0,0.0,0.0,0.0,0.0,0.0,0.0,0.0,0.0,0.0,0.0,0.0,0.0,0.0,0.0,0.0,0.0,0.0,0.0,0.0,0.0,0.0,0.0,0.0,0.0,0.0,0.0,0.0,0.0,0.0,0.0,0.0,0.0,0.0,0.0,0.0,0.0,0.0,0.0,0.0,0.0,0.0,0.0,0.0,0.0,0.0,0.0,0.0,0.0,0.0,0.0,0.0,0.0,0.0,0.0,0.0,0.0,0.0,0.0,0.0,0.0,0.0,0.0,0.0,0.0,0.0,0.0,0.0,0.0,0.0,0.0,0.0,0.0,0.0,0.0,0.0,0.0,0.0,0.0,0.0,0.0,0.0,0.0,0.0,0.0832,0.1145,0.1341,0.1474,0.1681,0.1745,0.0,0.0,0.0,0.0,0.0,0.0,0.0,0.0,0.0,0.0,0.0,0.0,0.0,0.0,0.0,0.0,0.0,0.0,0.0,0.0,0.0,0.0,0.0,0.0,0.0,0.0,0.0,0.0,0.0,0.0,0.0,0.0,0.0,0.0,0.0,0.0,0.0,0.0,0.0,0.0,0.0,0.0,0.0,0.0,0.0,0.0,0.0,0.0,0.0,0.0,0.0,0.0,0.0,0.0,0.0,0.0,0.0,0.0,0.0,0.0,0.0,0.0,0.0,0.0,0.0,0.0,0.0,0.0,0.0,0.0,0.0,0.0,0.0,0.0,0.0,0.0,0.0,0.0,0.0,0.0,0.0,0.0,0.0,0.0,0.0,0.0,0.0,0.0,0.0,0.0,0.0,0.0,0.0,0.0,0.0,0.0,0.0,0.0,0.0,0.0,0.0,0.0,0.0,0.0,0.0,0.0,0.0,0.0,0.0,0.04,0.0,0.1263,0.0,0.1491,0.1532,0.0,0.0,0.0,0.0,0.0,0.0,0.0,0.0,0.0,0.0,0.0,0.0,0.0,0.0,0.0,0.0,0.0,0.0,0.0,0.0,0.0,0.0,0.0,0.0,0.0,0.0,0.0,0.0,0.0,0.0,0.0,0.0,0.0,0.0,0.0,0.0,0.0,0.0,0.0,0.0,0.0,0.0,0.0,0.0,0.0,0.0,0.0,0.0,0.0,0.0,0.0,0.0,0.0,0.0,0.0,0.0,0.0,0.0,0.0,0.0,0.0,0.0,0.0,0.0,0.0,0.0,0.0,0.0,0.0,0.0,0.0,0.0,0.0,0.0,0.0,0.0,0.0,0.0,0.0,0.0,0.0,0.0,0.0,0.0,0.0,0.0,0.0,0.0,0.0,0.0,0.0,0.0,0.0,0.0,0.0,0.0,0.0,0.0,0.0,0.0,0.0,0.0,0.0,0.0,0.0,0.0,0.0,0.0,-0.048,0.0356,0.0703,0.1154,0.1729,0.1205,0.1127,0.0,0.0,0.0,0.0,0.0,0.0,0.0,0.0,0.0,0.0,0.0,0.0,0.0,0.0,0.0,0.0,0.0,0.0,0.0,0.0,0.0,0.0,0.0,0.0,0.0,0.0,0.0,0.0,0.0,0.0,0.0,0.0,0.0,0.0,0.0,0.0,0.0,0.0,0.0,0.0,0.0,0.0,0.0,0.0,0.0,0.0,0.0,0.0,0.0,0.0,0.0,0.0,0.0,0.0,0.0,0.0,0.0,0.0,0.0,0.0,0.0,0.0,0.0,0.0,0.0,0.0,0.0,0.0,0.0,0.0,0.0,0.0,0.0,0.0,0.0,0.0,0.0,0.0,0.0,0.0,0.0,0.0,0.0,0.0,0.0,0.0,0.0,0.0,0.0,0.0,0.0,0.0,0.0,0.0,0.0,0.0,0.0,0.0,0.0,0.0,0.0,0.0,0.0,0.0,0.0,0.0,0.0,0.0,0.0,-0.0156,0.0318,0.0641,0.0834,0.0885,0.0915,0.0,0.0,0.0,0.0,0.0,0.0,0.0,0.0,0.0,0.0,0.0,0.0,0.0,0.0,0.0,0.0,0.0,0.0,0.0,0.0,0.0,0.0,0.0,0.0,0.0,0.0,0.0,0.0,0.0,0.0,0.0,0.0,0.0,0.0,0.0,0.0,0.0,0.0,0.0,0.0,0.0,0.0,0.0,0.0,0.0,0.0,0.0,0.0,0.0,0.0,0.0,0.0,0.0,0.0,0.0,0.0,0.0,0.0,0.0,0.0,0.0,0.0,0.0,0.0,0.0,0.0,0.0,0.0,0.0,0.0,0.0,0.0,0.0,0.0,0.0,0.0,0.0,0.0,0.0,0.0,0.0,0.0,0.0,0.0,0.0,0.0,0.0,0.0,0.0,0.0,0.0,0.0,0.0,0.0,0.0,0.0,0.0,0.0,0.0,0.0,0.0,0.0,0.0,0.0,0.0,0.0,0.0,0.0,0.0,-0.0403,0.0013,0.0375,0.0578,0.0577,0.0634,0.0758,0.0,0.0,0.0,0.0,0.0,0.0,0.0,0.0,0.0,0.0,0.0,0.0,0.0,0.0,0.0,0.0,0.0,0.0,0.0,0.0,0.0,0.0,0.0,0.0,0.0,0.0,0.0,0.0,0.0,0.0,0.0,0.0,0.0,0.0,0.0,0.0,0.0,0.0,0.0,0.0,0.0,0.0,0.0,0.0,0.0,0.0,0.0,0.0,0.0,0.0,0.0,0.0,0.0,0.0,0.0,0.0,0.0,0.0,0.0,0.0,0.0,0.0,0.0,0.0,0.0,0.0,0.0,0.0,0.0,0.0,0.0,0.0,0.0,0.0,0.0,0.0,0.0,0.0,0.0,0.0,0.0,0.0,0.0,0.0,0.0,0.0,0.0,0.0,0.0,0.0,0.0,0.0,0.0,0.0,0.0,0.0,0.0,0.0,0.0,0.0,0.0,0.0,0.0,0.0,0.0,0.0,0.0,0.0,-0.0477,-0.02,0.0236,0.0811,0.0294,0.027,0.0,0.0,0.0,0.0,0.0,0.0,0.0,0.0,0.0,0.0,0.0,0.0,0.0,0.0,0.0,0.0,0.0,0.0,0.0,0.0,0.0,0.0,0.0,0.0,0.0,0.0,0.0,0.0,0.0,0.0,0.0,0.0,0.0,0.0,0.0,0.0,0.0,0.0,0.0,0.0,0.0,0.0,0.0,0.0,0.0,0.0,0.0,0.0,0.0,0.0,0.0,0.0,0.0,0.0,0.0,0.0,0.0,0.0,0.0,0.0,0.0,0.0,0.0,0.0,0.0,0.0,0.0,0.0,0.0,0.0,0.0,0.0,0.0,0.0,0.0,0.0,0.0,0.0,0.0,0.0,0.0,0.0,0.0,0.0,0.0,0.0,0.0,0.0,0.0,0.0,0.0,0.0,0.0,0.0,0.0,0.0,0.0,0.0,0.0,0.0,0.0,0.0,0.0,0.0,0.0,0.0,0.0,0.0,0.0,-0.1415,-0.0936,-0.0364,0.0204,0.0072,0.0068,0.0,0.0,0.0,0.0,0.0,0.0,0.0,0.0,0.0,0.0,0.0,0.0,0.0,0.0,0.0,0.0,0.0,0.0,0.0,0.0,0.0,0.0,0.0,0.0,0.0,0.0,0.0,0.0,0.0,0.0,0.0,0.0,0.0,0.0,0.0,0.0,0.0,0.0,0.0,0.0,0.0,0.0,0.0,0.0,0.0,0.0,0.0,0.0,0.0,0.0,0.0,0.0,0.0,0.0,0.0,0.0,0.0,0.0,0.0,0.0,0.0,0.0,0.0,0.0,0.0,0.0,0.0,0.0,0.0,0.0,0.0,0.0,0.0,0.0,0.0,0.0,0.0,0.0,0.0,0.0,0.0,0.0,0.0,0.0,0.0,0.0,0.0,0.0,0.0,0.0,0.0,0.0,0.0,0.0,0.0,0.0,0.0,0.0,0.0,0.0,0.0,0.0,0.0,0.0,0.0,0.0,0.0,0.0,-0.1764,-0.1704,-0.1435,-0.1,-0.039,-0.0117,0.0,0.0,0.0,0.0,0.0,0.0,0.0,0.0,0.0,0.0,0.0,0.0,0.0,0.0,0.0,0.0,0.0,0.0,0.0,0.0,0.0,0.0,0.0,0.0,0.0,0.0,0.0,0.0,0.0,0.0,0.0,0.0,0.0,0.0,0.0,0.0,0.0,0.0,0.0,0.0,0.0,0.0,0.0,0.0,0.0,0.0,0.0,0.0,0.0,0.0,0.0,0.0,0.0,0.0,0.0,0.0,0.0,0.0,0.0,0.0,0.0,0.0,0.0,0.0,0.0,0.0,0.0,0.0,0.0,0.0,0.0,0.0,0.0,0.0,0.0,0.0,0.0,0.0,0.0,0.0,0.0,0.0,0.0,0.0,0.0,0.0,0.0,0.0,0.0,0.0,0.0,0.0,0.0,0.0,0.0,0.0,0.0,0.0,0.0,0.0,0.0,0.0,0.0,0.0,0.0,0.0,0.0,0.0,0.0,-0.1866,-0.1754,-0.1847,-0.1638,-0.1108,-0.0441,-0.0066,0.0,0.0,0.0,0.0,0.0,0.0,0.0,0.0,0.0,0.0,0.0,0.0,0.0,0.0,0.0,0.0,0.0,0.0,0.0,0.0,0.0,0.0,0.0,0.0,0.0,0.0,0.0,0.0,0.0,0.0,0.0,0.0,0.0,0.0,0.0,0.0,0.0,0.0,0.0,0.0,0.0,0.0,0.0,0.0,0.0,0.0,0.0,0.0,0.0,0.0,0.0,0.0,0.0,0.0,0.0,0.0,0.0,0.0,0.0,0.0,0.0,0.0,0.0,0.0,0.0,0.0,0.0,0.0,0.0,0.0,0.0,0.0,0.0,0.0,0.0,0.0,0.0,0.0,0.0,0.0,0.0,0.0,0.0,0.0,0.0,0.0,0.0,0.0,0.0,0.0,0.0,0.0,0.0,0.0,0.0,0.0,0.0,0.0,0.0,0.0,0.0,0.0,0.0,0.0,0.0,0.0,0.0,0.0,-0.2699,-0.2784,-0.2605,-0.2445,-0.2326,-0.1281,-0.0478,0.0,0.0,0.0,0.0,0.0,0.0,0.0,0.0,0.0,0.0,0.0,0.0,0.0,0.0,0.0,0.0,0.0,0.0,0.0,0.0,0.0,0.0,0.0,0.0,0.0,0.0,0.0,0.0,0.0,0.0,0.0,0.0,0.0,0.0,0.0,0.0,0.0,0.0,0.0,0.0,0.0,0.0,0.0,0.0,0.0,0.0,0.0,0.0,0.6602,0.0,0.0,0.0,0.0,0.0,0.0,0.0,0.0,0.0,0.0,0.0,0.0,0.0,0.0,0.0,0.0,0.0,0.0,0.0,0.0,0.0,0.0,0.0,0.0,0.0,0.0,0.0,0.0,0.0,0.0,0.0,0.0,0.0,0.0,0.0,0.0,0.0,0.0,0.0,0.0,0.0,0.0,0.0,0.0,0.0,0.0,0.0,0.0,0.0,0.0,0.0,0.0,0.0,0.0,0.0,0.0,0.0,0.0,0.0,-0.2993,-0.3165,-0.315,-0.298,-0.2671,-0.2034,-0.1275,0.0,0.0,0.0,0.0,0.0,0.0,0.0,0.0,0.0,0.0,0.0,0.0,0.0,0.0,0.0,0.0,0.0,0.0,0.0,0.0,0.0,0.0,0.0,0.0,0.0,0.0,0.0,0.0,0.0,0.0,0.0,0.0,0.0,0.0,0.0,0.0,0.0,0.0,0.0,0.0,0.0,0.0,0.0,0.0,0.0,0.0,0.0,0.0,0.0,0.0,0.0,0.0,0.0,0.0,0.0,0.0,0.0,0.0,0.0,0.0,0.0,0.0,0.0,0.0,0.0,0.0,0.0,0.0,0.0,0.0,0.0,0.0,0.0,0.0,0.0,0.0,0.0,0.0,0.0,0.0,0.0,0.0,0.0,0.0,0.0,0.0,0.0,0.0,0.0,0.0,0.0,0.0,0.0,0.0,0.0,0.0,0.0,0.0,0.0,0.0,0.0,0.0,0.0,0.0,0.0,0.0,0.0,-0.3079,-0.3078,-0.3354,-0.3514,-0.335,-0.2851,-0.2623,-0.2068,-0.1132,0.0,0.0,0.0,0.0,0.0,0.0,0.0,0.0,0.0,0.0,0.0,0.0,0.0,0.0,0.0,0.0,0.0,0.0,0.0,0.0,0.0,0.0,0.0,0.0,0.0,0.0,0.0,0.0,0.0,0.0,0.0,0.0,0.0,0.0,0.0,0.0,0.0,0.0,0.3778,0.445,0.0,0.0,0.0,0.0,0.0,0.0,0.0,0.0,0.5367,0.0,0.0,0.0,0.0,0.0,0.0,0.0,0.0,0.0,0.0,0.0,0.0,0.0,0.0,0.0,0.0,0.0,0.0,0.0,0.0,0.0,0.0,0.0,0.0,0.0,0.0,0.0,0.0,0.0,0.0,0.0,0.0,0.0,0.0,0.0,0.0,0.0,0.0,0.0,0.0,0.0,0.0,0.0,0.0,0.0,0.0,0.0,0.0,0.0,0.0,0.0,0.0,0.0,0.0,0.0,0.0,-0.3293,-0.3255,-0.3333,-0.3549,-0.359,-0.3556,-0.3435,-0.2832,-0.2342,-0.1972,0.0,0.0,0.0,0.0,0.0,0.0,0.0,0.0,0.0,0.0,0.0,0.0,0.0,0.0,0.0,0.0,0.0,0.0,0.0,0.0,0.0,0.0,0.0,0.0,0.0,0.0,0.0,0.0,0.0,0.0,0.0,0.0,0.0,0.0,0.0,0.0,0.0,0.0,0.0,0.3974,0.4093,0.0,0.0,0.0,0.0,0.0,0.0,0.0,0.0,0.4764,0.0,0.0,0.0,0.0,0.0,0.0,0.0,0.0,0.0,0.0,0.0,0.0,0.0,0.0,0.0,0.0,0.0,0.0,0.0,0.0,0.0,0.0,0.0,0.0,0.0,0.0,0.0,0.0,0.0,0.0,0.0,0.0,0.0,0.0,0.0,0.0,0.0,0.0,0.0,0.0,0.0,0.0,0.0,0.0,0.0,0.0,0.0,0.0,0.0,0.0,0.0,0.0,0.0,0.0,0.0,-0.3798,-0.3414,-0.3464,-0.3989,-0.3751,-0.36,-0.3593,-0.3013,-0.2618,0.0,0.0,0.0,0.0,0.0,0.0,0.0,0.0,0.0,0.0,0.0,0.0,0.0,0.0,0.0,0.0,0.0,0.0,0.0,0.0,0.0,0.0,0.0,0.0,0.0,0.0,0.0,0.0,0.0,0.0,0.0,0.0,0.0,0.0,0.0,0.0,0.0,0.0,0.0,0.0,0.3256,0.3479,0.3848,0.0,0.0,0.0,0.0,0.0,0.0,0.3729,0.3948,0.0,0.0,0.0,0.0,0.0,0.0,0.0,0.0,0.0,0.0,0.0,0.0,0.0,0.0,0.0,0.0,0.0,0.0,0.0,0.0,0.0,0.0,0.0,0.0,0.0,0.0,0.0,0.0,0.0,0.0,0.0,0.0,0.0,0.0,0.0,0.0,0.0,0.0,0.0,0.0,0.0,0.0,0.0,0.0,0.0,0.0,0.0,0.0,0.0,0.0,0.0,0.0,0.0,0.0,0.0,-0.4355,-0.3792,-0.3826,-0.4518,-0.4052,-0.3751,-0.3744,-0.323,-0.2866,0.0,0.0,0.0,0.0,0.0,0.0,0.0,0.0,0.0,0.0,0.0,0.0,0.0,0.0,0.0,0.0,0.0,0.0,0.0,0.0,0.0,0.0,0.0,0.0,0.0,0.0,0.0,0.0,0.0,0.0,0.0,0.0,0.0,0.0,0.0,0.0,0.0,0.0,0.0,0.0,0.0,0.2665,0.333,0.2711,0.0,0.0,0.0,0.0,0.2255,0.2942,0.0,0.0,0.0,0.0,0.0,0.0,0.0,0.0,0.0,0.0,0.0,0.0,0.0,0.0,0.0,0.0,0.0,0.0,0.0,0.0,0.0,0.0,0.0,0.0,0.0,0.0,0.0,0.0,0.0,0.0,0.0,0.0,0.0,0.0,0.0,0.0,0.0,0.0,0.0,0.0,0.0,0.0,0.0,0.0,0.0,0.0,0.0,0.0,0.0,0.0,0.0,0.0,0.0,0.0,0.0,0.0,-0.4402,-0.4609,-0.4864,-0.516,-0.4631,-0.4303,-0.4299,-0.3497,-0.2946,0.0,0.0,0.0,0.0,0.0,0.0,0.0,0.0,0.0,0.0,0.0,0.0,0.0,0.0,0.0,0.0,0.0,0.0,0.0,0.0,0.0,0.0,0.0,0.0,0.0,0.0,0.0,0.0,0.0,0.0,0.0,0.0,0.0,0.0,0.0,0.0,0.0,0.0,0.0,0.0,0.0,0.1215,0.1491,0.1459,0.1296,0.0,0.0,0.2132,0.2337,0.2625,0.0,0.0,0.0,0.0,0.0,0.0,0.0,0.0,0.0,0.0,0.0,0.0,0.0,0.0,0.0,0.0,0.0,0.0,0.0,0.0,0.0,0.0,0.0,0.0,0.0,0.0,0.0,0.0,0.0,0.0,0.0,0.0,0.0,0.0,0.0,0.0,0.0,0.0,0.0,0.0,0.0,0.0,0.0,0.0,0.0,0.0,0.0,0.0,0.0,0.0,0.0,0.0,0.0,0.0,0.0,-0.4033,-0.4381,-0.4322,-0.4431,-0.476,-0.4539,-0.4387,-0.4387,-0.3817,-0.3389,0.0,0.0,0.0,0.0,0.0,0.0,0.0,0.0,0.0,0.0,0.0,0.0,0.0,0.0,0.0,0.0,0.0,0.0,0.0,0.0,0.0,0.0,0.0,0.0,0.0,0.0,0.0,0.0,0.0,0.0,0.0,0.0,0.0,0.0,0.0,0.0,0.0,0.0,0.0,0.0,0.0,0.0,0.0947,0.0762,0.0,0.0,0.0,0.1003,0.1475,0.0,0.0,0.0,0.0,0.0,0.0,0.0,0.0,0.0,0.0,0.0,0.0,0.0,0.0,0.0,0.0,0.0,0.0,0.0,0.0,0.0,0.0,0.0,0.0,0.0,0.0,0.0,0.0,0.0,0.0,0.0,0.0,0.0,0.0,0.0,0.0,0.0,0.0,0.0,0.0,0.0,0.0,0.0,0.0,0.0,0.0,0.0,0.0,0.0,0.0,0.0,0.0,0.0,0.0,0.0,0.0,0.0,-0.4616,-0.4472,-0.46,-0.5014,-0.4778,-0.4631,-0.4617,-0.3974,0.0,0.0,0.0,0.0,0.0,0.0,0.0,0.0,0.0,0.0,0.0,0.0,0.0,0.0,0.0,0.0,0.0,0.0,0.0,0.0,0.0,0.0,0.0,0.0,0.0,0.0,0.0,-0.0429,0.0,0.0,0.0,0.0,0.0,0.0,0.0,0.0,0.0,0.0,0.0,0.0,0.0,0.0,-0.0366,0.0547,0.0031,-0.0531,0.0,0.0,-0.0017,0.0547,0.0829,0.0936,0.0,0.0,0.0,0.0,0.0,0.0,0.0,0.0,0.0,0.0,0.0,0.0,0.0,0.0,0.0,0.0,0.0,0.0,0.0,0.0,0.0,0.0,0.0,0.0,0.0,0.0,0.0,0.0,0.0,0.0,0.0,0.0,0.0,0.0,0.0,0.0,0.0,0.0,0.0,0.0,0.0,0.0,0.0,0.0,0.0,0.0,0.0,0.0,0.0,0.0,0.0,0.0,0.0,0.0,-0.4633,-0.5239,-0.5764,-0.6259,-0.6756,-0.5776,-0.5238,-0.5211,-0.3886,-0.3151,0.0,0.0,0.0,0.0,0.0,0.0,0.0,0.0,0.0,0.0,0.0,0.0,0.0,0.0,0.0,0.0,0.0,0.0,0.0,0.0,0.0,0.0,0.0,0.0,0.0,0.0,0.0,0.0,0.0,0.0,0.0,0.0,0.0,0.0,0.0,0.0,0.0,0.0,0.0,0.0,0.0,-0.1548,-0.0127,-0.0935,-0.196,0.0,-0.1723,-0.068,-0.0214,0.0361,0.0609,0.0284,0.0,0.0,0.0,0.0,0.0,0.0,0.0,0.0,0.0,0.0,0.0,0.0,0.0,0.0,0.0,0.0,0.0,0.0,0.0,0.0,0.0,0.0,0.0,0.0,0.0,0.0,0.0,0.0,0.0,0.0,0.0,0.0,0.0,0.0,0.0,0.0,0.0,0.0,0.0,0.0,0.0,0.0,0.0,0.0,0.0,0.0,0.0,0.0,0.0,0.0,0.0,0.0,0.0,-0.4673,-0.4766,-0.5517,-0.5921,-0.5952,-0.5889,-0.5852,-0.5846,-0.5037,-0.4356,0.0,0.0,0.0,0.0,0.0,0.0,0.0,0.0,0.0,0.0,0.0,0.0,0.0,0.0,0.0,0.0,0.0,0.0,0.0,0.0,0.0,0.0,0.0,0.0,0.0,0.0,0.0,0.0,-0.0958,-0.1113,-0.1531,0.0,0.0,0.0,0.0,0.0,0.0,0.0,0.0,0.0,0.0,-0.2215,-0.1933,-0.2085,0.0,0.0,-0.2534,-0.1726,-0.1256,-0.0915,-0.0748,-0.0894,-0.082,0.0,0.0,0.0,0.0,0.0,0.0,0.0,0.0,0.0,0.0,0.0,0.0,0.0,0.0,0.0,0.0,0.0,0.0,0.0,0.0,0.0,0.0,0.0,0.0,0.0,0.0,0.0,0.0,0.0,0.0,0.0,0.0,0.0,0.0,0.0,0.0,0.0,0.0,0.0,0.0,0.0,0.0,0.0,0.0,0.0,0.0,0.0,0.0,0.0,0.0,0.0,0.0,-0.4761,-0.4654,-0.5522,-0.597,-0.5962,-0.6128,-0.6241,-0.63,-0.5705,-0.5122,0.0,0.0,0.0,0.0,0.0,0.0,0.0,0.0,0.0,0.0,0.0,0.0,0.0,0.0,0.0,0.0,0.0,0.0,0.0,0.0,0.0,0.0,0.0,0.0,0.0,0.0,0.0,0.0,-0.1577,-0.1751,-0.2092,0.0,0.0,0.0,0.0,0.0,0.0,0.0,0.0,0.0,0.0,-0.2926,-0.3083,-0.3076,-0.3327,-0.4,-0.3627,-0.3036,-0.2353,-0.2163,-0.2003,-0.1756,0.0,0.0,0.0,0.0,0.0,0.0,0.0,0.0,0.0,0.0,0.0,0.0,0.0,0.0,0.0,0.0,0.0,0.0,0.0,0.0,0.0,0.0,0.0,0.0,0.0,0.0,0.0,-0.2193,0.0,0.0,-0.2632,0.0,0.0,0.0,0.0,0.0,0.0,0.0,0.0,0.0,0.0,0.0,0.0,0.0,0.0,0.0,0.0,0.0,0.0,0.0,0.0,0.0,0.0,-0.496,-0.5284,-0.6135,-0.6839,-0.7384,-0.664,-0.6345,-0.657,-0.5639,-0.5061,-0.4888,0.0,0.0,0.0,0.0,0.0,0.0,0.0,0.0,0.0,0.0,0.0,0.0,0.0,0.0,0.0,0.0,0.0,0.0,0.0,0.0,0.0,0.0,0.0,0.0,0.0,0.0,-0.2338,-0.2378,-0.2382,0.0,0.0,0.0,0.0,0.0,0.0,0.0,0.0,0.0,0.0,-0.4059,-0.3764,-0.3184,-0.3801,-0.45,-0.513,-0.5095,-0.4609,-0.3412,-0.3248,-0.2974,0.0,0.0,0.0,0.0,0.0,0.0,0.0,0.0,0.0,0.0,0.0,0.0,0.0,0.0,0.0,0.0,0.0,0.0,0.0,0.0,0.0,0.0,0.0,0.0,0.0,0.0,0.0,-0.2492,-0.2421,0.0,0.0,0.0,0.0,0.0,0.0,0.0,0.0,0.0,0.0,0.0,-0.4565,-0.4968,0.0,0.0,0.0,0.0,0.0,0.0,0.0,0.0,0.0,0.0,0.0,0.0,-0.5387,-0.5914,-0.6754,-0.739,-0.7732,-0.7295,-0.7102,-0.718,-0.6473,-0.5801,-0.517,0.0,0.0,0.0,0.0,0.0,0.0,0.0,0.0,0.0,0.0,0.0,0.0,0.0,0.0,0.0,0.0,0.0,0.0,0.0,0.0,0.0,0.0,0.0,0.0,0.0,-0.2403,0.0,0.0,0.0,0.0,0.0,0.0,0.0,0.0,0.0,0.0,0.0,-0.4633,-0.4905,-0.4465,-0.3974,-0.3489,-0.3684,-0.4206,0.0,0.0,0.0,0.0,0.0,0.0,0.0,0.0,0.0,0.0,0.0,0.0,0.0,0.0,-0.2686,-0.2267,-0.2171,-0.2214,-0.2429,0.0,0.0,0.0,0.0,0.0,0.0,0.0,0.0,0.0,0.0,0.0,0.0,0.0,0.0,-0.3607,-0.3626,-0.37,0.0,0.0,0.0,0.0,0.0,0.0,0.0,0.0,-0.5336,-0.5581,-0.575,-0.6157,-0.6193,0.0,-0.6111,-0.5442,0.0,0.0,0.0,0.0,0.0,0.0,0.0,0.0,-0.5752,-0.635,-0.7117,-0.7685,-0.8025,-0.7698,-0.7544,-0.7631,-0.6975,-0.6226,-0.5458,-0.4424,-0.3805,0.0,0.0,0.0,0.0,0.0,0.0,0.0,0.0,0.0,0.0,0.0,0.0,0.0,0.0,0.0,0.0,0.0,0.0,0.0,0.0,0.0,0.0,0.0,-0.2835,0.0,0.0,0.0,0.0,0.0,0.0,0.0,0.0,0.0,-0.5085,-0.5046,-0.51,-0.5398,-0.4922,-0.4351,-0.3686,0.0,0.0,0.0,0.0,0.0,0.0,0.0,-0.3662,-0.345,-0.3126,-0.2867,-0.2781,-0.2898,-0.3005,-0.3035,0.0,0.0,-0.2599,-0.2472,-0.25,-0.2736,-0.2588,-0.2515,-0.2717,-0.2646,-0.2505,0.0,0.0,0.0,0.0,0.0,0.0,0.0,0.0,-0.5431,-0.542,0.0,-0.5413,0.0,0.0,0.0,0.0,-0.5368,-0.5626,0.0,0.0,-0.6277,-0.6272,-0.6296,-0.6326,-0.6237,-0.6119,-0.6226,-0.6202,-0.5969,-0.557,0.0,0.0,0.0,0.0,0.0,0.0,-0.6032,-0.6633,-0.7243,-0.7812,-0.8375,-0.7863,-0.7658,-0.7846,-0.7047,-0.6313,-0.5752,-0.5411,-0.4899,-0.4072,-0.3685,0.0,0.0,0.0,0.0,0.0,0.0,0.0,0.0,0.0,0.0,0.0,0.0,0.0,0.0,0.0,0.0,0.0,0.0,0.0,0.0,-0.333,0.0,0.0,0.0,0.0,0.0,0.0,0.0,0.0,0.0,0.0,-0.5887,-0.5812,-0.5737,-0.5744,0.0,0.0,0.0,0.0,-0.3713,-0.3996,-0.4821,-0.5236,-0.473,-0.475,-0.4554,-0.3752,0.0,0.0,-0.2261,-0.2973,-0.3525,-0.3348,-0.346,-0.3508,-0.3165,-0.2995,-0.2885,-0.29,-0.2893,-0.2892,-0.2917,-0.2974,-0.3052,-0.7642,0.0,0.0,0.0,0.0,-0.643,-0.6438,-0.6789,-0.6203,-0.593,-0.5923,-0.6037,0.0,0.0,0.0,0.0,0.0,0.0,-0.7138,-0.7428,-0.7669,-0.7885,-0.8049,-0.8049,-0.8037,-0.7987,-0.7847,-0.7738,-0.7661,-0.7328,-0.6493,-0.5177,0.0,0.0,0.0,0.0,-0.6734,-0.7515,-0.7923,-0.8322,-0.8671,-0.8335,-0.7973,-0.7609,-0.6968,-0.6432,-0.6075,-0.5561,-0.5085,-0.4595,-0.4121,0.0,0.0,0.0,0.0,0.0,0.0,0.0,0.0,0.0,0.0,0.0,0.0,0.0,0.0,0.0,0.0,0.0,0.0,0.0,-0.3333,-0.3296,-0.3379,0.0,0.0,0.0,0.0,0.0,0.0,0.0,0.0,0.0,-0.664,-0.6486,-0.6421,0.0,0.0,-0.5497,-0.4908,-0.424,-0.387,-0.3971,-0.4249,0.0,-0.422,-0.4162,-0.4081,-0.3911,-0.3782,-0.3592,-0.3358,-0.3475,-0.3583,-0.3525,-0.3563,-0.357,-0.3459,-0.3236,-0.3054,-0.304,-0.304,-0.3059,-0.3044,-0.3077,-0.3118,-0.8884,-0.8039,-0.7806,-0.7903,-0.8119,-0.7688,-0.771,-0.8024,-0.7467,-0.719,-0.7097,-0.7175,-0.6978,-0.6573,-0.666,0.0,0.0,0.0,-0.8013,-0.8258,-0.8482,-0.8663,-0.8798,-0.8778,-0.8778,-0.8798,-0.8624,-0.8544,-0.8544,-0.837,-0.7599,-0.6373,0.0,0.0,-0.6413,-0.676,-0.7321,-0.8076,-0.8283,-0.8543,-0.8791,-0.841,-0.7969,-0.7527,-0.7001,-0.662,-0.6352,-0.5896,-0.5454,-0.5015,-0.4569,-0.4075,0.0,0.0,0.0,0.0,0.0,0.0,0.0,0.0,0.0,0.0,0.0,-0.2075,-0.1968,0.0,0.0,0.0,-0.2926,-0.33,-0.3674,-0.3737,0.0,0.0,0.0,0.0,0.0,0.0,0.0,-0.5277,-0.6171,-0.6867,-0.7201,-0.7174,-0.7188,-0.7333,-0.69,-0.65,-0.6354,0.0,-0.5125,-0.5042,-0.4754,-0.4532,-0.4591,-0.4321,-0.4073,-0.4078,-0.4031,-0.3971,-0.3876,-0.3802,-0.3717,-0.3741,-0.3747,-0.3713,-0.3692,-0.3466,-0.3303,-0.3303,-0.3303,-0.3303,-0.33,-0.328,-0.3324,-0.9782,-0.9742,-0.9165,-0.9072,-0.9216,-0.9244,-0.9244,-0.9231,-0.8991,-0.8878,-0.8858,-0.8623,-0.8323,-0.8032,-0.7792,0.0,-0.8059,-0.8337,-0.8584,-0.8838,-0.8818,-0.8778,-0.8778,-0.8778,-0.8778,-0.8778,-0.8778,-0.8778,-0.8778,-0.8778,-0.8505,-0.7979,-0.7715,-0.7594,-0.7531,-0.7551,-0.7846,-0.8422,-0.8435,-0.8563,-0.8791,-0.8212,-0.7796,-0.7531,-0.7173,-0.6874,-0.6579,-0.633,-0.592,-0.5342,-0.4975,-0.4442,-0.3654,0.0,0.0,0.0,0.0,0.0,0.0,0.0,0.0,0.0,0.0,0.0,0.0,0.0,0.0,0.0,-0.3638,0.0,-0.4059,-0.4509,0.0,0.0,0.0,-0.5224,-0.4967,-0.5455,-0.5711,-0.5477,0.0,0.0,-0.7609,-0.7832,-0.7979,-0.7979,-0.7802,-0.7699,-0.7885,-0.729,-0.6899,-0.6528,-0.5774,-0.5277,-0.5213,-0.4801,-0.4412,-0.425,-0.4122,-0.4041,-0.4014,-0.3947,-0.3951,-0.396,-0.3944,-0.3897,-0.3819,-0.37,-0.3634,-0.3614,-0.3575,-0.3593,-0.358,-0.3576,-0.3573,-1.0385,-1.0372,-1.0231,-0.9927,-0.9579,-0.9608,-0.9579,-0.9573,-0.9534,-0.9501,-0.9501,-0.9399,-0.9332,-0.9265,-0.9219,-0.9198,-0.9286,-0.9105,-0.9044,-0.9091,-0.8884,-0.8778,-0.8778,-0.8778,-0.8778,-0.8778,-0.8778,-0.8778,-0.8778,-0.8778,-0.8711,-0.8597,-0.8524,-0.8263,-0.7849,-0.8067,-0.8362,-0.8724,-0.8704,-0.8738,-0.8791,-0.8212,-0.7872,-0.7792,-0.7279,-0.678,-0.6324,-0.623,-0.592,-0.5327,-0.4982,-0.47,-0.4488,-0.3871,0.0,0.0,0.0,0.0,0.0,0.0,0.0,0.0,0.0,-0.2571,-0.2519,0.0,-0.2752,0.0,-0.3625,-0.4228,-0.4568,-0.4728,0.0,0.0,-0.5531,-0.5758,-0.6114,-0.6474,-0.6667,-0.662,-0.7462,-0.8063,-0.807,-0.8352,-0.8604,-0.8565,-0.8297,-0.8043,-0.7891,-0.6912,-0.6306,-0.6428,-0.554,-0.472,-0.4752,-0.4625,-0.4481,-0.4447,-0.4406,-0.4348,-0.4186,-0.4149,-0.4105,-0.4018,-0.3981,-0.3982,-0.3944,-0.3938,-0.3866,-0.3761,-0.3679,-0.36,-0.36,-0.36,-0.36,-1.0942,-1.0942,-1.0975,-1.0755,-1.0434,-1.0211,-0.9993,-0.988,-0.988,-0.9806,-0.9715,-0.9715,-0.9715,-0.9715,-0.9715,-0.9715,-0.9673,-0.9512,-0.9411,-0.9426,-0.9272,-0.9132,-0.8971,-0.8971,-0.8938,-0.8778,-0.8778,-0.8778,-0.8778,-0.8778,-0.8778,-0.8778,-0.8778,-0.8618,-0.8318,-0.8484,-0.8644,-0.8778,-0.8778,-0.8778,-0.8765,-0.8212,-0.7905,-0.7885,-0.7319,-0.6793,-0.6404,-0.6256,-0.5981,-0.5507,-0.5175,-0.494,-0.4814,-0.4343,-0.3976,0.0,0.0,0.0,0.0,0.0,0.0,0.0,0.0,0.0,0.0,0.0,-0.3372,-0.3722,-0.4289,-0.4782,-0.5159,-0.5441,-0.5752,-0.6047,-0.6339,-0.6646,-0.6947,-0.7226,-0.7433,-0.7533,-0.8036,-0.8404,-0.8445,-0.8645,-0.8778,-0.8778,-0.8617,-0.8418,-0.8288,-0.7625,-0.6875,-0.5823,-0.5523,-0.5171,-0.4625,-0.4491,-0.4491,-0.4491,-0.4491,-0.446,-0.4358,-0.4345,-0.4287,-0.4236,-0.4216,-0.4192,-0.4109,-0.4035,-0.3964,-0.388,-0.3775,-0.3659,-0.3614,-0.36,-0.36,-1.143,-1.143,-1.143,-1.143,-1.1349,-1.0914,-1.0533,-1.0227,-1.0194,-1.0033,-0.9793,-0.98,-0.9829,-0.9822,-0.98,-0.9793,-0.9822,-0.976,-0.974,-0.9769,-0.9699,-0.9546,-0.9271,-0.9271,-0.9138,-0.8925,-0.8918,-0.8898,-0.8864,-0.8858,-0.8818,-0.8811,-0.8778,-0.8778,-0.8778,-0.8778,-0.8778,-0.8778,-0.8778,-0.8778,-0.8798,-0.8245,-0.7945,-0.7885,-0.7353,-0.6907,-0.6566,-0.6338,-0.6095,-0.5714,-0.5487,-0.5217,-0.4934,-0.4839,-0.4582,0.0,-0.4072,0.0,0.0,0.0,0.0,0.0,0.0,0.0,0.0,-0.406,-0.4301,-0.4882,-0.5357,-0.5691,-0.5848,-0.6379,-0.6713,-0.6774,-0.7236,-0.758,-0.7634,-0.7822,-0.8039,-0.8252,-0.8377,-0.8556,-0.8751,-0.8778,-0.8778,-0.8778,-0.8765,-0.8738,-0.8765,-0.8606,-0.7664,-0.5277,-0.58,-0.5796,-0.4791,-0.4491,-0.4491,-0.4491,-0.4491,-0.4491,-0.4484,-0.4484,-0.4484,-0.4481,-0.4467,-0.4436,-0.4267,-0.4142,-0.4055,-0.4028,-0.3903,-0.3778,-0.3675,-0.3617,-0.36,-1.143,-1.143,-1.143,-1.143,-1.1382,-1.1303,-1.1096,-1.0815,-1.0581,-1.0479,-1.0425,-1.0432,-1.0432,-1.0425,-1.0432,-1.0432,-1.0412,-1.0147,-1.001,-0.999,-0.9786,-0.9653,-0.9599,-0.9593,-0.9573,-0.9519,-0.9526,-0.9399,-0.9131,-0.9097,-0.9011,-0.8785,-0.8778,-0.8778,-0.8778,0.0,0.0,0.0,-0.8778,-0.8778,-0.8771,-0.8477,-0.8176,-0.7905,-0.7598,0.0,-0.6311,-0.6445,-0.6259,-0.5745,-0.5665,0.0,0.0,0.0,0.0,0.0,0.0,0.0,0.0,0.0,0.0,0.0,-0.5079,-0.481,-0.4655,-0.4449,-0.4649,-0.5468,-0.6667,-0.7226,-0.6807,-0.7088,-0.7402,-0.7626,-0.7752,-0.7912,-0.8194,-0.8281,-0.8397,-0.8638,-0.8711,-0.8744,-0.8791,-0.8778,-0.8778,-0.8778,-0.8778,-0.8778,-0.8778,-0.8321,-0.7943,-0.783,-0.6681,-0.5492,-0.4625,-0.4491,-0.4491,-0.4491,-0.4491,-0.4491,-0.4491,-0.4491,-0.4491,-0.4491,-0.4491,-0.4484,-0.445,-0.4423,-0.4354,-0.4174,-0.4058,-0.3906,-0.3805,-0.3682,-0.36,-1.1857,-1.1857,-1.1857,-1.1857,0.0,-1.1703,-1.1557,-1.141,-1.1116,-1.0989,-1.0982,-1.0835,-1.0807,-1.0801,-1.0653,-1.0586,-1.0586,-1.0439,-1.0365,-1.0327,-1.0218,-1.004,-0.99,-0.99,-0.9826,-0.9715,-0.9715,-0.9606,-0.9452,-0.9284,-0.9138,-0.8991,-0.8878,-0.8778,-0.8778,-0.8778,-0.8778,-0.8778,-0.8778,-0.8778,-0.8798,-0.8549,-0.8328,-0.8143,-0.7702,0.0,0.0,0.0,0.0,0.0,0.0,0.0,0.0,0.0,0.0,-0.5484,-0.5351,-0.5353,-0.5471,-0.5491,-0.5635,-0.5923,-0.5943,-0.5755,-0.5295,-0.5264,-0.5571,-0.6287,-0.7306,-0.7762,-0.7493,-0.7586,-0.7816,-0.8103,-0.815,-0.8263,-0.853,-0.8591,-0.8644,-0.8771,-0.8778,-0.8778,-0.8778,-0.8778,-0.8778,-0.8778,-0.8778,-0.8778,-0.8778,-0.8487,-0.8235,-0.7771,-0.6546,-0.53,-0.4653,-0.4491,-0.4491,-0.4491,-0.4491,-0.4491,-0.4491,-0.4491,-0.4491,-0.4491,-0.4491,-0.4491,-0.4491,-0.4491,-0.4491,-0.4362,-0.421,-0.4095,-0.3991,-0.3788,-0.36,-1.2305,-1.2305,-1.2305,-1.2305,-1.2278,-1.2051,-1.198,-1.1917,-1.157,0.0,0.0,-1.1176,-1.1069,-1.1049,-1.0794,-1.0667,-1.0667,-1.0613,-1.0586,-1.0586,-1.0586,-1.0466,-1.0194,-1.0187,-1.0067,-0.9876,-0.9869,-0.9806,-0.9782,-0.9484,-0.9283,-0.9198,-0.8971,-0.8864,-0.8811,-0.8778,-0.8778,-0.8778,-0.8778,-0.8778,-0.8798,-0.8603,-0.8456,-0.8402,-0.7913,-0.7484,-0.7086,-0.6874,-0.6626,-0.6364,-0.6297,-0.627,-0.627,-0.6241,-0.6196,-0.6196,-0.6196,-0.6216,-0.627,-0.627,-0.6317,-0.6418,-0.668,-0.66,-0.6065,-0.6218,-0.6553,-0.7113,-0.7706,-0.8045,-0.7999,-0.8039,-0.8159,-0.8456,-0.8476,-0.855,-0.8771,-0.8778,-0.8765,-0.8778,-0.8778,-0.8778,-0.8778,-0.8778,-0.8778,-0.8778,-0.8778,-0.8778,-0.8778,-0.8752,-0.8235,-0.6966,-0.6177,-0.5464,-0.4704,-0.4491,-0.4491,-0.4491,-0.4491,-0.4491,-0.4491,-0.4491,-0.4491,-0.4491,-0.4491,-0.4491,-0.4491,-0.4491,-0.4491,-0.4487,-0.4351,-0.4223,-0.419,-0.3913,-0.3696,-1.2305,-1.2305,-1.2305,-1.2305,-1.2298,-1.2258,-1.2245,-1.2198,-1.1628,-1.143,-1.1389,-1.1349,-1.1363,-1.1349,-1.1062,-1.0961,-1.0909,-1.0707,-1.0586,-1.0586,-1.0586,-1.0566,-1.0533,-1.0533,-1.0506,-1.0466,-1.0466,-1.0332,-1.0043,-1.0013,-0.9717,-0.9271,-0.9171,-0.9024,-0.8798,-0.8778,-0.8778,-0.8778,-0.8778,-0.8778,-0.8778,-0.8771,-0.865,-0.8415,-0.8315,-0.8,-0.7457,-0.7383,-0.7229,-0.6893,-0.6687,-0.6546,-0.6539,-0.635,-0.6196,-0.6196,-0.6196,-0.6303,-0.6533,-0.6546,-0.6767,-0.7256,-0.7569,-0.7589,-0.7276,-0.7021,-0.7126,-0.7726,-0.8298,-0.8584,-0.837,-0.8524,-0.8671,-0.8731,-0.8744,-0.8771,-0.8778,-0.8778,-0.8778,-0.8778,-0.8778,-0.8778,-0.8778,-0.8752,-0.8725,-0.8778,-0.8593,-0.8725,-0.8646,-0.8778,-0.8182,-0.6993,-0.6534,-0.5905,-0.4897,-0.4519,-0.4491,-0.4491,-0.4491,-0.4491,-0.4491,-0.4491,-0.4491,-0.4491,-0.4491,-0.4491,-0.4491,-0.4491,-0.4491,-0.4484,-0.4355,-0.4214,-0.4237,-0.4058,-0.3907,-1.2305,-1.2305,-1.2305,-1.2305,-1.2305,-1.2305,-1.2305,-1.2278,-1.2017,-1.1904,-1.1884,-1.1744,-1.167,-1.1637,-1.1363,-1.1223,-1.1216,-1.0929,-1.0827,-1.0814,-1.066,-1.0586,-1.0586,-1.0586,-1.0586,-1.0586,-1.0586,-1.0519,-1.0354,-1.0194,-0.9943,-0.9677,-0.9377,-0.9064,-0.8798,-0.8778,-0.8778,-0.8778,-0.8778,-0.8778,-0.8778,-0.8778,-0.8744,-0.8611,-0.8489,-0.8257,-0.8,-0.7826,-0.7632,-0.7499,-0.7373,-0.7241,-0.7095,-0.7101,-0.6974,-0.6687,-0.6934,-0.7101,-0.7089,-0.7221,-0.7406,-0.7695,-0.7819,-0.7943,-0.7986,-0.7682,-0.7672,-0.813,-0.8564,-0.8758,-0.865,-0.8731,-0.8778,-0.8778,-0.8778,-0.8778,-0.8778,-0.8778,-0.8778,-0.8778,-0.8778,-0.8778,-0.8778,-0.8454,-0.8215,-0.8156,-0.7916,-0.7643,-0.7643,-0.7616,-0.7563,-0.7214,-0.6858,-0.6204,-0.5222,-0.4704,-0.4515,-0.4491,-0.4491,-0.4491,-0.4491,-0.4491,-0.4491,-0.4491,-0.4491,-0.4491,-0.4491,-0.4491,-0.4491,-0.4484,-0.4419,-0.4368,-0.4345,-0.4222,-0.4009,-1.2405,-1.2405,-1.2331,-1.2305,-1.2305,-1.2305,-1.2305,-1.2305,-1.2298,-1.2305,-1.2271,-1.2058,-1.2007,-1.1966,-1.1663,-1.1523,-1.149,-1.1223,-1.1089,-1.1062,-1.0827,-1.0693,-1.068,-1.0633,-1.0586,-1.0586,-1.0586,-1.0586,-1.0559,-1.0358,-1.018,-1.006,-0.9497,-0.9104,-0.8878,-0.8838,-0.8778,-0.8778,-0.8778,-0.8778,-0.8778,-0.8778,-0.8778,-0.8765,-0.8591,-0.8496,-0.8457,-0.8183,-0.8005,-0.8005,-0.7945,-0.7792,-0.7602,-0.7772,-0.7692,-0.7306,-0.7639,-0.7799,-0.7615,-0.7856,-0.8012,-0.8012,-0.8072,-0.823,-0.8417,-0.8263,-0.8216,-0.8457,-0.8677,-0.8778,-0.8791,-0.8804,-0.8778,-0.8778,-0.8778,-0.8778,-0.8778,-0.8778,-0.8778,-0.8778,-0.8778,-0.8778,-0.8666,-0.8156,-0.767,-0.7402,-0.6939,-0.6615,-0.6588,-0.6588,-0.6885,-0.7101,-0.6826,-0.6036,-0.5406,-0.4869,-0.4515,-0.4491,-0.4491,-0.4491,-0.4491,-0.4491,-0.4491,-0.4491,-0.4491,-0.4491,-0.4491,-0.4491,-0.4491,-0.4487,-0.4477,-0.4481,-0.4467,-0.4368,-0.4146,-1.2782,-1.2703,-1.2418,-1.2305,-1.2305,-1.2305,-1.2305,-1.2305,-1.2305,-1.2305,-1.2298,-1.2265,-1.2258,-1.2218,-1.1986,-1.1866,-1.1804,-1.1523,-1.1342,-1.1309,-1.1089,-1.0949,-1.0935,-1.0713,-1.0586,-1.0586,-1.0586,-1.0586,-1.0586,-1.0553,-1.0412,-1.008,-0.9504,-0.9204,-0.9144,-0.8931,-0.8778,-0.8778,-0.8778,-0.8778,-0.8778,-0.8778,-0.8778,-0.8778,-0.8784,-0.8764,-0.8744,-0.8516,-0.8362,-0.8342,-0.8059,-0.7899,-0.7872,-0.7899,-0.7862,-0.7795,-0.7855,-0.7892,-0.7885,-0.8163,-0.833,-0.835,-0.8557,-0.8711,-0.8751,-0.8731,-0.8698,-0.8764,-0.8784,-0.8778,-0.8778,-0.8778,-0.8778,-0.8778,-0.8778,-0.8778,-0.8778,-0.8778,-0.8778,-0.8778,-0.8778,-0.8778,-0.8646,-0.8023,-0.7343,-0.6669,-0.6448,-0.6344,-0.6372,-0.6372,-0.6394,-0.6475,-0.6068,-0.541,-0.4842,-0.4598,-0.4491,-0.4491,-0.4491,-0.4491,-0.4491,-0.4491,-0.4491,-0.4491,-0.4491,-0.4491,-0.4491,-0.4491,-0.4491,-0.4491,-0.4491,-0.4491,-0.4491,-0.446,-0.431,-1.2951,-1.2777,-1.265,-1.2496,-1.2311,-1.2305,-1.2305,-1.2305,-1.2305,-1.2305,-1.2305,-1.2305,-1.2305,-1.2298,-1.2171,-1.2124,-1.2098,-1.1824,-1.159,-1.1375,-1.1122,-1.0902,-1.0767,-1.0653,-1.0586,-1.0586,-1.0586,-1.0586,-1.0586,-1.0586,-1.0439,-1.0107,-0.9699,-0.9391,-0.9211,-0.8924,-0.8778,-0.8778,-0.8778,-0.8778,-0.8778,-0.8778,-0.8778,-0.8778,-0.8778,-0.8778,-0.8798,-0.8691,-0.8631,-0.8624,-0.8517,-0.8345,-0.8203,-0.8332,-0.8265,-0.7959,-0.8096,-0.827,-0.8412,-0.8564,-0.8631,-0.8663,-0.8731,-0.8778,-0.8778,-0.8778,-0.8778,-0.8778,-0.8778,-0.8778,-0.8778,-0.8778,-0.8778,-0.8778,-0.8778,-0.8778,-0.8778,-0.8778,-0.8778,-0.8778,-0.8778,-0.8613,-0.8103,-0.7117,-0.6167,-0.5523,-0.5363,-0.5445,-0.5391,-0.5363,-0.5336,-0.5304,-0.5058,-0.5054,-0.4976,-0.4704,-0.4543,-0.4491,-0.4491,-0.4491,-0.4491,-0.4491,-0.4491,-0.4491,-0.4491,-0.4491,-0.4491,-0.4491,-0.4491,-0.4491,-0.4491,-0.4491,-0.4491,-0.4491,-0.4382,-1.32,-1.3025,-1.2864,-1.2656,-1.2418,-1.2338,-1.2305,-1.2305,-1.2305,-1.2305,-1.2305,-1.2305,-1.2305,-1.2305,-1.2305,-1.2305,-1.2278,-1.2084,-1.187,-1.1608,-1.1363,-1.1082,-1.0847,-1.074,-1.0667,-1.0606,-1.0586,-1.0586,-1.0586,-1.0586,-1.0479,-1.0221,-0.9947,-0.9693,-0.9437,-0.9098,-0.8925,-0.8898,-0.8831,-0.8778,-0.8778,-0.8778,-0.8778,-0.8778,-0.8778,-0.8778,-0.8778,-0.8778,-0.8778,-0.8778,-0.8778,-0.8711,-0.8524,-0.8697,-0.8617,-0.8225,-0.837,-0.8603,-0.8765,-0.8778,-0.8778,-0.8778,-0.8778,-0.8778,-0.8778,-0.8778,-0.8778,-0.8778,-0.8778,-0.8778,-0.8778,-0.8778,-0.8778,-0.8778,-0.8778,-0.8778,-0.8778,-0.8778,-0.8778,-0.8778,-0.8778,-0.8427,-0.7509,-0.6524,-0.5655,-0.4818,-0.4543,-0.4491,-0.4491,-0.4543,-0.4543,-0.4491,-0.4491,-0.468,-0.5085,-0.4814,-0.4515,-0.4491,-0.4491,-0.4491,-0.4491,-0.4491,-0.4491,-0.4491,-0.4491,-0.4491,-0.4491,-0.4491,-0.4491,-0.4491,-0.4491,-0.4491,-0.4491,-0.4491,-0.4433,-1.3573,-1.3473,-1.3018,-1.277,-1.2744,-1.2418,-1.2305,-1.2305,-1.2305,-1.2305,-1.2305,-1.2305,-1.2305,-1.2305,-1.2305,-1.2305,-1.2298,-1.2271,-1.2231,-1.2158,-1.1953,-1.1692,-1.1383,-1.1102,-1.0861,-1.064,-1.06,-1.0586,-1.0586,-1.0586,-1.0586,-1.0546,-1.0221,-1.005,-0.996,-0.9451,-0.9191,-0.9144,-0.8958,-0.8785,-0.8778,-0.8778,-0.8778,-0.8778,-0.8778,-0.8778,-0.8778,-0.8778,-0.8778,-0.8778,-0.8778,-0.8798,-0.8751,-0.8791,-0.8778,-0.8718,-0.8764,-0.8784,-0.8804,-0.8778,-0.8778,-0.8778,-0.8778,-0.8778,-0.8778,-0.8778,-0.8778,-0.8778,-0.8778,-0.8778,-0.8778,-0.8778,-0.8778,-0.8778,-0.8778,-0.8778,-0.8778,-0.8778,-0.8778,-0.8778,-0.8666,-0.8076,-0.6885,-0.6615,-0.5773,-0.4873,-0.4491,-0.4491,-0.4491,-0.4491,-0.4491,-0.4491,-0.4491,-0.4515,-0.457,-0.457,-0.4515,-0.4491,-0.4491,-0.4491,-0.4491,-0.4491,-0.4491,-0.4491,-0.4491,-0.4491,-0.4491,-0.4491,-0.4491,-0.4491,-0.4491,-0.4491,-0.4491,-0.4491,-0.4453,-1.3773,-1.3547,-1.3038,-1.2784,-1.275,-1.2425,-1.2305,-1.2305,-1.2305,-1.2305,-1.2305,-1.2305,-1.2305,-1.2305,-1.2305,-1.2305,-1.2305,-1.2305,-1.2204,-1.2031,-1.1953,-1.171,-1.1423,-1.1096,-1.0988,-1.0868,-1.0687,-1.0586,-1.0586,-1.0586,-1.0586,-1.0539,-1.0261,-1.012,-1.0017,-0.9726,-0.9411,-0.9224,-0.9098,-0.8971,-0.8831,-0.8778,-0.8778,-0.8778,-0.8778,-0.8778,-0.8778,-0.8778,-0.8778,-0.8778,-0.8778,-0.8778,-0.8778,-0.8778,-0.8778,-0.8778,-0.8778,-0.8778,-0.8778,-0.8778,-0.8778,-0.8778,-0.8778,-0.8778,-0.8778,-0.8778,-0.8778,-0.8778,-0.8778,-0.8778,-0.8778,-0.8778,-0.8778,-0.8778,-0.8778,-0.8778,-0.8778,-0.8778,-0.8778,-0.8646,-0.8043,-0.7128,-0.6642,-0.5828,-0.5062,-0.4625,-0.4491,-0.4491,-0.4491,-0.4491,-0.4491,-0.4491,-0.4491,-0.4491,-0.4491,-0.4487,-0.4491,-0.4491,-0.4491,-0.4491,-0.4491,-0.4491,-0.4491,-0.4491,-0.4491,-0.4491,-0.4491,-0.4491,-0.4491,-0.4491,-0.4491,-0.4491,-0.4491,-0.4491,-0.4491,-1.3975,-1.3728,-1.324,-1.2979,-1.2898,-1.261,-1.2385,-1.2318,-1.2305,-1.2305,-1.2305,-1.2305,-1.2305,-1.2305,-1.2305,-1.2305,-1.2305,-1.2305,-1.2234,-1.2024,-1.2011,-1.185,-1.1577,-1.1363,-1.1223,-1.1102,-1.0874,-1.0687,-1.06,-1.0586,-1.0586,-1.0573,-1.0347,-1.0254,-1.0214,-0.9973,-0.9706,-0.9504,-0.9317,-0.9077,-0.8931,-0.8825,-0.8778,-0.8778,-0.8778,-0.8778,-0.8778,-0.8778,-0.8778,-0.8778,-0.8778,-0.8778,-0.8778,-0.8778,-0.8778,-0.8778,-0.8778,-0.8778,-0.8778,-0.8778,-0.8778,-0.8778,-0.8778,-0.8778,-0.8778,-0.8778,-0.8778,-0.8778,-0.8778,-0.8778,-0.8778,-0.8778,-0.8778,-0.8778,-0.8778,-0.8778,-0.8778,-0.8778,-0.8666,-0.8348,-0.767,-0.6912,-0.6258,-0.5441,-0.4869,-0.457,-0.4491,-0.4491,-0.4491,-0.4491,-0.4491,-0.4491,-0.4491,-0.4491,-0.4491,-0.4491,-0.4491,-0.4491,-0.4491,-0.4491,-0.4491,-0.4491,-0.4491,-0.4491,-0.4491,-0.4491,-0.4491,-0.4491,-0.4491,-0.4491,-0.4491,-0.4491,-0.4491,-0.4491,-0.4491,-1.4088,-1.4021,-1.3713,-1.34,-1.318,-1.2878,-1.2603,-1.2365,-1.2305,-1.2305,-1.2305,-1.2305,-1.2305,-1.2305,-1.2305,-1.2305,-1.2305,-1.2305,-1.2291,-1.2265,-1.2271,-1.2131,-1.1877,-1.1839,-1.1623,-1.1376,-1.1116,-1.0868,-1.064,-1.0606,-1.0586,-1.0586,-1.0573,-1.0533,-1.0579,-1.0254,-1.0077,-0.993,-0.9537,-0.9251,-0.9143,-0.8951,-0.8838,-0.8785,-0.8778,-0.8778,-0.8778,-0.8778,-0.8778,-0.8778,-0.8778,-0.8778,-0.8778,-0.8725,-0.8752,-0.8778,-0.8778,-0.8778,-0.8778,-0.8778,-0.8778,-0.8778,-0.8778,-0.8778,-0.8778,-0.8778,-0.8778,-0.8778,-0.8778,-0.8778,-0.8778,-0.8725,-0.8725,-0.8778,-0.8778,-0.8778,-0.8778,-0.8778,-0.8533,-0.7996,-0.7589,-0.7009,-0.5973,-0.5355,-0.503,-0.4625,-0.4491,-0.4491,-0.4491,-0.4491,-0.4491,-0.4491,-0.4491,-0.4491,-0.4491,-0.4491,-0.4491,-0.4491,-0.4491,-0.4491,-0.4491,-0.4491,-0.4491,-0.4491,-0.4491,-0.4491,-0.4491,-0.4491,-0.4491,-0.4491,-0.4491,-0.4491,-0.4491,-0.4491,-0.4491,-1.4088,-1.4048,-1.3726,-1.3553,-1.3407,-1.3005,-1.2723,-1.2623,-1.2398,-1.2305,-1.2305,-1.2305,-1.2305,-1.2305,-1.2305,-1.2305,-1.2305,-1.2305,-1.2305,-1.2305,-1.2305,-1.2258,-1.2144,-1.1964,-1.171,-1.1416,-1.1136,-1.0949,-1.0868,-1.0687,-1.0586,-1.0586,-1.0586,-1.0586,-1.0586,-1.0499,-1.0334,-1.0077,-0.9917,-0.9637,-0.9236,-0.9131,-0.8991,-0.8831,-0.8778,-0.8778,-0.8778,-0.8778,-0.8778,-0.8778,-0.8778,-0.8778,-0.8725,-0.8321,-0.8289,-0.8725,-0.8778,-0.8778,-0.8778,-0.8778,-0.8778,-0.8778,-0.8778,-0.8778,-0.8778,-0.8778,-0.8778,-0.8778,-0.8778,-0.8778,-0.8725,-0.8315,-0.8295,-0.8752,-0.8778,-0.8725,-0.8725,-0.8752,-0.8699,-0.8401,-0.7589,-0.6637,-0.5869,-0.5328,-0.4791,-0.4584,-0.4501,-0.4501,-0.4491,-0.4511,-0.4491,-0.4491,-0.4491,-0.4518,-0.4525,-0.4528,-0.4518,-0.4501,-0.4491,-0.4491,-0.4491,-0.4491,-0.4491,-0.4491,-0.4491,-0.4491,-0.4491,-0.4491,-0.4491,-0.4491,-0.4491,-0.4491,-0.4491,-0.4491,-0.4491,-1.4088,-1.4062,-1.3888,-1.3693,-1.356,-1.3113,-1.2891,-1.275,-1.2432,-1.2305,-1.2305,-1.2305,-1.2305,-1.2305,-1.2305,-1.2305,-1.2305,-1.2305,-1.2305,-1.2305,-1.2305,-1.2305,-1.2285,-1.2124,-1.1877,-1.161,-1.141,-1.1202,-1.0989,-1.0815,-1.07,-1.0606,-1.0586,-1.0586,-1.0586,-1.0586,-1.0486,-1.0287,-1.0137,-0.9903,-0.957,-0.9324,-0.9124,-0.8951,-0.8864,-0.8785,-0.8778,-0.8533,-0.854,-0.8672,-0.8566,-0.8507,-0.8672,-0.8129,-0.8023,-0.8619,-0.8778,-0.8778,-0.8778,-0.8778,-0.8778,-0.8778,-0.8778,-0.8778,-0.8778,-0.8778,-0.8778,-0.8778,-0.8778,-0.8778,-0.8699,-0.8156,-0.799,-0.8315,-0.8076,-0.8123,-0.8295,-0.8401,-0.8315,-0.7996,-0.7295,-0.634,-0.5469,-0.4979,-0.4546,-0.4552,-0.4576,-0.4539,-0.4545,-0.46,-0.4627,-0.4629,-0.4663,-0.465,-0.4597,-0.4573,-0.4556,-0.4522,-0.4491,-0.4491,-0.4491,-0.4491,-0.4491,-0.4491,-0.4491,-0.4491,-0.4491,-0.4491,-0.4491,-0.4491,-0.4491,-0.4491,-0.4491,-0.4491,-0.4463,-1.4088,-1.4088,-1.4082,-1.3921,-1.3626,-1.336,-1.3093,-1.2844,-1.2516,-1.2358,-1.2351,-1.2325,-1.2305,-1.2305,-1.2305,-1.2305,-1.2305,-1.2305,-1.2305,-1.2305,-1.2305,-1.2305,-1.2291,-1.2265,-1.2118,-1.1953,-1.1866,-1.1571,-1.1089,-1.0982,-1.0874,-1.062,-1.0586,-1.0586,-1.0586,-1.0586,-1.0579,-1.0519,-1.0287,-1.0147,-1.0017,-0.9584,-0.9244,-0.917,-0.8964,-0.8825,-0.8732,-0.8209,-0.8049,-0.8454,-0.7943,-0.7943,-0.8401,-0.7996,-0.7771,-0.8613,-0.8752,-0.8725,-0.8752,-0.8778,-0.8778,-0.8778,-0.8778,-0.8778,-0.8778,-0.8778,-0.8778,-0.8778,-0.8778,-0.8778,-0.8672,-0.8023,-0.7616,-0.7396,-0.7074,-0.7101,-0.753,-0.7643,-0.7696,-0.7536,-0.6966,-0.6069,-0.4866,-0.4601,-0.4593,-0.466,-0.4704,-0.4679,-0.4651,-0.4714,-0.4877,-0.4911,-0.4897,-0.4752,-0.4653,-0.4619,-0.4617,-0.4518,-0.4491,-0.4491,-0.4463,-0.4436,-0.407,-0.4125,-0.4408,-0.4436,-0.4405,-0.4349,-0.4432,-0.4491,-0.4491,-0.4491,-0.4432,-0.4377,-0.4153,-1.4088,-1.4088,-1.4088,-1.4041,-1.3935,-1.3613,-1.344,-1.3333,-1.2871,-1.2643,-1.2623,-1.2392,-1.2305,-1.2305,-1.2305,-1.2305,-1.2305,-1.2305,-1.2305,-1.2305,-1.2305,-1.2305,-1.2305,-1.2305,-1.2265,-1.2158,-1.2013,-1.167,-1.1316,-1.1109,-1.0894,-1.06,-1.06,-1.0586,-1.0586,-1.0586,-1.0586,-1.0586,-1.0526,-1.0321,-1.0127,-0.9943,-0.9637,-0.9196,-0.9131,-0.8984,-0.8758,-0.8103,-0.7456,-0.7155,-0.702,-0.7155,-0.7616,-0.6794,-0.6923,-0.8289,-0.8295,-0.8268,-0.8672,-0.8778,-0.8778,-0.8778,-0.8778,-0.8778,-0.8778,-0.8778,-0.8778,-0.8778,-0.8778,-0.8778,-0.8593,-0.767,-0.6615,-0.566,-0.6028,-0.6576,-0.6804,-0.6912,-0.7235,-0.8023,-0.6826,-0.5649,-0.5006,-0.4701,-0.4694,-0.4816,-0.485,-0.486,-0.484,-0.4853,-0.4982,-0.5098,-0.5074,-0.488,-0.4745,-0.4704,-0.4633,-0.4528,-0.4491,-0.4491,-0.4436,-0.4353,-0.368,-0.3123,-0.3932,-0.4156,-0.4128,-0.407,-0.4211,-0.4405,-0.4349,-0.4294,-0.4181,-0.4095,-0.3649,-1.4088,-1.4088,-1.4088,-1.4088,-1.4048,-1.3733,-1.3606,-1.3487,-1.3052,-1.2784,-1.2723,-1.2432,-1.2305,-1.2305,-1.2305,-1.2305,-1.2305,-1.2305,-1.2033,-1.165,-1.162,-1.1885,-1.2194,-1.2305,-1.2305,-1.2291,-1.2167,-1.1897,-1.1603,-1.1316,-1.1022,-1.0801,-1.0653,-1.0593,-1.0586,-1.0586,-1.0586,-1.0586,-1.0586,-1.0499,-1.0314,-1.0174,-0.9973,-0.9557,-0.9342,-0.888,-0.8006,-0.7723,-0.7482,-0.702,-0.6556,-0.6421,-0.6912,-0.6091,-0.6249,-0.7777,-0.7723,-0.8055,-0.8619,-0.8778,-0.8778,-0.8778,-0.8778,-0.8778,-0.8778,-0.8778,-0.8778,-0.8778,-0.8778,-0.8778,-0.856,-0.7477,-0.6046,-0.4991,-0.5294,-0.5912,-0.6114,-0.6118,-0.6659,-0.7112,-0.6624,-0.5429,-0.4981,-0.4836,-0.4877,-0.4955,-0.4982,-0.5033,-0.5084,-0.5101,-0.5118,-0.5203,-0.5269,-0.5074,-0.4948,-0.4897,-0.4748,-0.4634,-0.4522,-0.4518,-0.4239,-0.4128,-0.3541,-0.3095,-0.3572,-0.3879,-0.3849,-0.3876,-0.407,-0.4181,-0.4125,-0.3846,-0.3566,-0.3398,-0.301,-1.4088,-1.4088,-1.4088,-1.4088,-1.4048,-1.3814,-1.3653,-1.35,-1.3105,-1.2831,-1.2685,-1.235,-1.2003,-1.2114,-1.17,-1.1892,-1.1855,-1.1669,-1.1323,-1.0864,-1.0752,-1.1093,-1.1922,-1.2224,-1.2268,-1.2298,-1.2305,-1.2104,-1.181,-1.1502,-1.1263,-1.0988,-1.072,-1.06,-1.0586,-1.0586,-1.0586,-1.0586,-1.0586,-1.0579,-1.0512,-1.0321,-1.0147,-0.993,-0.9238,-0.8284,-0.7318,-0.7101,-0.7316,-0.7423,-0.6195,-0.59,-0.6258,-0.5683,-0.571,-0.6394,-0.7069,-0.783,-0.854,-0.8699,-0.8778,-0.8778,-0.8778,-0.8778,-0.8778,-0.8778,-0.8778,-0.8778,-0.8732,-0.8454,-0.7996,-0.7117,-0.5991,-0.4895,-0.4744,-0.4976,-0.5294,-0.5436,-0.5711,-0.6261,-0.5923,-0.5467,-0.514,-0.4962,-0.4965,-0.5125,-0.5142,-0.5208,-0.5259,-0.5276,-0.5296,-0.5337,-0.5341,-0.5313,-0.5182,-0.5069,-0.4908,-0.4728,-0.4621,-0.4472,-0.3993,-0.3735,-0.34,-0.3289,-0.3541,-0.3652,-0.3652,-0.3763,-0.3901,-0.3566,-0.3289,-0.2871,-0.251,-0.2369,-0.2091,-1.4088,-1.4088,-1.4088,-1.4088,-1.4075,-1.4015,-1.3813,-1.3573,-1.326,-1.2959,-1.256,-1.1627,-1.1174,-1.1093,-1.0458,-0.9938,-1.0083,-1.0088,-0.9782,-0.9707,-0.9631,-1.019,-1.1124,-1.1805,-1.2268,-1.2305,-1.2305,-1.2151,-1.1877,-1.1583,-1.1249,-1.1009,-1.0767,-1.0586,-1.0586,-1.0586,-1.0586,-1.0586,-1.0586,-1.0586,-1.0586,-1.0519,-1.0296,-0.9972,-0.9048,-0.7954,-0.6959,-0.6257,-0.5982,-0.5896,-0.5687,-0.5371,-0.5117,-0.4897,-0.4897,-0.5281,-0.6204,-0.7155,-0.7863,-0.8454,-0.8778,-0.8778,-0.8778,-0.8778,-0.8778,-0.8778,-0.8778,-0.8699,-0.8295,-0.7584,-0.6613,-0.6188,-0.5579,-0.4948,-0.4772,-0.4917,-0.4998,-0.5047,-0.5166,-0.5206,-0.5214,-0.5119,-0.5238,-0.5128,-0.5172,-0.5277,-0.5337,-0.5351,-0.5368,-0.5392,-0.5395,-0.5395,-0.5382,-0.5344,-0.5243,-0.5127,-0.4982,-0.4713,-0.4552,-0.4314,-0.3832,-0.3456,-0.3121,-0.3148,-0.3342,-0.3372,-0.3289,-0.3428,-0.3511,-0.2984,-0.2426,-0.2148,-0.187,-0.1591,-0.1312,-1.4088,-1.4088,-1.4088,-1.4088,-1.4088,-1.4082,-1.3921,-1.3586,-1.33,-1.2759,-1.1992,-1.1133,-1.0565,-1.0083,-0.9556,-0.9334,-0.9188,-0.8803,-0.8879,-0.9069,-0.8917,-0.9178,-1.0121,-1.113,-1.1768,-1.2194,-1.2305,-1.2198,-1.2004,-1.165,-1.1322,-1.1162,-1.0807,-1.0606,-1.0586,-1.0586,-1.0586,-1.0586,-1.0586,-1.0586,-1.0586,-1.0579,-1.0158,-0.9591,-0.8777,-0.7914,-0.6536,-0.6049,-0.5592,-0.5306,-0.5163,-0.4968,-0.4608,-0.4491,-0.4491,-0.4708,-0.5441,-0.6637,-0.7509,-0.8049,-0.8427,-0.8778,-0.8778,-0.8778,-0.8778,-0.8778,-0.8586,-0.8315,-0.7869,-0.716,-0.586,-0.5717,-0.5451,-0.5017,-0.4928,-0.4982,-0.4978,-0.4962,-0.4925,-0.4941,-0.503,-0.5153,-0.523,-0.5237,-0.526,-0.5361,-0.5365,-0.5375,-0.5375,-0.5395,-0.5395,-0.5395,-0.5395,-0.5365,-0.5267,-0.5186,-0.5063,-0.4751,-0.437,-0.4004,-0.3519,-0.319,-0.2899,-0.2871,-0.2758,-0.2843,-0.2815,-0.2984,-0.2843,-0.212,-0.1619,-0.148,0.0,0.0,0.0,-1.4088,-1.4088,-1.4088,-1.4088,-1.4088,-1.4082,-1.3881,-1.3507,-1.312,-1.2244,-1.1168,-1.0645,-0.9664,-0.9145,-0.8765,-0.8803,-0.8542,-0.8089,-0.7931,-0.8351,-0.7859,-0.8199,-0.9107,-1.0078,-1.105,-1.1996,-1.2231,-1.2241,-1.2131,-1.175,-1.1423,-1.1275,-1.0842,-1.062,-1.0586,-1.0586,-1.0586,-1.0586,-1.0586,-1.0586,-1.0586,-1.0555,-1.0001,-0.8898,-0.8276,-0.74,-0.6194,-0.5713,-0.5521,-0.4941,-0.4792,-0.4668,-0.4535,-0.4491,-0.4491,-0.4519,-0.5195,-0.6032,-0.6929,-0.7557,-0.8023,-0.8613,-0.8619,-0.8593,-0.8566,-0.8427,-0.8103,-0.772,-0.7236,-0.6776,-0.5813,-0.5626,-0.54,-0.5091,-0.5077,-0.5155,-0.5142,-0.5022,-0.506,-0.5129,-0.5173,-0.5276,-0.5337,-0.5361,-0.5382,-0.5395,-0.5395,-0.5395,-0.5395,-0.5395,-0.5395,-0.5395,-0.5395,-0.5395,-0.5337,-0.5241,-0.5143,-0.4546,-0.4133,-0.3623,-0.3121,-0.2636,-0.2268,-0.2093,-0.2037,-0.2204,-0.2399,-0.2565,-0.2174,-0.1284,-0.0895,-0.0811,0.0,0.0,0.0,-1.4088,-1.4088,-1.4088,-1.4088,-1.4088,-1.4088,-1.3657,-1.3167,-1.2258,-1.154,-1.0663,-0.9117,-0.8347,-0.7897,-0.7099,-0.6876,-0.6984,-0.683,-0.6795,-0.7022,-0.6756,-0.7211,-0.8084,-0.9064,-1.0078,-1.1056,-1.1657,-1.204,-1.2135,-1.1702,-1.1449,-1.1309,-1.0901,-1.0626,-1.06,-1.0586,-1.0561,-1.0428,-1.0428,-1.0428,-1.0326,-1.0225,-0.9627,-0.8201,-0.7482,-0.6513,-0.561,-0.5171,-0.5039,-0.4914,-0.4894,-0.4731,-0.4593,-0.4525,-0.4501,-0.4625,-0.503,-0.5624,-0.6113,-0.7015,-0.7584,-0.7857,-0.7883,-0.7889,-0.7836,-0.7747,-0.7458,-0.693,-0.6402,-0.583,-0.516,-0.5224,-0.5196,-0.5125,-0.5206,-0.5337,-0.5334,-0.531,-0.5279,-0.53,-0.5334,-0.5347,-0.5375,-0.5395,-0.5395,-0.5395,-0.5395,-0.5395,-0.5395,-0.5395,-0.5395,-0.5395,-0.5395,-0.5395,-0.5382,-0.5299,-0.5147,-0.4298,-0.3752,-0.3131,-0.26,-0.193,-0.1547,-0.1288,-0.1507,-0.1898,-0.2065,-0.2147,-0.1563,-0.0727,-0.042,0.0,0.0,0.0,0.0,-1.2303,-1.2303,-1.2297,-1.2297,-1.2297,-1.226,-1.1962,-1.1491,-1.0946,-1.0174,-0.9201,-0.8237,-0.7476,-0.7022,-0.6606,-0.63,-0.63,-0.63,-0.63,-0.63,-0.6335,-0.649,-0.7138,-0.8084,-0.9026,-0.9895,-1.0539,-1.1434,-1.2191,-1.1877,-1.1514,-1.1349,-1.0982,-1.0754,-1.0626,-1.0586,-1.0301,-1.011,-0.9913,-0.9684,-0.932,-0.9288,-0.8479,-0.7529,-0.6841,-0.6149,-0.5427,-0.5199,-0.5184,-0.517,-0.507,-0.4938,-0.4822,-0.4675,-0.4576,-0.4605,-0.4818,-0.5164,-0.5437,-0.6249,-0.6632,-0.7074,-0.7133,-0.7128,-0.7139,-0.7094,-0.6855,-0.633,-0.5694,-0.525,-0.504,-0.5066,-0.513,-0.5243,-0.5351,-0.5385,-0.5395,-0.5395,-0.5395,-0.5395,-0.5382,-0.5375,-0.5382,-0.5395,-0.5395,-0.5395,-0.5395,-0.5395,-0.5395,-0.5395,-0.5395,-0.5395,-0.5395,-0.5395,-0.5326,-0.5186,-0.4842,-0.4039,-0.3268,-0.2644,-0.2051,-0.143,-0.0831,-0.042,-0.0811,-0.1452,-0.1507,-0.1535,-0.0839,0.0,0.0,0.0,0.0,0.0,0.0,-1.0567,-1.0567,-1.0567,-1.0567,-1.0567,-1.0611,-1.0395,-0.9917,-0.9695,-0.8988,-0.7889,-0.7553,-0.7026,-0.649,-0.63,-0.63,-0.63,-0.63,-0.63,-0.63,-0.63,-0.63,-0.6567,-0.7288,-0.8275,-0.8917,-0.9485,-1.0233,-1.1415,-1.1238,-1.116,-1.0931,-1.0752,-1.066,-1.0612,-1.0117,-0.9746,-0.9498,-0.9043,-0.8613,-0.8156,-0.7795,-0.7437,-0.6719,-0.6523,-0.6063,-0.5437,-0.5361,-0.5358,-0.5334,-0.524,-0.5187,-0.5122,-0.4904,-0.4724,-0.4627,-0.4545,-0.4822,-0.514,-0.5515,-0.5978,-0.6431,-0.6439,-0.6459,-0.6435,-0.6416,-0.6233,-0.586,-0.5395,-0.5085,-0.5145,-0.5179,-0.524,-0.5341,-0.5382,-0.5395,-0.5395,-0.5395,-0.5395,-0.5395,-0.5395,-0.5395,-0.5395,-0.5395,-0.5395,-0.5395,-0.5395,-0.5395,-0.5395,-0.5395,-0.5395,-0.5395,-0.5395,-0.5395,-0.5259,-0.4987,-0.4447,-0.3588,-0.2734,-0.2022,-0.1467,-0.0898,-0.0478,-0.023,-0.0392,-0.0923,-0.0951,-0.0978,-0.0671,0.0,0.0,0.0,0.0,0.0,0.0,-1.0567,-1.0567,-1.0567,-1.0567,-1.0481,-1.0433,-1.0268,-0.9725,-0.8878,-0.8312,-0.7629,-0.6907,-0.6451,-0.6338,-0.63,-0.63,-0.63,-0.63,-0.63,-0.63,-0.63,-0.63,-0.6412,-0.7326,-0.7744,-0.8161,-0.8803,-0.9857,-1.0482,-0.9836,-0.9818,-1.0118,-0.9553,-0.9248,-1.0313,-0.9332,-0.8716,-0.8979,-0.849,-0.8027,-0.7767,-0.7172,-0.6817,-0.6494,-0.6042,-0.5587,-0.5428,-0.5395,-0.5395,-0.5392,-0.5378,-0.5358,-0.533,-0.5172,-0.5067,-0.4938,-0.4762,-0.4519,-0.4796,-0.5175,-0.5501,-0.5827,-0.5885,-0.5942,-0.5919,-0.5632,-0.5413,-0.5506,-0.5192,-0.5165,-0.5274,-0.5351,-0.5378,-0.5382,-0.5395,-0.5395,-0.5395,-0.5395,-0.5395,-0.5395,-0.5395,-0.5395,-0.5395,-0.5395,-0.5395,-0.5395,-0.5395,-0.5395,-0.5395,-0.5395,-0.5395,-0.5395,-0.5395,-0.5395,-0.516,-0.4888,-0.4082,-0.3211,-0.2333,0.0,0.0,0.0,-0.074,-0.0596,0.0,0.0,-0.0448,-0.0476,-0.0531,0.0,0.0,0.0,0.0,0.0,0.0,-0.8615,-0.8615,-0.8615,-0.8615,-0.8603,-0.856,-0.8328,-0.8016,-0.7562,-0.72,-0.6941,-0.6528,-0.63,-0.63,-0.63,-0.63,-0.63,-0.63,-0.63,-0.63,-0.63,-0.63,-0.6374,-0.6756,-0.7138,-0.7668,-0.774,-0.7974,-0.868,-0.919,-0.9316,-0.929,-0.8893,-0.8731,-0.9591,-0.861,-0.805,-0.7648,-0.7022,-0.6535,-0.6437,-0.6174,-0.5976,-0.5976,-0.5591,-0.5462,-0.5395,-0.5395,-0.5395,-0.5395,-0.5395,-0.5347,-0.5243,-0.5123,-0.5056,-0.4965,-0.4833,-0.4735,-0.4786,-0.5031,-0.521,-0.5284,-0.5299,-0.5329,-0.5386,-0.5275,-0.5098,-0.5361,-0.5334,-0.5304,-0.5375,-0.5392,-0.5395,-0.5395,-0.5395,-0.5395,-0.5395,-0.5395,-0.5395,-0.5395,-0.5395,-0.5395,-0.5395,-0.5395,-0.5395,-0.5395,-0.5395,-0.5395,-0.5395,-0.5395,-0.5395,-0.5395,-0.5395,-0.5395,-0.5057,-0.4722,-0.3849,-0.2945,-0.2008,0.0,0.0,0.0,0.0,0.0,0.0,0.0,0.0,0.0,0.0,0.0,0.0,0.0,0.0,0.0,0.0,-0.7095,-0.7095,-0.7095,-0.7095,-0.7082,-0.6943,-0.6887,-0.6733,-0.662,-0.6436,-0.6327,-0.63,-0.63,-0.63,-0.63,-0.63,-0.63,-0.63,-0.63,-0.63,-0.63,-0.63,-0.6335,-0.6412,-0.6721,-0.7403,-0.6834,-0.6949,-0.748,-0.8024,-0.8322,-0.8476,-0.7988,-0.827,-0.8225,-0.7711,-0.7103,-0.6539,-0.5944,-0.5594,-0.5524,-0.5491,-0.5458,-0.5425,-0.5395,-0.5395,-0.5395,-0.5395,-0.5395,-0.5395,-0.5395,-0.5347,-0.5237,-0.5216,-0.5176,-0.5098,-0.5033,-0.503,-0.4992,-0.502,-0.4921,-0.4941,-0.5026,-0.5185,-0.5219,-0.5155,-0.5208,-0.5388,-0.5385,-0.5382,-0.5395,-0.5395,-0.5395,-0.5395,-0.5395,-0.5395,-0.5395,-0.5395,-0.5395,-0.5395,-0.5395,-0.5395,-0.5395,-0.5395,-0.5395,-0.5395,-0.5395,-0.5395,-0.5395,-0.5395,-0.5395,-0.5395,-0.5395,-0.5362,-0.5093,-0.4586,-0.3682,-0.2678,-0.1742,0.0,0.0,0.0,0.0,0.0,0.0,0.0,0.0,0.0,0.0,0.0,0.0,0.0,0.0,0.0,0.0,-0.7095,-0.7095,-0.7095,-0.7095,-0.7082,-0.6947,-0.6837,-0.6688,-0.6573,-0.6426,-0.631,-0.63,-0.63,-0.63,-0.63,-0.63,-0.63,-0.63,-0.63,-0.63,-0.63,-0.63,-0.63,-0.6338,-0.6377,-0.649,-0.6338,-0.6377,-0.6451,-0.683,-0.7276,-0.7634,-0.7084,-0.7577,-0.7581,-0.6967,-0.6327,-0.5875,-0.5549,-0.547,-0.5426,-0.5416,-0.5409,-0.5395,-0.5395,-0.5395,-0.5395,-0.5395,-0.5395,-0.5395,-0.5395,-0.5392,-0.5344,-0.5337,-0.5277,-0.5296,-0.5289,-0.5286,-0.5259,-0.5101,-0.4995,-0.5083,-0.5213,-0.531,-0.533,-0.5361,-0.5388,-0.5388,-0.5395,-0.5395,-0.5395,-0.5395,-0.5395,-0.5395,-0.5395,-0.5395,-0.5395,-0.5395,-0.5395,-0.5395,-0.5395,-0.5395,-0.5395,-0.5395,-0.5395,-0.5395,-0.5395,-0.5395,-0.5395,-0.5395,-0.5395,-0.5395,-0.5395,-0.5326,-0.5193,-0.442,-0.3247,-0.2312,-0.1442,0.0,0.0,0.0,0.0,0.0,0.0,0.0,0.0,0.0,0.0,0.0,0.0,0.0,0.0,0.0,0.0,-0.7095,-0.7095,-0.7095,-0.7095,-0.7078,-0.6846,-0.6756,-0.6664,-0.6447,-0.6354,-0.63,-0.63,-0.63,-0.63,-0.63,-0.63,-0.63,-0.63,-0.63,-0.63,-0.63,-0.63,-0.63,-0.63,-0.63,-0.63,-0.63,-0.63,-0.6338,-0.63,-0.6451,-0.6573,-0.6374,-0.6479,-0.653,-0.6404,-0.5929,-0.5735,-0.5654,-0.5634,-0.5542,-0.5528,-0.5494,-0.5399,-0.5395,-0.5395,-0.5395,-0.5395,-0.5395,-0.5395,-0.5395,-0.5395,-0.5395,-0.5395,-0.5395,-0.5395,-0.5395,-0.5395,-0.5395,-0.5279,-0.523,-0.525,-0.5358,-0.5395,-0.5395,-0.5395,-0.5395,-0.5395,-0.5395,-0.5395,-0.5395,-0.5395,-0.5395,-0.5395,-0.5395,-0.5395,-0.5395,-0.5395,-0.5395,-0.5395,-0.5395,-0.5395,-0.5395,-0.5395,-0.5395,-0.5395,-0.5395,-0.5395,-0.5395,-0.5395,-0.5395,-0.5395,-0.5395,-0.5259,-0.509,-0.3982,-0.2744,-0.1944,0.0,0.0,0.0,0.0,0.0,0.0,0.0,0.0,0.0,0.0,0.0,0.0,0.0,0.0,0.0,0.0,0.0,-0.7095,-0.7092,-0.7051,-0.7058,-0.7055,-0.6824,-0.6702,-0.6647,-0.639,-0.63,-0.63,-0.63,-0.63,-0.63,-0.63,-0.63,-0.63,-0.63,-0.63,-0.63,-0.63,-0.63,-0.63,-0.63,-0.63,-0.63,-0.63,-0.63,-0.63,-0.63,-0.6335,-0.6374,-0.6293,-0.6259,-0.6177,-0.5952,-0.5871,-0.5864,-0.5806,-0.5769,-0.5657,-0.5599,-0.5559,-0.5467,-0.5429,-0.5395,-0.5395,-0.5395,-0.5395,-0.5395,-0.5395,-0.5395,-0.5395,-0.5395,-0.5395,-0.5395,-0.5395,-0.5395,-0.5395,-0.5395,-0.5395,-0.5378,-0.5382,-0.5395,-0.5395,-0.5395,-0.5395,-0.5395,-0.5395,-0.5395,-0.5395,-0.5395,-0.5395,-0.5395,-0.5395,-0.5395,-0.5395,-0.5395,-0.5395,-0.5395,-0.5395,-0.5395,-0.5395,-0.5395,-0.5395,-0.5395,-0.5395,-0.5395,-0.5395,-0.5395,-0.5395,-0.5395,-0.5395,-0.5193,-0.4921,-0.3716,-0.2577,-0.1709,0.0,0.0,0.0,0.0,0.0,0.0,0.0,0.0,0.0,0.0,0.0,0.0,0.0,0.0,0.0,0.0,0.0,-0.7082,-0.7078,-0.6943,-0.6964,-0.7028,-0.682,-0.6688,-0.6641,-0.6426,-0.63,-0.63,-0.63,-0.63,-0.63,-0.63,-0.63,-0.63,-0.63,-0.63,-0.63,-0.63,-0.63,-0.63,-0.63,-0.63,-0.63,-0.63,-0.63,-0.63,-0.63,-0.63,-0.63,-0.6296,-0.6289,-0.6272,-0.6101,-0.599,-0.5969,-0.5891,-0.5847,-0.5786,-0.5705,-0.5647,-0.5569,-0.5498,-0.5443,-0.5443,-0.5405,-0.5399,-0.5395,-0.5395,-0.5395,-0.5395,-0.5395,-0.5395,-0.5395,-0.5395,-0.5395,-0.5395,-0.5395,-0.5395,-0.5395,-0.5395,-0.5395,-0.5395,-0.5395,-0.5395,-0.5395,-0.5395,-0.5395,-0.5395,-0.5395,-0.5395,-0.5395,-0.5395,-0.5395,-0.5395,-0.5395,-0.5395,-0.5395,-0.5395,-0.5395,-0.5395,-0.5395,-0.5395,-0.5395,-0.5395,-0.5395,-0.5395,-0.5395,-0.5395,-0.5395,-0.5362,-0.4954,-0.4553,-0.348,-0.2444,-0.1542,0.0,0.0,0.0,0.0,0.0,0.0,0.0,0.0,0.0,0.0,0.0,0.0,0.0,0.0,0.0,0.0,0.0,-0.6809,-0.6844,-0.6797,-0.6807,-0.682,-0.6637,-0.6549,-0.6515,-0.6395,-0.63,-0.63,-0.63,-0.63,-0.63,-0.63,-0.63,-0.63,-0.63,-0.63,-0.63,-0.63,-0.63,-0.63,-0.63,-0.63,-0.63,-0.63,-0.63,-0.63,-0.63,-0.63,-0.63,-0.63,-0.63,-0.6289,-0.6193,-0.6183,-0.6179,-0.6122,-0.6064,-0.5962,-0.5895,-0.5823,-0.5728,-0.562,-0.5539,-0.5521,-0.5457,-0.5399,-0.5395,-0.5395,-0.5395,-0.5395,-0.5395,-0.5395,-0.5395,-0.5395,-0.5395,-0.5395,-0.5395,-0.5395,-0.5395,-0.5395,-0.5395,-0.5395,-0.5395,-0.5395,-0.5395,-0.5395,-0.5395,-0.5395,-0.5395,-0.5395,-0.5395,-0.5395,-0.5395,-0.5395,-0.5395,-0.5395,-0.5395,-0.5395,-0.5395,-0.5395,-0.5395,-0.5395,-0.5395,-0.5395,-0.5395,-0.5395,-0.5395,-0.5395,-0.5395,-0.5292,-0.4821,-0.4148,-0.3211,-0.2243,-0.1274,0.0,0.0,0.0,0.0,0.0,0.0,0.0,0.0,0.0,0.0,0.0,0.0,0.0,0.0,0.0,0.0,0.0,-0.6702,-0.6695,-0.6644,-0.6661,-0.6607,-0.6515,-0.6491,-0.6433,-0.634,-0.63,-0.63,-0.63,-0.63,-0.63,-0.63,-0.63,-0.63,-0.63,-0.63,-0.63,-0.63,-0.63,-0.63,-0.63,-0.63,-0.63,-0.63,-0.63,-0.63,-0.63,-0.63,-0.63,-0.63,-0.63,-0.6293,-0.6289,-0.6286,-0.6279,-0.6248,-0.6228,-0.6108,-0.6006,-0.5936,-0.585,-0.5715,-0.5583,-0.5549,-0.5501,-0.5395,-0.5395,-0.5395,-0.5395,-0.5395,-0.5395,-0.5395,-0.5395,-0.5395,-0.5395,-0.5395,-0.5395,-0.5395,-0.5395,-0.5395,-0.5395,-0.5395,-0.5395,-0.5395,-0.5395,-0.5395,-0.5395,-0.5395,-0.5395,-0.5395,-0.5395,-0.5395,-0.5395,-0.5395,-0.5395,-0.5395,-0.5395,-0.5395,-0.5395,-0.5395,-0.5395,-0.5395,-0.5395,-0.5395,-0.5395,-0.5395,-0.5395,-0.5395,-0.5395,-0.5123,-0.4586,-0.3949,-0.3111,-0.211,-0.104,0.0,0.0,0.0,0.0,0.0,0.0,0.0,0.0,0.0,0.0,0.0,0.0,0.0,0.0,0.0,0.0,0.0,-0.6681,-0.6664,-0.6529,-0.6508,-0.6508,-0.6491,-0.6422,-0.6306,-0.6303,-0.63,-0.63,-0.63,-0.63,-0.63,-0.63,-0.63,-0.63,-0.63,-0.63,-0.63,-0.63,-0.63,-0.63,-0.63,-0.63,-0.63,-0.63,-0.63,-0.63,-0.63,-0.63,-0.63,-0.63,-0.63,-0.63,-0.63,-0.63,-0.63,-0.6293,-0.6279,-0.6196,-0.6122,-0.6074,-0.5969,-0.583,-0.5688,-0.5603,-0.5528,-0.5436,-0.5402,-0.5395,-0.5395,-0.5395,-0.5395,-0.5395,-0.5395,-0.5395,-0.5395,-0.5395,-0.5395,-0.5395,-0.5395,-0.5395,-0.5395,-0.5395,-0.5395,-0.5395,-0.5395,-0.5395,-0.5395,-0.5395,-0.5395,-0.5395,-0.5395,-0.5395,-0.5395,-0.5395,-0.5395,-0.5395,-0.5395,-0.5395,-0.5395,-0.5395,-0.5395,-0.5395,-0.5395,-0.5395,-0.5395,-0.5395,-0.5395,-0.5395,-0.5359,-0.499,-0.435,-0.3613,-0.2743,-0.1776,-0.0639,0.0,0.0,0.0,0.0,0.0,0.0,0.0,0.0,0.0,0.0,0.0,0.0,0.0,0.0,0.0,0.0,0.0,-0.6386,-0.6419,-0.6378,-0.6361,-0.6361,-0.6361,-0.6337,-0.6303,-0.63,-0.63,-0.63,-0.63,-0.63,-0.63,-0.63,-0.63,-0.63,-0.63,-0.63,-0.63,-0.63,-0.63,-0.63,-0.63,-0.63,-0.63,-0.63,-0.63,-0.63,-0.63,-0.63,-0.63,-0.63,-0.63,-0.63,-0.63,-0.63,-0.63,-0.63,-0.63,-0.63,-0.6203,-0.6176,-0.6105,-0.5976,-0.584,-0.5725,-0.5599,-0.5498,-0.5419,-0.5402,-0.5399,-0.5395,-0.5395,-0.5395,-0.5395,-0.5395,-0.5395,-0.5395,-0.5395,-0.5395,-0.5395,-0.5395,-0.5395,-0.5395,-0.5395,-0.5395,-0.5395,-0.5395,-0.5395,-0.5395,-0.5395,-0.5395,-0.5395,-0.5395,-0.5395,-0.5395,-0.5395,-0.5395,-0.5395,-0.5395,-0.5395,-0.5395,-0.5395,-0.5395,-0.5395,-0.5395,-0.5395,-0.5395,-0.5395,-0.5193,-0.5123,-0.4719,-0.4048,-0.3078,-0.2175,-0.1208,0.0,0.0,0.0,0.0,0.0,0.0,0.0,0.0,0.0,0.0,0.0,0.0,0.0,0.0,0.0,0.0,0.0,0.0,-0.63,-0.63,-0.63,-0.63,-0.63,-0.63,-0.63,-0.63,-0.63,-0.63,-0.63,-0.63,-0.63,-0.63,-0.63,-0.63,-0.63,-0.63,-0.63,-0.63,-0.63,-0.63,-0.63,-0.63,-0.63,-0.63,-0.63,-0.63,-0.63,-0.63,-0.63,-0.63,-0.63,-0.63,-0.63,-0.63,-0.63,-0.63,-0.63,-0.63,-0.63,-0.63,-0.63,-0.6269,-0.6108,-0.5986,-0.5888,-0.5749,-0.5603,-0.5511,-0.5487,-0.5446,-0.5423,-0.5395,-0.5395,-0.5395,-0.5395,-0.5395,-0.5395,-0.5395,-0.5395,-0.5395,-0.5395,-0.5395,-0.5395,-0.5395,-0.5395,-0.5395,-0.5395,-0.5395,-0.5395,-0.5395,-0.5395,-0.5395,-0.5395,-0.5395,-0.5395,-0.5395,-0.5395,-0.5395,-0.5395,-0.5395,-0.5395,-0.5395,-0.5395,-0.5395,-0.5395,-0.5395,-0.5395,-0.5395,-0.499,-0.4655,-0.4217,-0.3647,-0.2643,-0.1675,-0.0974,0.0,0.0,0.0,0.0,0.0,0.0,0.0,0.0,0.0,0.0,0.0,0.0,0.0,0.0,0.0,0.0,0.0,0.0,-0.63,-0.63,-0.63,-0.63,-0.63,-0.63,-0.63,-0.63,-0.63,-0.63,-0.63,-0.63,-0.63,-0.63,-0.63,-0.63,-0.63,-0.63,-0.63,-0.63,-0.63,-0.63,-0.63,-0.63,-0.63,-0.63,-0.63,-0.63,-0.63,-0.63,-0.63,-0.63,-0.63,-0.63,-0.63,-0.63,-0.63,-0.63,-0.63,-0.63,-0.63,-0.63,-0.6296,-0.6276,-0.6146,-0.604,-0.5956,-0.5851,-0.5749,-0.5647,-0.5566,-0.5501,-0.5443,-0.5395,-0.5395,-0.5395,-0.5395,-0.5395,-0.5395,-0.5395,-0.5395,-0.5395,-0.5395,-0.5395,-0.5395,-0.5395,-0.5395,-0.5395,-0.5395,-0.5395,-0.5395,-0.5395,-0.5395,-0.5395,-0.5395,-0.5395,-0.5395,-0.5395,-0.5395,-0.5395,-0.5395,-0.5395,-0.5395,-0.5395,-0.5395,-0.5395,-0.5395,-0.5395,-0.5123,-0.5123,-0.4722,-0.4118,-0.338,-0.2811,-0.2076,-0.124,-0.0773,0.0,0.0,0.0,0.0,0.0,0.0,0.0,0.0,0.0,0.0,0.0,0.0,0.0,0.0,0.0,0.0,0.0,0.0,-0.63,-0.63,-0.63,-0.63,-0.63,-0.63,-0.63,-0.63,-0.63,-0.63,-0.63,-0.63,-0.63,-0.63,-0.63,-0.63,-0.63,-0.63,-0.63,-0.63,-0.63,-0.63,-0.63,-0.63,-0.63,-0.63,-0.63,-0.63,-0.63,-0.63,-0.63,-0.63,-0.63,-0.63,-0.63,-0.63,-0.63,-0.63,-0.63,-0.63,-0.63,-0.63,-0.6293,-0.6289,-0.6193,-0.6125,-0.6074,-0.5969,-0.5817,-0.565,-0.5603,-0.5504,-0.5409,-0.5399,-0.5395,-0.5395,-0.5395,-0.5395,-0.5395,-0.5395,-0.5395,-0.5395,-0.5395,-0.5395,-0.5395,-0.5395,-0.5395,-0.5395,-0.5292,-0.5259,-0.5292,-0.5292,-0.5226,-0.5226,-0.5259,-0.5259,-0.5259,-0.5259,-0.5259,-0.5259,-0.5292,-0.5259,-0.5226,-0.5292,-0.5395,-0.5395,-0.5395,-0.5226,-0.4619,-0.4353,-0.4082,-0.3447,-0.2377,-0.1708,-0.1174,0.0,0.0,0.0,0.0,0.0,0.0,0.0,0.0,0.0,0.0,0.0,0.0,0.0,0.0,0.0,0.0,0.0,0.0,0.0,0.0,-0.63,-0.63,-0.63,-0.63,-0.63,-0.63,-0.63,-0.63,-0.63,-0.63,-0.63,-0.63,-0.63,-0.63,-0.63,-0.63,-0.63,-0.63,-0.63,-0.63,-0.63,-0.63,-0.63,-0.63,-0.63,-0.63,-0.63,-0.63,-0.63,-0.63,-0.63,-0.63,-0.63,-0.63,-0.63,-0.63,-0.63,-0.63,-0.63,-0.63,-0.63,-0.63,-0.63,-0.63,-0.6279,-0.619,-0.6179,-0.6125,-0.5996,-0.5789,-0.5681,-0.5515,-0.5436,-0.5395,-0.5395,-0.5395,-0.5395,-0.5395,-0.5395,-0.5395,-0.5395,-0.5395,-0.5395,-0.5395,-0.4855,-0.4855,-0.5362,-0.5292,-0.4115,-0.3915,-0.4248,-0.4317,-0.4015,-0.3882,-0.388,-0.3846,-0.3846,-0.388,-0.388,-0.3882,-0.3882,-0.3882,-0.3846,-0.3846,-0.4048,-0.4483,-0.4619,-0.4921,-0.432,-0.3447,-0.3211,-0.2811,-0.1743,-0.1007,-0.0605,0.0,0.0,0.0,0.0,0.0,0.0,0.0,0.0,0.0,0.0,0.0,0.0,0.0,0.0,0.0,0.0,0.0,0.0,0.0,0.0,-0.63,-0.63,-0.63,-0.63,-0.63,-0.63,-0.63,-0.63,-0.63,-0.63,-0.63,-0.63,-0.63,-0.63,-0.63,-0.63,-0.63,-0.63,-0.63,-0.63,-0.63,-0.63,-0.63,-0.63,-0.63,-0.63,-0.63,-0.63,-0.63,-0.63,-0.63,-0.63,-0.63,-0.63,-0.63,-0.63,-0.63,-0.63,-0.63,-0.63,-0.63,-0.63,-0.63,-0.63,-0.63,-0.63,-0.63,-0.6272,-0.6166,-0.5969,-0.5739,-0.5566,-0.5477,-0.5423,-0.5395,-0.5395,-0.5395,-0.5395,-0.5395,-0.5395,-0.5395,-0.5395,-0.5395,-0.509,-0.4519,-0.4392,-0.4894,-0.4495,-0.3318,-0.295,-0.3286,-0.3353,-0.2984,-0.2804,-0.2769,-0.2767,-0.2767,-0.2769,-0.2803,-0.2803,-0.2801,-0.2801,-0.2636,-0.2632,-0.2961,-0.3397,-0.3687,-0.4051,-0.3915,-0.2811,-0.2076,-0.1776,-0.1141,-0.0505,0.0,0.0,0.0,0.0,0.0,0.0,0.0,0.0,0.0,0.0,0.0,0.0,0.0,0.0,0.0,0.0,0.0,0.0,0.0,0.0,0.0,-0.63,-0.63,-0.63,-0.63,-0.63,-0.63,-0.63,-0.63,-0.63,-0.63,-0.63,-0.63,-0.63,-0.63,-0.63,-0.63,-0.63,-0.63,-0.63,-0.63,-0.63,-0.63,-0.63,-0.63,-0.63,-0.63,-0.63,-0.63,-0.63,-0.63,-0.63,-0.63,-0.63,-0.63,-0.63,-0.63,-0.63,-0.63,-0.63,-0.63,-0.63,-0.63,-0.63,-0.63,-0.63,-0.63,-0.63,-0.63,-0.6166,-0.5993,-0.5772,-0.5616,-0.5539,-0.5457,-0.5405,-0.5395,-0.5395,-0.5395,-0.5395,-0.5395,-0.5395,-0.5126,-0.5024,-0.4719,-0.4056,-0.3265,-0.3569,-0.3576,-0.2769,-0.2568,-0.2739,-0.2671,-0.244,-0.2421,-0.2407,-0.2403,-0.24,-0.244,-0.2516,-0.2546,-0.2575,-0.2303,-0.1891,-0.2059,-0.2459,-0.2723,-0.2656,-0.2954,-0.2984,-0.2011,-0.1043,0.0,0.0,0.0,0.0,0.0,0.0,0.0,0.0,0.0,0.0,0.0,0.0,0.0,0.0,0.0,0.0,0.0,0.0,0.0,0.0,0.0,0.0,0.0,0.0]}]]